GFSSGP_850_thetae_045.txt.gz
Theta_e
345 347 350 350 359 363 359 354 352 353 352 350 348 352 352 351 354 357 342 342 338 344 347 345 343 341 336 334 331 331 332 334 333 332 335 334 337 340 342 341 341 339 340 341 340 336 332 334 336
349 351 352 354 361 363 353 352 352 352 351 350 350 351 351 354 348 346 345 342 338 347 348 347 343 343 341 334 334 334 333 333 332 334 335 334 335 336 340 334 340 341 341 341 339 337 339 339 341
353 353 353 358 362 358 354 351 352 351 350 350 351 351 352 353 347 346 346 339 345 349 350 346 344 342 339 337 335 332 332 333 333 342 345 335 335 337 336 342 337 338 339 341 340 338 340 338 338
353 353 353 359 359 351 351 351 350 351 350 351 351 352 351 352 350 348 344 344 348 349 350 343 343 341 337 333 332 331 332 333 332 335 333 335 340 338 342 341 336 336 337 339 341 340 340 339 341
354 355 361 362 352 350 349 349 351 352 351 350 352 353 352 351 350 349 346 349 349 350 351 344 343 339 334 332 331 332 333 332 331 332 334 335 338 343 344 343 337 336 337 340 341 342 341 342 343
357 355 362 359 347 347 349 348 348 350 351 351 352 352 352 350 350 349 349 349 351 351 348 347 346 336 333 331 331 332 333 332 331 334 336 338 338 338 340 340 338 336 342 343 343 343 341 340 340
358 357 356 347 345 348 348 348 349 349 351 351 351 354 352 351 350 350 350 351 350 349 349 350 346 337 333 331 331 331 332 332 334 337 339 339 339 338 338 338 338 338 342 344 344 342 341 341 338
352 353 353 347 344 346 346 347 346 348 351 350 353 355 353 352 350 349 350 349 348 349 349 346 346 346 346 335 331 330 331 332 336 339 338 338 340 339 344 343 338 339 343 343 343 343 342 342 340
349 351 354 349 351 348 345 344 345 347 349 350 350 352 352 351 350 349 349 348 348 347 346 344 345 347 348 347 336 330 331 332 337 340 339 348 351 349 349 342 340 342 342 343 342 340 340 343 340
349 350 353 347 349 347 348 345 343 346 348 349 350 352 351 351 351 349 349 349 348 347 345 343 344 345 347 345 336 345 343 342 349 350 343 350 350 350 351 346 344 342 341 341 341 342 345 346 347
347 348 348 344 344 346 346 349 346 343 349 347 350 352 350 351 349 349 349 348 348 346 343 343 344 346 346 345 346 346 345 346 348 351 350 351 351 349 350 350 351 349 347 351 348 349 348 348 345
347 344 345 344 343 344 346 348 348 346 342 346 348 350 350 350 351 351 349 350 349 345 344 343 345 346 346 347 345 345 344 346 347 349 351 350 351 350 351 350 352 350 349 350 350 349 349 347 342
345 344 343 346 344 343 346 348 349 347 344 345 347 350 350 350 350 349 349 348 347 345 344 344 345 348 348 348 346 345 344 344 345 348 350 351 349 349 349 351 351 352 350 349 348 349 348 347 344
341 342 342 344 343 341 344 347 347 348 346 346 347 349 349 349 349 349 349 347 347 345 345 345 347 349 348 348 349 346 345 344 345 345 347 344 349 350 350 349 351 349 351 347 350 350 346 348 346
340 342 342 344 343 342 341 346 347 348 348 348 349 347 348 348 348 348 348 347 347 346 346 346 348 349 349 349 350 349 346 345 344 345 347 349 347 348 348 349 350 349 352 347 349 349 348 348 347
340 341 344 342 339 341 341 346 345 349 350 350 349 347 347 347 348 348 348 347 347 346 346 347 346 348 350 349 350 349 346 344 344 343 346 343 343 348 350 353 351 350 349 350 350 348 347 344 340
336 339 341 341 339 341 340 345 343 348 350 350 350 349 346 347 347 347 348 348 347 347 347 348 348 347 349 350 350 349 346 345 344 343 345 349 346 347 350 352 352 349 352 349 349 349 347 347 342
335 335 337 339 340 340 341 343 347 348 348 350 351 350 348 346 346 347 347 346 347 347 348 349 348 347 348 350 350 348 346 346 344 343 346 350 348 353 352 353 354 349 351 349 349 348 346 342 340
335 334 336 338 340 340 342 342 344 346 347 346 349 350 349 347 345 345 346 345 345 347 348 350 350 349 349 349 349 346 345 345 344 343 346 349 351 354 350 354 353 348 352 348 348 348 344 342 337
335 335 335 335 338 340 341 344 344 344 346 346 347 350 349 349 346 345 345 345 345 347 348 350 351 350 349 349 347 345 344 344 343 343 345 350 353 355 349 347 350 350 353 351 351 346 347 343 338
335 335 334 335 336 340 339 342 341 342 341 345 344 349 349 350 349 346 345 345 345 346 348 350 350 350 349 348 348 347 345 343 344 344 347 352 354 356 350 354 352 354 345 351 354 350 344 348 338
328 331 333 333 336 341 338 342 341 340 341 342 342 346 349 349 350 348 346 345 345 345 348 350 350 349 349 345 350 348 346 344 343 345 347 351 354 355 355 356 351 347 350 352 351 349 351 341 339
328 329 331 332 334 337 338 341 341 341 341 341 342 342 346 348 349 349 347 345 345 345 346 349 351 351 348 348 345 350 348 346 346 346 348 350 353 353 353 355 355 348 345 351 351 353 342 348 343
328 328 329 330 332 335 337 340 341 340 342 341 342 342 343 348 349 349 348 346 344 344 345 348 354 354 350 352 340 347 349 347 345 348 350 351 352 354 353 354 353 354 353 353 354 352 349 346 344
327 327 328 329 332 333 333 336 339 338 338 340 341 342 342 346 348 349 348 347 344 344 347 349 353 355 354 353 351 339 345 347 346 348 352 351 350 350 350 349 351 353 353 353 351 352 352 340 346
328 327 328 331 330 330 332 335 337 337 336 337 339 340 342 344 347 349 349 349 346 345 346 348 352 353 352 348 346 343 340 350 350 350 353 352 351 349 349 351 354 353 354 351 353 353 352 351 335
329 329 328 329 330 330 330 332 333 335 336 336 336 338 341 343 346 348 349 349 348 346 347 348 350 354 352 348 347 346 344 343 352 350 350 355 353 350 350 352 355 354 353 354 353 353 353 350 340
330 329 328 329 332 332 331 332 333 334 334 335 336 338 338 342 345 348 349 350 349 349 347 349 350 354 345 341 342 344 345 345 345 351 352 355 354 353 352 351 355 354 353 352 352 352 353 347 347
329 330 329 329 329 331 333 332 333 334 334 334 336 335 336 338 344 346 347 349 351 350 350 350 352 352 355 346 341 342 343 344 345 346 348 347 350 354 349 354 354 354 352 351 351 350 352 351 337
329 330 331 333 333 330 332 333 333 333 333 334 334 335 335 337 340 343 346 348 349 351 352 353 354 355 354 349 343 339 338 341 343 343 346 346 345 346 347 347 353 350 350 351 351 349 349 352 344

GFSSGP_850_thetae_051.txt.gz
Theta_e
344 347 349 350 358 358 361 358 354 353 350 349 348 348 353 351 350 349 342 341 340 340 338 337 338 336 332 331 331 333 332 338 336 340 340 339 338 338 338 340 341 342 338 335 328 333 338 337 327
345 350 352 353 361 362 361 355 354 351 352 351 352 352 352 351 345 342 341 342 339 339 337 337 339 332 330 329 332 333 333 340 334 339 333 339 334 340 342 340 340 339 337 338 336 335 332 329 327
350 351 353 357 359 361 360 354 352 351 352 352 352 353 353 348 343 341 340 342 344 340 337 334 338 329 329 330 332 332 338 337 341 333 334 333 339 335 335 338 339 340 338 338 336 335 335 332 326
351 351 352 358 359 355 354 353 351 351 352 352 353 352 347 347 342 341 345 346 345 340 336 336 336 330 331 332 332 332 334 344 335 335 334 338 340 335 335 336 337 339 340 339 338 340 343 341 336
355 354 358 357 356 353 352 350 351 352 352 353 352 350 345 342 342 343 346 348 348 343 339 338 339 331 333 332 332 332 334 334 333 335 335 339 341 338 335 336 338 339 340 340 341 342 340 341 340
354 346 355 358 355 352 350 351 351 352 353 351 350 350 350 346 341 347 348 346 345 343 341 341 340 335 333 331 332 335 331 332 334 336 337 338 338 337 335 340 341 341 340 339 338 338 337 337 340
353 348 348 355 356 354 353 351 352 353 353 352 351 352 348 349 342 347 348 348 347 343 340 338 335 333 331 331 338 334 331 334 336 338 338 337 338 337 337 339 343 342 340 341 340 339 338 336 339
355 353 354 350 350 351 349 350 352 354 354 352 350 351 346 347 342 347 348 346 349 345 340 336 333 331 330 331 338 331 333 336 338 338 337 341 345 343 337 339 342 342 340 339 339 338 337 338 340
354 351 354 350 350 349 346 350 353 353 353 352 351 350 346 342 347 348 348 347 350 345 341 336 332 331 330 330 331 331 335 338 337 339 340 345 347 343 341 340 341 341 341 340 340 341 341 341 344
352 351 354 346 345 347 346 346 348 353 353 352 351 349 343 344 348 348 347 349 350 347 345 339 331 331 331 329 329 331 334 338 339 338 340 339 346 346 346 343 341 340 340 342 346 344 343 343 344
347 349 349 345 345 345 344 343 346 351 354 352 350 349 346 346 349 349 346 349 347 348 345 337 333 335 337 329 329 331 343 345 347 337 335 342 345 347 345 348 345 348 348 347 348 344 344 345 346
346 344 344 345 344 343 341 344 346 346 354 352 350 349 348 349 349 349 349 348 347 348 344 340 340 343 346 343 337 342 346 345 347 342 343 344 343 337 343 347 346 348 348 347 347 342 342 345 344
343 343 345 345 344 342 341 344 346 352 354 351 351 350 350 350 350 349 349 348 349 347 344 342 343 344 346 347 344 344 344 347 349 348 346 347 348 345 345 346 346 347 350 349 347 348 343 345 343
341 341 343 345 345 345 344 344 345 354 353 351 350 350 349 350 349 348 348 349 348 348 345 344 344 342 349 348 344 347 345 347 349 348 345 352 348 349 349 347 347 348 346 347 348 343 343 342 342
339 339 340 345 346 346 345 346 349 349 353 352 351 351 350 350 349 349 347 348 349 348 345 344 343 344 347 348 344 346 346 343 348 347 346 347 346 349 348 348 349 349 347 346 345 342 346 345 341
336 337 340 339 344 346 346 351 346 348 352 352 352 351 351 350 348 348 347 346 348 349 345 344 344 346 343 344 343 346 344 346 344 345 346 345 339 348 344 348 347 347 348 347 344 345 343 342 339
332 338 339 339 341 342 345 350 346 346 347 348 350 352 351 351 349 347 348 345 349 348 345 345 344 345 345 342 340 346 344 345 346 345 344 344 345 342 346 347 349 350 348 347 344 345 345 345 341
333 337 337 338 340 342 342 348 346 346 344 345 348 349 350 351 351 350 350 345 349 347 342 345 346 346 346 343 338 341 344 346 345 344 344 343 346 346 343 348 348 348 348 346 344 343 342 341 338
334 337 338 337 338 340 341 347 346 346 342 344 347 346 348 348 351 351 350 350 351 345 344 343 346 346 347 347 340 338 338 345 345 344 344 343 345 347 343 344 352 349 349 348 344 339 340 342 336
333 335 337 337 336 337 341 346 347 346 346 346 348 348 347 348 348 350 351 350 348 346 345 344 345 346 346 346 345 337 337 345 344 343 344 344 347 347 344 347 350 351 351 349 343 342 342 343 336
332 333 334 336 334 333 337 347 345 342 344 343 346 341 346 346 347 348 347 348 347 347 346 345 345 345 345 346 346 345 343 345 345 343 341 344 344 344 343 349 346 351 352 351 349 343 344 343 337
332 332 334 336 335 333 335 340 347 344 346 344 344 341 342 343 347 348 346 347 348 347 346 346 346 345 345 347 347 346 338 344 344 344 343 341 343 344 343 352 345 350 352 347 350 343 341 345 340
332 331 332 335 335 333 335 338 344 348 349 345 344 344 343 344 347 347 347 347 347 348 347 347 347 347 346 347 345 343 340 341 344 347 345 343 343 346 347 350 350 347 349 347 352 350 343 344 342
332 331 329 331 333 334 332 335 338 347 350 347 342 342 342 346 348 347 348 347 348 348 348 347 347 347 347 346 346 343 339 341 344 343 346 344 345 345 350 351 348 349 348 346 349 351 350 339 342
330 328 328 329 331 332 329 330 331 338 341 344 344 343 347 349 348 347 348 347 347 347 348 347 347 347 347 346 345 345 341 343 339 341 343 343 346 346 351 353 351 347 349 347 348 352 352 348 337
330 327 324 326 327 328 326 330 331 333 336 341 344 347 349 349 348 347 347 347 346 347 347 348 347 346 346 346 343 342 342 340 342 338 343 345 346 347 349 350 350 349 344 345 343 345 350 345 331
326 326 324 324 327 325 325 327 328 329 331 335 338 341 349 349 349 348 347 347 346 346 346 348 348 347 346 345 340 338 338 340 336 336 340 345 347 350 350 351 351 350 349 348 345 339 343 347 343
325 324 324 324 325 327 327 327 328 328 329 331 332 338 343 348 350 350 348 347 347 346 345 347 347 346 345 345 344 338 331 332 334 334 336 342 345 348 353 354 353 351 350 349 349 341 340 348 342
325 325 324 323 323 325 329 329 328 329 329 330 331 337 340 348 350 350 349 348 348 347 346 346 347 347 346 346 345 341 333 333 334 337 333 336 342 350 350 350 351 352 350 350 350 338 340 346 347
327 326 325 325 323 324 323 327 332 331 330 331 332 335 340 345 350 350 350 349 349 347 346 346 346 346 345 344 344 345 343 339 337 337 335 334 335 341 353 351 350 354 354 351 350 346 334 345 345

GFSSGP_850_thetae_054.txt.gz
Theta_e
341 348 349 350 357 357 362 360 354 352 350 348 348 348 350 349 348 347 343 341 340 339 340 340 339 334 330 330 333 333 338 334 341 339 339 338 338 338 341 339 338 345 330 330 333 337 331 327 331
343 349 351 353 360 362 361 355 356 350 349 348 350 351 351 349 343 343 342 341 339 338 339 340 336 331 330 332 332 334 338 343 334 335 332 336 341 339 341 344 344 337 335 333 331 331 328 328 333
345 350 352 356 358 359 360 354 351 351 349 351 353 352 351 346 342 342 341 340 337 337 337 339 332 330 330 332 332 336 336 334 334 334 338 339 337 340 343 342 343 337 337 332 333 333 328 331 338
351 350 352 358 358 354 354 352 351 351 352 352 351 349 345 345 342 342 340 338 337 336 338 331 330 328 330 332 332 339 340 334 334 333 345 339 335 335 336 339 339 339 338 338 342 342 339 329 342
354 353 355 357 353 352 350 351 351 352 353 352 350 344 343 342 341 341 340 340 336 335 340 329 328 329 331 331 332 338 337 334 335 336 344 342 335 335 338 338 340 340 340 341 340 339 340 336 337
353 347 349 354 353 351 351 351 352 353 351 346 342 342 343 342 344 346 344 341 336 333 336 330 330 331 331 331 332 332 332 334 336 338 339 340 336 337 340 341 341 339 338 338 338 337 337 340 337
347 347 350 350 352 349 353 352 352 353 351 349 348 348 344 345 346 348 347 345 339 336 335 333 331 330 330 332 333 331 333 335 337 337 337 336 336 336 342 342 340 339 340 338 338 337 336 339 338
352 347 349 351 351 350 351 350 353 353 352 350 348 348 344 346 347 348 347 346 344 339 337 333 331 329 331 338 333 332 335 337 337 337 338 339 336 337 339 342 341 339 339 339 339 338 338 340 339
354 355 356 351 350 348 349 350 353 353 351 351 350 346 342 347 348 347 347 349 343 341 337 332 329 329 331 339 331 334 337 336 337 338 344 340 339 340 340 341 341 340 340 340 341 340 342 342 341
353 353 354 347 344 346 347 351 353 352 352 350 347 346 343 346 347 347 348 348 346 342 337 331 329 329 330 331 331 336 336 337 339 338 344 344 341 342 341 341 340 340 342 346 343 344 341 344 344
350 354 349 348 345 345 345 344 351 352 353 349 345 348 343 346 347 347 348 348 346 341 337 331 330 329 329 329 331 336 337 338 335 338 342 341 346 344 344 342 344 344 345 346 347 346 345 345 345
346 346 348 347 345 345 343 344 352 352 352 349 347 347 342 345 347 348 348 348 347 341 338 332 330 330 328 328 331 340 341 344 335 341 344 340 337 342 342 346 348 345 346 345 343 343 343 343 345
337 342 345 345 344 344 343 344 347 349 351 348 344 342 344 347 347 347 348 348 348 344 343 335 330 332 329 337 338 344 344 346 343 344 343 346 344 345 341 342 345 346 345 344 345 344 343 341 343
337 338 342 343 344 344 343 343 352 352 350 348 344 343 345 348 347 346 347 348 346 344 344 334 332 337 341 345 343 344 345 347 347 345 344 346 347 347 344 345 347 345 347 346 344 344 343 344 343
330 337 339 340 345 345 343 346 356 352 350 349 347 346 347 349 348 349 347 346 346 345 345 336 337 341 344 345 343 347 346 346 345 345 346 346 342 347 345 348 348 346 344 345 343 342 345 345 340
331 331 335 335 345 345 344 349 352 351 351 350 349 348 348 349 349 349 349 347 346 346 346 342 342 341 345 346 344 346 346 345 346 347 347 346 344 341 343 348 348 345 346 344 343 344 343 340 339
324 330 333 335 344 346 346 351 352 353 351 350 350 349 349 348 348 349 349 347 347 348 346 345 343 342 343 345 344 346 345 344 344 344 344 344 344 338 342 346 347 346 343 346 343 343 344 340 336
325 331 332 335 343 345 348 348 351 351 352 351 350 350 349 348 347 348 347 345 348 348 348 348 343 343 342 342 341 345 344 344 345 345 344 344 344 344 341 348 346 347 347 344 343 343 343 342 340
327 329 332 335 336 345 348 348 349 351 351 352 351 351 350 349 347 348 348 345 347 348 348 346 344 343 345 344 343 343 345 345 345 344 344 344 343 345 346 343 347 348 347 346 345 343 342 340 338
325 328 332 333 335 335 346 348 347 348 348 350 349 348 350 351 350 348 347 347 345 347 349 346 344 344 345 345 343 339 343 342 341 343 344 344 343 345 347 343 348 346 347 348 342 341 341 340 336
326 326 330 333 333 333 347 350 347 345 342 345 347 348 348 349 350 350 349 347 345 346 349 348 345 345 345 345 345 340 335 340 344 343 344 344 343 347 346 344 346 349 350 350 345 341 342 339 336
326 327 329 332 332 334 334 355 348 346 344 346 346 348 347 347 348 350 350 350 348 346 349 348 343 344 344 345 344 343 336 333 335 336 342 344 343 345 343 344 348 346 350 350 349 342 346 341 337
328 327 329 331 331 331 333 343 348 347 346 346 346 347 346 346 347 347 350 350 350 349 349 348 344 344 344 344 344 342 343 333 333 337 341 342 342 343 343 344 349 344 350 351 350 346 340 345 342
328 328 328 329 326 331 332 331 342 349 347 345 344 345 345 340 343 347 348 350 350 350 350 346 344 344 344 344 344 342 343 338 335 338 342 344 343 342 343 347 348 349 346 347 347 350 347 345 343
330 326 330 328 329 329 328 328 330 344 344 344 343 345 345 341 339 346 346 347 348 349 349 346 345 345 345 345 344 342 342 340 333 335 340 343 343 343 344 346 350 350 347 345 345 346 350 348 342
329 329 326 330 327 329 324 327 328 339 341 343 343 344 344 342 342 344 346 347 347 348 347 347 346 346 346 346 345 342 340 342 337 334 336 342 343 343 345 346 350 350 349 347 348 344 348 351 351
330 330 323 320 320 322 323 324 325 326 339 343 344 343 343 342 342 344 346 347 347 347 347 347 347 347 347 346 345 344 340 339 337 333 335 336 342 342 345 346 348 349 349 346 345 344 343 346 347
329 323 325 317 325 323 322 323 326 325 324 334 340 344 343 343 343 345 347 347 347 347 347 347 347 347 346 345 345 345 343 339 336 335 333 334 339 344 345 348 350 351 351 350 348 348 345 342 342
325 327 324 322 318 323 323 324 322 323 323 323 332 343 343 344 345 347 347 347 347 347 347 347 347 346 346 345 345 345 344 343 340 336 334 332 335 342 344 347 351 353 353 351 350 349 349 344 339
330 322 322 324 320 318 320 325 327 325 324 325 325 340 343 347 348 349 347 347 347 346 347 347 346 345 344 344 345 344 344 343 341 337 333 332 332 337 342 347 349 351 350 352 351 350 349 346 337

GFSSGP_850_thetae_057.txt.gz
Theta_e
344 347 349 350 360 357 360 359 353 351 349 347 346 348 349 347 348 349 342 341 340 340 339 333 331 331 330 333 334 333 333 336 339 338 339 340 340 340 339 339 340 328 330 334 337 331 327 326 326
344 349 351 352 359 363 360 355 355 348 347 346 349 350 350 348 343 343 341 340 339 339 340 338 332 329 331 332 334 334 342 341 340 341 339 341 340 343 339 341 340 330 331 332 334 327 330 333 334
345 350 352 355 356 360 358 354 352 348 347 350 351 350 348 344 342 342 341 339 339 339 341 335 330 330 332 331 336 335 336 334 338 339 344 344 340 342 343 338 337 331 331 331 328 327 333 339 339
348 349 350 358 357 354 354 353 351 348 351 352 350 346 344 344 342 342 340 339 338 339 338 332 330 331 332 331 335 336 333 333 338 343 335 334 341 343 340 339 337 335 338 340 340 332 337 340 340
349 353 355 357 354 352 351 350 351 351 353 351 347 344 343 342 342 341 340 338 337 339 335 331 329 330 331 332 337 339 334 332 340 343 343 338 335 337 338 339 339 339 340 338 340 339 332 341 341
352 346 347 354 354 351 349 352 351 352 348 343 343 343 343 342 341 340 338 338 337 336 331 330 328 331 331 331 340 336 333 333 340 342 340 338 338 339 340 339 337 337 337 337 336 338 337 334 340
347 344 349 351 353 349 351 353 352 352 348 344 343 344 343 343 342 340 339 337 337 335 329 328 329 331 331 331 333 332 333 335 337 337 338 338 341 341 340 338 339 337 338 337 336 336 339 337 338
353 344 350 352 350 352 349 351 351 352 351 345 344 343 343 344 344 341 339 338 336 335 328 329 331 330 330 331 332 333 335 336 336 336 336 336 338 342 341 339 338 339 339 338 337 338 338 337 341
354 353 354 353 351 349 348 350 350 351 349 350 347 342 343 346 344 344 343 340 338 336 330 329 330 330 331 332 333 334 336 336 336 339 338 336 338 340 341 340 339 339 339 340 339 341 340 339 340
351 353 355 350 345 347 349 350 353 351 350 348 345 342 345 346 346 346 346 343 340 339 334 330 329 329 332 331 333 336 336 336 340 344 341 339 340 340 339 339 340 341 343 342 342 341 343 342 342
351 354 350 349 344 346 348 348 352 351 351 347 343 344 346 347 348 346 344 342 339 338 335 331 329 329 330 331 335 335 335 337 338 344 343 342 342 341 339 339 340 343 345 344 344 343 343 342 344
348 348 351 350 348 345 346 346 352 352 352 349 346 343 346 347 348 347 345 342 339 338 333 331 329 329 329 331 334 336 336 337 337 340 342 344 344 345 343 345 344 344 346 345 344 344 343 344 345
338 342 342 345 345 344 344 348 352 352 351 349 343 345 345 347 347 346 345 344 341 337 333 330 329 328 328 330 333 337 343 337 338 343 345 342 341 341 344 346 346 345 343 342 342 342 341 342 343
332 333 335 338 340 343 344 348 351 351 349 345 343 344 344 346 346 347 346 345 343 338 334 330 329 329 328 329 334 341 344 342 342 343 345 344 344 344 344 344 345 344 343 344 344 343 345 343 340
326 329 330 334 339 344 343 347 354 349 346 344 343 342 345 346 346 346 345 345 343 338 336 334 329 329 334 340 342 344 345 347 347 345 346 344 345 347 346 345 345 344 343 343 342 342 342 343 341
327 326 329 332 337 344 343 347 352 348 344 343 343 343 344 346 347 347 346 345 344 340 340 340 329 331 337 343 343 344 346 345 345 346 346 346 345 344 344 347 347 346 344 343 341 344 344 344 340
319 327 331 332 337 344 344 351 352 349 347 344 342 343 345 346 346 347 346 346 345 343 342 342 330 334 337 343 344 345 345 344 344 346 346 345 344 340 343 347 348 346 343 344 342 342 343 341 339
321 326 328 331 340 344 346 347 353 350 349 347 345 344 346 347 348 347 345 345 345 344 343 341 333 336 338 343 342 345 346 344 344 344 344 343 343 344 340 345 346 346 344 343 341 342 342 340 338
322 327 331 332 338 345 346 348 354 351 350 349 348 347 346 348 348 347 348 348 347 344 344 344 342 341 340 343 344 344 346 344 344 344 344 344 344 345 346 342 346 344 346 343 344 342 343 340 339
320 321 324 328 332 343 345 347 352 352 350 350 349 349 348 347 347 347 348 348 348 347 345 346 345 344 342 342 343 343 344 345 344 344 344 344 344 344 345 345 344 346 347 346 344 341 342 340 337
319 321 322 327 331 337 340 348 352 351 351 351 350 349 349 348 347 347 347 347 348 347 345 347 346 347 345 343 343 344 342 344 344 344 344 343 343 343 344 345 343 344 345 348 342 339 341 341 335
320 322 323 326 329 332 342 351 349 349 351 346 350 351 351 349 348 347 347 347 347 346 345 347 347 347 346 343 343 344 343 341 343 343 342 342 344 342 345 344 343 346 347 348 347 343 342 340 336
323 324 324 325 327 328 335 348 346 346 350 348 344 349 349 350 350 349 348 347 345 346 346 346 346 348 345 343 343 345 344 339 336 339 339 343 344 343 341 343 343 347 344 347 348 344 344 341 336
326 325 325 326 324 329 329 332 330 347 346 345 344 344 346 348 349 349 349 348 347 345 344 344 345 347 347 344 344 344 343 342 336 333 334 339 341 342 341 343 344 347 344 348 349 347 342 342 343
327 323 325 326 326 330 326 329 331 342 343 343 343 343 344 346 347 346 349 349 349 347 344 344 346 347 347 345 344 344 344 343 339 335 332 335 341 341 341 341 344 347 347 346 347 348 349 343 343
327 323 324 328 328 328 325 327 328 333 342 343 343 343 343 344 345 344 346 349 349 349 347 344 345 347 348 346 344 344 344 343 339 339 336 334 340 341 342 343 344 347 350 348 348 346 345 349 347
328 329 324 323 317 325 328 323 324 328 337 341 342 342 343 343 344 342 343 346 348 349 349 349 347 347 348 348 344 344 344 344 341 337 337 333 337 340 341 344 344 345 349 350 349 348 346 344 347
328 323 328 321 325 323 321 322 328 326 331 336 340 342 342 342 343 343 341 343 347 348 349 349 349 349 349 348 345 344 345 345 343 337 336 333 333 337 340 341 345 345 347 349 349 347 346 346 342
323 328 325 326 322 330 321 323 319 323 326 334 338 341 342 342 343 343 342 342 346 346 347 348 349 349 349 347 345 345 345 345 344 341 337 335 333 335 338 341 343 347 348 350 350 349 348 348 347
319 324 320 331 325 317 321 327 322 321 321 324 336 340 341 342 342 342 342 343 345 346 346 347 347 348 347 346 346 346 346 345 344 342 339 337 334 334 335 340 343 346 349 352 353 352 350 350 349

GFSSGP_850_thetae_060.txt.gz
Theta_e
346 345 347 350 358 356 360 359 351 350 348 346 345 345 347 346 348 349 342 341 341 340 337 332 331 330 338 335 341 338 340 336 336 337 339 341 341 341 340 338 334 326 339 340 337 336 327 329 333
345 348 349 352 360 361 358 354 353 348 346 347 348 348 348 347 344 343 342 340 340 338 333 331 331 330 334 334 333 338 338 340 340 339 339 341 340 338 340 342 328 332 334 338 328 336 336 338 338
346 350 351 356 354 359 357 353 352 347 346 350 350 348 347 345 343 342 342 340 339 336 333 331 329 332 332 335 336 341 340 337 336 336 339 340 343 340 341 336 331 331 330 328 329 333 340 338 336
348 349 349 358 355 353 353 352 349 348 350 351 348 345 343 343 342 341 341 340 338 336 331 330 330 332 332 336 340 332 336 335 340 344 343 342 341 342 337 336 333 339 340 336 330 336 338 338 339
348 351 354 356 354 350 350 350 348 350 351 347 346 344 343 342 342 341 339 339 339 339 333 329 331 331 332 334 334 332 333 341 341 337 335 338 342 341 339 337 338 340 339 339 334 336 339 339 340
352 345 345 353 352 350 349 353 351 352 347 344 343 343 343 342 341 340 339 339 339 339 331 329 331 331 334 341 337 332 332 342 342 341 341 337 337 339 339 339 339 337 337 337 339 334 339 340 341
346 342 347 351 353 349 351 353 351 351 346 345 343 343 342 343 340 339 338 339 340 336 330 329 330 331 333 340 336 333 333 339 341 341 341 339 340 339 338 338 337 338 337 336 336 338 334 338 341
353 343 349 348 350 351 348 351 351 351 349 344 343 342 344 343 341 339 338 339 343 333 330 328 330 330 331 338 333 333 335 336 335 336 338 341 340 339 339 339 339 338 338 337 338 337 336 338 340
353 351 352 352 350 350 348 350 352 350 345 348 344 342 343 342 342 339 340 342 342 331 328 328 330 330 330 331 332 334 336 336 335 335 336 338 341 340 338 338 339 339 339 339 339 338 338 339 338
351 351 351 348 345 346 350 349 351 351 348 346 344 342 342 342 342 342 342 343 343 330 328 329 330 330 330 331 333 335 336 335 337 337 336 337 339 340 340 340 340 341 340 340 342 341 341 341 341
350 352 351 349 344 346 350 351 351 350 350 345 344 343 343 342 343 345 340 341 339 329 328 328 329 329 332 331 334 336 335 338 342 341 340 340 340 339 339 340 342 343 342 342 342 342 340 341 341
348 348 350 350 349 346 346 349 351 350 351 350 346 342 342 344 346 346 338 336 335 332 328 327 328 329 332 332 335 335 336 338 341 343 343 344 344 340 339 341 343 346 346 342 343 340 341 343 341
343 343 344 348 347 343 344 348 352 351 351 348 344 343 344 346 347 345 336 333 332 334 329 327 328 329 330 331 335 335 338 336 338 341 340 340 342 343 344 343 344 343 342 343 342 342 342 342 342
334 338 338 338 339 339 343 346 351 350 350 345 344 343 344 346 346 342 339 335 333 333 330 328 327 328 329 331 334 337 342 335 342 345 345 342 344 341 343 344 345 344 342 342 341 339 344 339 339
328 325 326 329 335 341 344 352 353 348 348 343 344 344 344 346 345 341 339 336 333 332 331 328 328 327 328 330 334 339 342 337 343 343 345 346 346 344 344 344 344 344 343 342 341 343 343 342 339
323 324 327 328 331 338 343 345 351 347 345 343 344 344 344 346 345 344 342 339 336 333 332 329 328 328 327 329 337 342 345 346 346 345 346 344 345 346 344 345 344 344 343 341 340 342 341 342 339
316 326 327 330 331 342 341 344 350 345 345 343 343 343 344 345 346 345 343 342 340 336 333 331 329 328 329 337 340 343 344 345 345 346 345 345 344 342 345 347 346 344 343 342 341 341 342 340 338
322 321 327 332 333 340 344 345 350 344 343 344 342 342 344 345 346 345 345 343 344 340 335 333 332 329 329 341 342 343 345 344 345 345 346 345 344 343 342 344 346 345 344 342 341 340 343 340 338
321 324 327 329 333 343 344 344 352 348 344 343 342 342 342 344 345 346 344 344 344 343 339 337 339 329 331 340 342 343 344 344 343 344 344 343 343 344 343 343 346 346 345 344 340 341 342 341 338
319 321 322 325 330 340 342 344 351 349 348 345 342 342 343 344 345 346 347 345 345 345 343 341 342 332 331 336 341 342 341 344 344 342 343 343 344 344 344 345 343 346 345 344 344 340 343 338 339
316 320 320 325 328 341 342 345 352 351 350 348 347 344 343 344 346 347 346 346 345 345 345 343 343 331 334 337 342 344 342 344 345 344 344 343 343 343 344 345 343 344 344 345 345 340 342 340 337
313 317 321 321 325 332 338 341 346 351 352 349 349 348 347 345 346 347 346 346 346 344 344 342 342 341 341 341 341 342 342 342 344 344 344 343 342 343 343 344 345 344 345 346 344 340 339 341 336
317 318 319 321 323 328 332 343 341 348 353 352 349 349 348 348 347 346 346 346 346 346 347 346 344 344 344 344 343 342 342 343 343 342 344 344 343 341 342 343 343 343 346 345 344 347 341 342 335
319 323 320 321 321 326 325 336 329 346 348 348 349 349 349 349 348 347 346 346 346 346 347 347 345 344 344 344 346 346 342 343 344 343 342 343 342 339 342 342 342 343 346 345 345 346 340 343 338
320 320 322 324 324 327 323 327 329 331 342 343 345 347 347 350 350 348 347 346 346 346 347 347 345 343 345 345 345 346 344 343 344 343 340 335 338 336 339 342 341 343 344 346 345 346 347 342 341
321 320 322 326 325 324 321 327 328 328 335 340 342 344 345 347 349 349 349 348 346 346 346 346 345 343 343 344 344 345 344 343 343 343 342 336 331 331 335 339 340 344 346 348 347 345 346 348 344
323 324 321 321 319 322 325 323 324 325 328 333 339 341 342 344 346 347 348 349 349 348 347 346 345 344 343 343 344 345 344 343 343 343 343 340 335 331 335 340 341 344 345 346 349 347 344 344 344
318 322 327 320 327 324 323 322 331 326 326 329 336 341 341 342 343 344 347 347 348 348 348 348 346 344 344 344 345 345 345 344 343 343 343 342 338 334 334 340 342 343 343 344 346 349 344 345 344
319 321 323 325 323 327 322 323 319 324 327 328 331 339 340 341 342 343 344 344 345 346 347 348 348 348 344 346 346 346 346 345 344 343 344 343 338 335 333 337 340 342 344 345 345 348 348 347 346
317 318 321 329 327 322 321 328 322 322 323 326 329 333 336 340 342 342 343 342 343 344 347 347 347 348 348 348 347 346 347 346 345 344 344 344 341 337 333 334 337 339 343 346 347 348 350 349 349

GFSSGP_850_thetae_063.txt.gz
Theta_e
344 345 347 348 360 356 362 360 353 352 350 347 345 346 346 347 349 353 343 345 344 343 343 336 331 333 333 332 332 338 341 338 339 338 338 336 340 340 340 336 329 336 338 339 331 324 327 329 331
346 347 349 351 360 362 361 355 354 350 347 346 348 348 348 347 343 343 343 344 343 342 343 332 330 338 334 338 337 338 337 339 342 341 339 340 340 341 341 333 333 337 339 330 338 332 335 333 333
346 350 351 355 358 361 360 354 351 347 347 348 350 348 347 346 343 342 342 342 341 340 341 331 332 337 333 334 341 340 340 341 341 341 342 341 339 341 341 329 331 333 331 331 334 339 330 332 334
349 349 349 359 358 354 354 353 348 348 350 350 349 347 343 343 342 341 341 341 340 333 336 330 332 332 333 340 341 340 335 336 340 339 342 343 342 341 338 336 334 335 335 331 336 337 339 340 339
349 350 355 358 356 352 351 350 349 350 350 349 347 345 344 343 342 341 341 343 342 340 336 332 332 332 336 342 333 339 336 339 339 340 342 341 340 338 335 338 340 340 340 333 339 339 339 340 339
352 347 352 355 353 351 351 351 350 352 350 346 346 345 344 342 342 342 342 344 342 335 339 339 332 332 334 333 332 334 342 341 337 334 336 338 339 339 338 339 338 337 338 338 334 339 340 341 341
351 347 351 352 353 351 351 353 351 351 349 348 345 345 344 343 344 344 344 343 342 339 333 337 336 333 340 343 333 334 342 341 340 341 338 338 339 339 340 337 337 337 336 336 337 335 338 341 340
352 347 354 351 352 353 352 352 352 351 350 346 344 346 346 344 344 344 343 343 342 340 329 331 332 336 342 341 334 334 340 342 340 340 340 343 338 340 341 339 338 338 337 337 338 335 337 339 339
351 355 357 354 351 352 350 352 354 349 345 346 344 344 344 344 345 344 344 344 344 341 331 330 331 331 340 343 333 335 336 336 336 338 340 339 337 337 338 339 339 339 339 339 337 337 339 338 339
352 355 352 349 347 347 349 351 353 349 347 347 345 344 345 345 346 345 344 344 344 340 331 330 332 330 332 334 333 335 336 338 335 336 338 340 339 338 338 339 340 339 340 340 340 340 341 340 343
350 353 350 348 345 348 351 350 352 350 351 348 346 345 345 346 345 345 345 345 343 332 329 329 330 330 331 333 333 336 336 337 337 336 337 338 338 339 339 340 341 341 341 341 342 340 341 340 340
350 348 351 351 350 347 348 352 352 351 351 349 347 345 345 346 344 344 344 345 343 330 327 329 330 330 331 333 334 336 336 341 340 341 341 341 340 338 339 341 343 343 342 342 342 340 341 342 341
347 345 345 347 347 345 345 350 353 352 351 348 346 345 345 345 343 343 343 344 341 330 327 329 329 330 332 333 335 335 337 339 343 341 344 344 344 342 342 344 344 343 342 342 342 342 341 342 340
334 336 342 341 341 343 343 344 351 352 348 347 346 345 345 345 343 343 343 343 340 328 327 327 328 329 332 333 334 336 337 336 340 340 340 340 341 342 344 342 344 343 341 341 341 340 343 341 341
330 333 331 330 332 340 342 348 351 350 348 347 346 345 346 345 343 343 343 343 333 327 327 326 328 329 330 332 335 337 337 341 344 344 342 343 344 343 343 344 344 344 343 341 342 343 341 340 339
323 324 325 329 331 338 343 349 351 349 348 347 346 345 346 345 344 344 344 343 333 329 327 327 328 328 329 331 335 340 337 338 342 344 345 345 346 345 344 345 344 343 342 341 340 341 342 341 339
324 322 323 326 333 341 344 346 350 348 348 348 346 345 345 346 346 345 345 344 336 330 329 328 327 327 328 330 334 340 342 344 345 344 345 345 345 345 345 345 345 343 342 341 342 340 341 341 338
323 323 327 325 333 340 345 345 351 348 348 348 347 345 345 345 346 346 345 346 343 333 332 329 328 328 327 328 335 342 345 345 345 345 345 344 345 343 345 346 345 346 343 342 340 340 341 339 339
323 326 324 330 330 339 343 344 350 348 348 347 347 346 345 345 345 345 346 347 346 336 334 331 329 328 328 331 334 340 343 344 345 344 345 344 343 344 341 343 346 346 343 342 340 341 341 339 338
320 324 326 328 331 340 342 344 344 350 349 348 346 346 345 345 346 346 346 346 346 342 336 334 331 329 328 336 338 341 342 343 344 344 345 344 343 344 344 345 343 346 344 343 342 343 342 339 339
320 320 323 327 327 335 340 342 347 351 349 347 347 346 344 345 346 346 346 346 347 345 342 338 333 332 330 329 340 341 342 343 344 343 343 343 343 343 344 345 345 344 343 344 343 340 342 339 338
319 320 321 323 326 332 338 344 346 350 353 351 348 346 345 344 345 346 346 346 346 346 343 342 336 336 338 330 332 339 340 340 342 344 344 344 343 342 343 344 346 344 344 344 343 341 340 341 337
319 318 319 321 324 327 330 340 340 346 354 354 351 349 346 345 345 345 346 346 346 347 344 344 342 339 342 333 333 337 342 342 340 341 344 344 344 343 342 342 345 344 345 344 344 345 341 340 338
319 321 320 320 320 322 329 334 339 345 349 352 351 350 349 348 346 346 347 347 347 347 346 344 344 343 343 335 332 338 340 342 342 342 342 343 344 344 343 342 342 343 343 345 345 344 344 341 341
319 320 322 324 323 321 323 329 331 336 344 344 349 350 350 350 349 347 347 347 347 346 347 344 343 343 342 341 339 341 341 342 342 343 343 343 342 342 343 340 341 341 342 345 345 346 344 344 343
323 323 323 325 325 323 322 328 331 331 330 341 344 347 350 350 350 349 348 347 347 346 344 344 343 344 345 344 343 343 344 345 345 343 343 343 343 339 337 339 338 341 341 344 347 345 346 345 347
324 324 323 324 325 327 324 325 327 330 332 332 335 343 347 349 350 350 349 349 347 346 345 344 344 343 346 346 343 343 342 344 345 343 342 343 344 342 334 333 335 338 340 346 348 346 344 344 343
322 324 325 325 326 327 327 327 326 329 332 333 334 336 341 346 348 350 351 349 348 347 343 343 344 343 344 345 344 343 341 342 343 342 342 343 343 343 340 332 335 339 341 344 344 346 348 347 345
322 323 326 327 327 327 327 328 329 329 332 333 334 333 338 341 344 346 349 350 349 348 347 344 345 345 344 343 342 342 342 343 343 344 343 343 343 344 340 338 334 339 342 343 344 344 346 348 347
316 321 324 328 330 331 329 329 328 330 330 332 332 333 335 338 341 343 345 349 350 349 348 348 347 346 346 345 344 343 343 344 344 345 344 344 343 344 343 338 333 337 340 343 344 345 346 347 347

GFSSGP_850_thetae_069.txt.gz
Theta_e
345 348 352 353 360 361 364 360 354 356 354 350 350 350 352 351 354 360 350 350 350 350 346 345 343 343 343 343 342 340 337 337 333 332 332 332 334 339 335 329 338 339 332 325 334 334 336 332 331
351 353 353 353 365 367 364 354 355 353 351 350 350 350 350 353 351 350 350 350 349 349 347 346 336 332 332 334 333 333 335 335 335 333 335 340 340 340 329 340 339 331 339 330 329 331 335 333 332
352 353 353 360 360 365 364 353 354 351 350 351 351 349 353 351 350 351 349 350 349 346 344 340 335 333 333 339 338 338 341 339 341 341 341 341 342 334 339 339 340 330 336 333 339 338 332 331 331
352 354 355 363 363 358 357 353 352 351 350 351 350 351 350 351 350 350 350 350 347 345 346 340 335 338 338 337 338 340 341 341 340 341 341 342 339 330 330 330 339 335 337 339 335 335 336 334 334
353 355 361 364 361 356 354 351 352 352 352 351 350 352 350 350 350 350 348 348 346 343 346 342 335 337 340 341 342 339 340 341 342 342 341 341 339 339 339 340 339 333 338 338 339 339 339 338 335
353 353 365 362 359 355 353 352 353 352 352 352 353 351 350 349 350 349 347 346 342 343 346 344 334 342 340 338 335 340 342 342 342 342 342 340 338 339 337 337 338 337 337 339 339 339 338 337 336
352 358 357 357 356 355 354 353 353 353 353 352 352 355 350 348 349 348 347 345 342 343 346 347 346 344 335 339 342 340 340 339 340 342 341 342 340 338 337 336 336 336 335 339 341 340 339 338 335
349 354 354 354 356 358 355 353 353 352 354 352 352 354 352 349 349 347 346 343 341 345 345 347 348 346 345 339 343 342 339 341 341 345 343 339 338 339 343 342 336 336 336 335 340 340 337 338 337
346 358 358 354 355 357 353 356 356 354 353 352 351 353 351 349 349 347 345 343 342 344 345 345 347 348 347 347 344 343 342 341 340 339 346 346 347 349 347 340 337 336 336 335 338 339 337 338 337
347 358 355 352 350 355 354 354 356 354 353 352 352 351 350 349 348 347 344 343 342 344 344 344 346 352 346 345 344 350 346 348 350 347 348 347 348 348 346 339 339 338 338 338 338 340 344 345 345
344 351 351 351 350 351 353 353 353 353 353 352 352 352 349 348 348 347 345 344 341 343 343 343 349 347 348 345 348 347 349 348 350 349 348 346 346 346 348 343 346 341 343 344 340 345 344 345 346
346 344 346 350 350 351 352 354 353 352 352 351 352 351 349 348 348 347 345 344 342 342 343 344 346 349 348 345 347 347 347 347 346 348 350 347 350 349 348 348 348 348 348 346 347 348 347 345 347
343 344 342 345 350 350 350 352 350 349 351 351 351 351 350 349 348 346 345 344 343 342 343 345 346 347 350 348 348 347 346 347 348 348 350 349 347 349 349 349 349 349 347 346 348 346 345 343 342
335 340 341 343 350 348 349 351 351 351 352 353 351 351 350 349 348 347 346 345 343 342 342 345 346 347 349 349 349 348 347 349 348 349 349 350 350 350 349 350 349 347 348 348 349 346 343 347 342
332 334 336 339 348 349 348 351 351 353 352 353 352 351 350 349 348 347 346 346 343 341 343 345 346 347 349 351 348 348 348 347 350 349 346 351 351 348 350 350 349 348 350 345 344 340 336 347 342
329 332 336 336 343 345 347 353 349 354 352 353 352 350 350 349 348 347 346 346 343 340 342 345 344 346 348 350 348 347 346 347 348 348 350 351 351 350 351 347 348 347 348 347 348 349 337 346 340
326 329 333 335 339 341 344 351 344 354 353 353 353 351 350 349 348 347 346 346 344 340 342 344 344 345 347 350 348 347 347 349 349 349 350 351 351 348 354 350 350 345 347 347 346 347 343 344 344
326 326 329 332 335 336 341 349 347 352 352 353 353 351 350 349 349 347 346 346 344 342 342 343 344 344 347 349 349 347 348 349 349 350 350 353 353 351 353 351 347 349 347 347 348 350 347 339 341
327 327 326 330 333 337 338 348 355 351 351 353 353 352 349 350 349 348 346 346 344 343 342 343 343 344 345 347 347 347 347 347 349 348 352 351 352 350 346 350 347 351 350 351 348 344 339 341 341
326 327 328 328 331 333 339 344 351 352 351 352 352 353 351 350 350 348 347 346 345 344 344 344 344 344 345 345 344 346 346 347 348 347 351 351 351 352 351 352 350 349 351 350 349 350 344 342 339
326 327 327 328 329 332 333 344 348 351 351 350 352 353 352 349 351 349 348 347 346 345 344 346 345 345 345 343 343 345 347 349 348 350 350 351 352 352 355 348 351 348 348 349 348 345 350 343 341
327 326 327 326 328 332 333 338 347 348 353 351 350 352 352 351 349 350 349 349 347 346 345 346 346 346 345 341 342 345 347 347 348 348 347 350 352 352 353 353 353 347 351 351 351 349 348 346 341
326 326 326 325 326 329 333 336 341 349 351 353 350 350 351 352 349 349 350 350 349 347 346 346 347 345 343 339 342 344 346 346 347 347 347 348 350 352 351 353 353 345 349 349 353 352 349 344 346
326 325 326 326 326 326 327 332 337 344 350 349 349 349 350 351 351 349 349 350 350 349 348 347 347 346 339 336 335 343 345 346 345 346 350 349 350 351 351 351 353 354 353 350 350 352 342 351 344
326 327 328 328 328 327 327 326 333 337 341 346 349 348 349 350 351 350 349 350 351 350 350 349 347 348 340 338 332 339 344 342 347 348 349 348 347 347 349 348 353 352 344 355 353 349 352 348 349
327 327 329 332 330 328 327 327 327 332 336 339 344 347 348 349 350 351 350 350 350 351 350 350 350 349 345 335 335 331 333 344 348 350 347 347 345 346 348 348 352 353 354 352 352 351 352 351 347
328 328 327 329 331 331 329 328 328 329 331 336 341 345 348 348 348 351 351 351 350 351 351 351 351 352 350 342 336 333 331 333 344 347 346 350 347 347 348 351 354 353 353 353 353 352 351 353 352
326 328 329 328 331 334 332 331 329 329 328 333 339 343 345 348 348 349 349 350 351 351 352 352 352 354 353 351 344 340 332 332 337 345 350 350 350 348 350 351 351 353 352 352 352 352 350 353 353
324 327 329 329 329 331 332 332 332 331 329 330 334 339 342 345 347 348 349 349 351 351 352 352 353 354 355 354 353 347 342 341 340 340 346 351 350 351 348 352 352 350 351 351 352 350 352 355 350
320 324 326 331 331 329 331 332 333 332 331 330 331 332 335 338 344 347 348 350 351 352 352 352 353 354 356 356 354 350 346 344 345 332 347 351 353 349 351 345 349 346 347 351 353 353 351 354 354

GFSSGP_850_thetae_072.txt.gz
Theta_e
345 346 351 351 361 360 363 361 355 354 353 351 351 352 353 353 354 360 351 351 350 349 343 342 342 342 343 342 341 341 341 340 336 337 334 332 338 336 330 338 339 334 327 336 332 338 336 330 337
349 351 353 354 361 356 362 356 356 354 351 351 351 352 352 354 351 351 350 350 349 349 346 343 343 343 343 341 338 334 333 332 332 332 335 339 339 330 340 339 331 341 335 333 337 333 333 335 330
352 353 355 359 363 361 363 355 353 352 351 351 353 354 352 351 351 351 350 348 348 348 347 341 340 340 336 340 335 342 339 339 339 341 342 342 336 337 338 337 331 336 334 340 338 335 334 330 335
353 353 355 364 362 357 359 354 351 352 351 350 351 353 351 352 350 351 350 348 346 348 343 333 335 336 340 338 341 340 340 340 341 341 341 341 330 330 330 338 335 339 336 332 333 334 333 331 329
353 354 362 364 356 355 355 352 351 353 350 350 351 353 351 351 351 350 348 348 345 349 338 334 339 341 341 338 339 340 341 341 340 340 341 341 339 339 339 338 333 338 338 339 339 336 335 334 332
353 355 364 363 355 356 353 352 352 352 352 352 351 351 350 350 350 348 348 346 346 347 347 338 340 340 341 340 337 340 341 341 341 341 341 338 338 336 335 336 335 338 338 339 338 339 335 333 330
351 358 361 360 360 359 355 353 354 353 352 352 351 353 351 350 350 350 348 343 344 347 346 338 344 340 338 335 341 341 341 341 340 340 339 339 336 336 336 336 335 336 338 340 339 337 335 331 331
348 351 358 357 359 360 354 354 353 353 352 353 353 352 351 349 349 348 346 343 343 348 346 347 347 336 339 341 340 340 338 338 339 341 341 335 341 344 343 337 335 335 336 339 337 337 336 333 332
346 349 359 357 357 358 349 354 355 354 353 352 354 351 350 349 348 347 344 342 346 345 347 348 347 342 346 343 341 339 340 339 339 339 343 346 349 347 339 338 336 336 333 338 339 337 338 335 341
347 351 359 352 354 349 346 351 357 353 352 352 354 352 351 349 347 347 343 343 346 344 346 345 347 347 346 349 341 339 342 342 345 348 347 348 347 348 340 338 336 335 336 338 338 338 339 343 342
346 348 350 350 352 349 356 352 347 353 353 351 354 352 350 349 347 346 343 342 345 343 344 347 345 347 347 347 345 346 349 348 345 347 348 349 350 348 346 341 340 341 340 342 341 342 337 343 341
346 345 344 347 349 352 352 355 355 353 352 352 353 351 350 349 347 345 344 342 344 343 343 348 347 346 348 342 348 346 348 350 344 346 346 347 348 347 344 348 349 347 347 342 344 346 346 345 339
342 344 344 345 344 351 351 352 353 350 344 352 353 351 350 349 347 346 344 343 342 343 344 348 345 350 346 342 348 347 345 347 347 344 348 347 351 347 348 347 349 339 348 347 345 347 345 346 344
339 340 342 343 342 350 349 353 352 353 350 353 352 350 350 349 348 348 345 343 342 342 345 347 344 350 347 348 349 347 347 349 349 347 348 350 350 348 350 349 347 345 341 346 346 344 341 343 343
332 336 336 339 341 351 348 352 353 353 353 351 352 350 349 350 349 346 346 344 342 342 344 347 346 349 344 352 349 346 348 343 349 349 348 351 350 353 349 348 348 346 346 347 345 340 346 344 343
330 332 335 335 339 344 350 353 354 353 353 352 352 351 351 350 348 347 347 345 343 342 343 347 346 346 348 349 346 347 348 348 348 349 346 348 350 351 349 349 349 348 348 343 349 342 344 342 343
329 328 331 334 337 340 349 353 355 353 350 353 351 352 351 350 349 349 348 346 344 342 343 346 346 346 348 351 342 348 347 349 348 349 351 349 350 346 347 351 345 347 347 346 346 341 342 342 343
329 328 328 332 335 338 344 348 349 342 343 347 352 350 351 350 349 348 348 347 344 342 343 345 345 346 347 351 345 348 348 351 347 349 349 348 350 353 350 351 345 345 349 348 343 346 345 345 342
328 328 327 327 331 334 340 347 347 343 342 347 351 350 350 350 349 349 348 348 345 341 342 344 344 346 344 350 347 348 349 349 350 350 350 349 353 351 350 349 345 347 350 349 347 346 341 345 343
330 329 328 329 329 332 335 341 347 345 345 344 345 350 349 350 349 349 348 348 346 343 342 343 344 348 344 350 348 347 349 346 344 352 351 348 349 352 347 349 351 349 348 345 346 343 342 344 339
329 329 328 328 329 329 332 338 351 346 346 349 346 351 348 350 350 349 348 348 347 344 342 342 344 347 344 345 346 347 347 346 349 348 348 346 351 347 353 345 349 347 348 345 343 343 344 345 341
328 328 327 328 328 328 330 333 351 356 355 351 352 352 350 349 350 350 348 348 347 345 343 343 342 345 344 343 345 346 346 349 345 348 348 349 350 349 345 349 343 344 351 351 345 348 349 344 341
328 328 328 327 328 328 328 331 332 347 351 348 345 351 350 348 351 350 349 348 348 347 346 344 344 344 343 341 345 345 346 348 350 346 350 348 349 351 351 350 344 341 346 349 347 348 348 345 347
327 326 327 328 327 329 327 329 334 340 355 346 342 346 349 349 348 350 350 349 348 348 346 347 346 344 342 336 344 343 345 347 348 345 349 349 352 346 352 353 348 345 350 349 347 346 346 346 345
327 327 327 329 329 328 327 327 332 333 349 349 344 346 350 351 350 349 350 350 349 349 348 347 348 346 342 335 337 343 341 347 346 347 351 350 351 351 346 351 349 346 347 352 346 345 342 345 344
326 327 329 330 329 328 328 330 330 330 331 347 343 347 344 349 351 350 350 351 351 350 349 347 349 347 345 338 331 337 342 344 346 349 347 350 347 349 349 348 344 345 350 348 351 343 345 340 340
327 328 327 328 329 330 330 330 330 331 330 332 345 343 345 345 353 351 351 351 352 351 351 349 348 347 346 343 332 331 329 335 346 348 349 347 348 348 346 348 348 346 351 352 347 347 346 353 346
324 325 327 329 331 333 331 334 332 333 332 331 334 344 347 347 351 352 352 352 352 352 352 351 351 349 348 347 342 331 329 328 332 347 348 351 346 347 354 347 347 346 351 350 352 349 349 349 348
324 326 326 328 330 331 332 332 334 336 333 332 331 334 346 345 349 352 353 352 352 353 353 353 353 353 351 350 349 343 334 330 329 335 343 345 350 350 348 351 349 349 346 351 350 346 352 352 348
323 324 324 331 332 332 332 332 334 336 333 331 330 330 338 344 347 347 349 352 352 353 353 354 354 355 355 353 352 350 346 338 331 330 335 343 343 351 347 349 352 351 346 347 349 343 351 355 354

GFSSGP_850_thetae_075.txt.gz
Theta_e
344 344 348 348 359 357 356 352 351 353 353 350 350 352 353 352 354 355 345 341 335 338 340 339 339 340 341 340 339 338 339 337 337 338 332 336 336 331 336 335 334 327 335 331 338 338 333 332 333
346 351 351 353 359 356 356 356 358 353 351 351 352 352 352 352 351 349 350 345 340 341 342 340 341 342 341 340 340 339 336 332 332 332 337 338 330 338 338 331 341 332 332 338 332 331 334 330 335
350 352 353 354 357 357 361 356 355 352 353 353 353 351 352 351 351 351 350 347 343 342 341 342 342 342 340 335 332 333 334 336 340 341 340 332 336 337 332 332 338 339 339 337 335 333 331 332 336
352 353 353 355 355 354 357 355 352 352 352 352 351 351 351 351 350 350 348 345 344 342 342 341 337 335 339 338 342 343 339 340 340 340 340 330 331 330 334 334 338 331 331 331 330 328 329 333 340
354 353 358 350 352 351 349 351 352 351 352 352 351 352 351 350 349 346 346 347 343 341 334 333 336 339 339 340 340 339 339 339 339 341 334 334 338 338 337 341 338 338 338 336 332 332 330 332 342
353 354 360 357 354 353 352 350 350 352 352 352 352 351 351 350 348 347 347 347 343 339 331 339 340 340 341 339 339 340 340 340 339 340 339 338 336 336 337 335 338 338 338 338 337 333 331 328 342
352 353 359 358 356 357 357 354 351 352 352 350 351 351 351 348 347 348 346 345 343 330 333 337 341 340 342 336 338 338 339 340 340 338 337 335 336 336 336 336 338 339 339 336 335 332 330 330 340
353 348 353 356 358 359 354 351 353 354 352 351 350 351 350 349 348 348 346 345 343 332 332 340 341 337 334 339 338 338 340 339 338 338 335 341 342 340 336 335 336 338 338 337 335 333 332 339 344
350 351 353 357 358 352 344 350 352 354 351 351 352 350 347 347 348 345 345 346 346 341 333 343 337 340 338 337 336 337 337 338 338 336 344 347 345 339 336 336 335 335 339 336 337 334 336 340 342
346 349 352 352 352 353 347 347 349 355 353 351 350 351 347 349 349 344 347 348 346 341 337 341 334 339 340 338 337 338 338 342 343 344 347 346 346 344 337 335 334 335 338 336 337 336 340 342 342
342 347 348 349 350 351 352 342 345 352 352 352 350 350 349 350 347 344 346 346 343 343 345 343 342 339 339 338 339 344 339 343 343 345 347 348 347 342 338 340 339 338 339 341 341 333 335 337 340
341 343 345 346 350 351 350 354 355 350 352 352 350 348 349 348 346 345 344 344 342 346 346 345 344 345 344 340 344 345 345 344 342 346 345 346 344 344 344 345 343 342 332 336 339 340 341 342 343
339 340 342 344 350 351 355 355 347 350 352 352 351 348 349 347 345 344 346 345 341 345 346 346 345 348 345 348 347 346 348 347 342 343 346 347 344 345 346 346 345 344 339 342 335 341 341 342 341
337 339 339 341 342 348 354 354 346 348 350 351 351 349 348 347 344 343 344 343 343 344 347 345 346 348 344 349 350 347 348 348 347 345 345 345 347 348 347 343 342 343 342 343 343 341 343 341 342
335 331 330 334 336 341 351 355 355 352 349 352 351 350 348 347 344 343 342 342 341 346 347 345 343 347 345 347 349 349 347 348 349 347 345 345 347 348 350 344 345 346 341 342 342 343 342 342 343
328 326 328 330 332 336 348 360 355 352 353 351 351 350 348 347 345 346 342 342 341 348 347 346 344 343 344 348 348 348 347 344 345 348 347 344 348 346 347 345 346 344 344 343 342 341 342 342 344
329 324 325 328 329 334 343 359 352 346 346 350 351 350 350 348 347 346 343 342 339 345 346 346 345 342 341 347 345 347 350 348 348 348 344 344 347 344 346 348 345 344 345 345 344 339 341 341 342
330 325 324 324 327 330 336 358 353 348 348 340 350 349 349 349 349 346 344 343 340 344 345 345 345 340 341 338 345 349 349 349 348 348 349 346 344 345 347 342 346 346 346 345 343 342 344 342 342
328 329 326 325 325 327 335 355 356 352 350 351 343 345 350 349 349 347 345 344 342 342 343 344 345 345 343 344 344 347 349 350 348 348 349 348 349 345 349 343 345 347 348 344 343 344 342 340 342
327 327 328 327 327 323 328 351 350 343 343 345 345 345 350 349 350 349 346 344 343 342 343 343 344 346 344 343 343 347 349 348 349 350 350 344 348 346 346 348 345 348 347 345 343 344 343 343 340
326 326 327 327 327 325 325 349 347 344 344 344 348 350 348 350 349 349 348 345 344 342 342 342 342 347 345 341 341 347 348 347 349 351 350 349 341 349 346 345 349 347 346 339 342 340 343 340 339
324 326 328 327 325 323 325 325 349 345 346 347 348 347 350 347 349 349 348 346 344 343 341 341 342 345 346 344 339 344 347 346 349 347 348 349 342 345 345 343 345 344 347 343 341 344 345 343 341
324 326 325 325 324 323 325 323 328 347 349 346 346 345 345 348 348 348 348 348 345 344 342 341 341 343 344 343 337 346 346 345 348 348 349 347 345 345 349 344 342 345 349 347 344 346 348 345 347
326 325 324 323 322 322 323 324 325 353 349 347 346 336 338 344 345 349 349 347 347 345 343 342 342 340 342 342 337 342 344 346 349 345 349 348 349 346 350 350 347 341 344 344 347 344 347 344 344
323 322 322 323 322 324 323 323 324 327 349 350 347 339 339 346 348 350 349 348 348 347 345 343 343 342 339 339 337 337 339 347 348 349 344 348 348 348 344 350 349 342 344 343 344 342 345 344 344
325 321 322 325 324 324 323 324 325 325 341 346 346 339 340 348 349 350 349 348 348 348 346 345 344 344 343 335 336 333 333 341 346 348 346 349 347 347 347 343 341 337 335 342 343 345 338 342 344
321 323 322 322 322 324 325 325 326 326 325 344 342 341 342 347 349 350 350 349 348 348 348 346 345 345 344 341 332 336 330 339 344 348 350 351 350 345 348 349 348 346 342 340 337 341 341 341 337
319 322 322 321 324 326 325 326 327 328 325 332 343 342 347 349 349 349 350 350 349 348 348 347 347 346 346 344 337 331 332 328 340 345 347 349 350 349 350 350 349 348 347 336 343 344 342 347 348
317 320 320 320 322 325 325 325 325 328 330 329 331 342 345 346 346 350 351 351 351 349 349 349 347 347 347 346 344 334 331 332 332 343 345 347 346 348 347 350 349 348 347 340 338 341 347 346 346
316 316 319 320 322 324 326 328 328 327 331 332 328 344 345 344 342 342 344 346 352 351 351 350 349 348 347 347 347 345 333 329 329 332 345 342 346 344 346 351 351 349 349 345 339 340 342 352 352

GFSSGP_850_thetae_078.txt.gz
Theta_e
343 338 341 349 355 357 356 353 350 354 351 349 347 348 349 350 352 352 343 337 333 337 336 337 338 339 339 338 337 337 339 338 337 332 337 336 336 336 335 331 336 334 328 337 332 333 334 336 338
344 347 350 352 358 356 356 352 353 352 351 350 352 352 352 352 349 345 340 334 337 337 337 338 339 340 340 339 338 339 335 332 332 337 339 332 337 336 337 337 326 339 336 338 332 332 332 333 340
348 351 351 354 352 355 357 355 355 351 352 352 351 351 351 350 345 342 338 335 338 338 339 339 340 340 339 340 338 334 332 332 336 339 331 336 340 333 336 341 339 334 338 336 332 330 334 339 343
351 353 351 350 356 352 354 354 353 353 351 351 350 350 350 349 347 343 337 335 339 340 340 341 341 339 337 332 333 337 338 339 340 339 331 341 334 332 338 337 332 337 333 332 328 335 336 339 343
352 352 351 352 351 350 350 349 350 353 352 351 350 351 350 350 350 344 344 340 340 341 341 341 336 335 335 342 342 339 339 339 340 335 331 334 337 340 341 337 338 336 333 331 330 332 336 343 344
353 352 354 358 352 352 350 348 353 352 352 351 351 350 349 350 348 348 344 342 341 340 339 333 338 339 342 340 341 341 339 339 339 338 338 336 336 336 338 339 338 338 336 334 333 330 341 343 345
352 352 357 355 352 358 349 346 353 353 352 351 350 351 348 347 346 343 341 339 338 333 331 336 340 342 339 340 343 339 339 339 338 337 335 336 337 337 335 339 338 337 337 335 331 330 336 343 344
352 350 353 355 356 357 348 353 352 352 351 350 350 350 348 346 347 345 343 340 334 330 336 338 338 343 342 343 339 338 339 338 336 335 339 341 337 335 334 337 338 337 334 332 330 330 336 341 342
351 355 354 354 357 353 350 351 350 352 352 350 351 349 346 347 347 347 347 340 332 333 334 337 338 334 338 338 339 338 338 338 335 342 341 339 338 335 334 335 337 336 336 334 331 334 338 342 343
349 352 352 350 350 352 346 349 352 353 351 350 350 349 347 347 347 347 346 338 333 332 337 339 334 336 338 335 337 338 336 334 338 346 344 341 338 335 335 334 337 337 336 331 335 336 341 341 341
340 346 345 350 350 351 346 347 351 352 353 351 349 349 348 348 347 346 344 339 334 332 336 332 335 335 335 337 337 339 341 342 343 346 345 341 339 338 337 336 337 338 335 335 339 340 341 341 341
337 338 341 343 352 350 344 347 349 351 351 351 345 347 348 346 346 345 344 344 339 334 334 331 335 336 337 340 337 338 338 341 345 347 343 344 343 342 344 342 337 339 341 337 336 335 336 339 339
335 336 337 340 346 350 349 348 349 349 352 351 348 348 348 348 345 344 343 343 340 341 338 338 337 339 339 343 345 344 342 342 345 345 345 344 345 344 343 343 342 342 335 337 337 339 340 340 343
335 335 336 336 351 352 354 351 343 346 350 350 349 348 349 347 344 345 344 343 342 345 343 342 341 342 343 346 345 347 343 342 344 344 343 345 346 345 344 342 342 341 341 337 340 339 342 341 342
335 332 327 328 349 355 352 349 346 349 351 350 348 348 349 346 345 344 344 342 343 345 345 344 346 346 347 348 348 346 345 346 345 346 344 347 346 344 343 345 344 342 342 341 340 341 340 343 341
330 324 325 325 329 353 350 356 351 351 349 351 349 348 348 345 344 344 345 341 344 345 346 345 346 347 348 348 348 346 346 347 347 347 344 343 345 346 342 344 343 340 340 338 342 342 342 341 342
324 329 328 324 325 343 348 356 351 352 352 351 349 349 347 347 345 344 344 342 344 345 346 344 347 347 345 347 349 348 347 345 346 347 346 343 345 346 343 345 342 343 344 341 341 343 341 341 343
329 329 324 323 324 326 354 356 351 350 352 352 350 349 348 347 345 345 343 343 342 345 346 345 345 342 342 348 348 348 347 347 348 345 347 344 343 343 345 345 344 344 345 343 341 341 341 342 342
326 326 326 326 326 323 335 354 349 345 349 350 350 349 349 348 347 346 344 341 340 346 346 345 345 343 342 347 347 347 347 348 347 348 349 344 344 347 346 343 345 347 345 345 341 343 344 343 342
326 326 325 324 326 324 349 356 351 346 342 348 345 348 349 348 349 347 344 340 340 344 346 346 344 340 337 342 345 346 345 348 349 348 349 348 345 348 346 343 343 346 345 341 343 340 342 341 342
326 325 324 324 326 324 350 356 355 349 344 343 343 346 348 348 349 348 345 341 340 341 345 344 343 342 339 335 344 348 347 349 348 349 349 345 344 343 348 344 345 345 342 344 343 341 343 339 340
326 325 325 326 323 322 322 329 352 351 348 348 346 346 347 348 348 348 346 343 342 341 342 343 343 342 338 340 342 346 345 346 348 350 350 347 348 344 346 347 346 346 345 339 342 341 343 339 340
325 325 323 324 321 321 322 320 325 345 345 344 346 349 348 349 349 348 347 346 344 343 341 343 342 341 339 343 338 343 345 345 346 349 349 349 346 343 345 344 344 346 346 339 340 344 344 341 340
324 323 321 318 318 320 320 321 328 347 346 345 345 348 348 350 350 349 348 347 345 343 342 343 342 341 340 342 343 339 343 344 346 348 347 348 345 344 348 347 346 343 347 338 341 344 343 342 346
322 317 319 321 320 320 319 320 320 342 342 344 345 348 347 348 349 349 348 346 345 344 343 343 342 341 341 339 342 339 340 344 346 347 348 349 349 347 344 347 350 341 341 344 341 342 345 345 344
317 317 318 323 322 321 320 322 322 325 337 343 344 346 344 345 347 348 348 348 346 346 345 344 343 342 342 340 338 338 338 343 345 349 348 345 348 346 345 340 344 340 339 345 343 344 342 343 344
316 319 317 319 318 320 321 322 323 323 323 341 343 340 339 338 341 345 348 348 348 347 347 345 345 344 343 343 339 336 333 340 345 349 349 345 347 347 347 346 342 340 337 334 342 342 340 341 343
313 314 318 315 323 323 322 324 323 324 330 333 346 344 339 340 339 343 348 348 347 348 348 347 346 346 345 344 343 338 332 335 344 347 348 346 348 348 344 348 348 347 346 342 337 337 339 340 338
313 312 311 313 316 320 321 321 321 326 327 329 330 332 343 340 340 346 348 349 348 348 348 347 347 346 345 345 344 343 335 330 338 344 347 349 349 351 347 349 349 349 347 346 340 338 341 340 344
314 313 311 313 316 318 319 322 326 326 325 328 330 332 335 344 343 345 349 350 349 348 348 348 347 347 346 346 345 345 343 331 330 339 346 347 349 351 350 349 348 350 349 347 345 333 338 343 344

GFSSGP_850_thetae_081.txt.gz
Theta_e
342 336 335 347 354 358 356 353 350 354 351 347 345 344 346 347 349 350 341 335 335 334 335 336 336 336 335 335 336 337 338 338 334 337 336 334 339 336 332 337 332 330 334 335 336 335 338 339 340
343 338 345 351 358 355 355 351 354 351 349 346 348 350 351 351 348 344 337 333 332 334 336 336 337 337 336 336 336 338 336 335 333 339 335 338 337 340 330 331 338 334 338 335 335 335 338 339 344
343 349 349 354 352 357 357 352 353 352 348 350 351 351 350 349 345 339 336 332 335 336 336 338 339 339 338 337 338 336 336 332 342 338 332 340 337 341 342 332 336 332 333 331 335 335 333 342 344
350 351 345 351 355 353 354 352 352 352 351 351 350 350 350 349 341 340 334 334 336 336 338 339 340 339 338 338 337 332 333 341 340 330 339 338 329 334 337 338 336 338 335 330 330 333 339 343 343
352 351 349 353 353 351 351 350 351 352 352 350 350 350 348 349 343 336 334 336 337 338 339 340 340 338 335 332 334 339 342 340 338 334 340 335 339 340 339 332 332 332 328 330 331 336 341 344 344
352 350 355 357 353 351 351 347 349 352 351 351 350 349 349 349 340 335 336 338 338 339 340 341 338 333 336 342 341 339 340 339 334 334 336 341 339 340 339 338 336 332 332 330 333 340 342 343 342
352 349 357 354 354 355 352 345 353 352 351 351 349 349 349 349 339 336 336 339 340 340 340 335 339 342 341 339 341 341 339 338 338 338 336 335 335 339 338 338 338 336 333 330 335 341 343 343 342
351 351 353 355 357 354 350 353 353 353 353 350 348 349 348 348 344 343 341 341 340 340 333 336 340 339 338 343 341 339 339 338 335 336 338 337 336 336 338 338 336 335 333 331 332 340 344 342 341
351 354 354 354 355 355 353 352 351 352 351 350 350 348 348 347 346 343 342 341 338 333 335 339 339 339 342 340 344 341 338 335 338 338 339 339 338 337 338 337 335 335 333 332 331 336 340 341 342
348 353 353 350 350 349 351 351 349 347 350 351 349 347 347 346 345 341 340 335 330 334 338 337 340 336 339 339 342 337 337 336 340 340 338 337 335 334 335 337 336 336 335 333 332 335 341 342 342
344 349 347 348 351 348 348 350 345 347 351 351 348 346 347 346 346 343 337 332 330 332 336 336 332 337 336 336 338 337 334 342 345 342 340 337 335 334 333 336 335 336 334 335 337 340 340 341 342
336 338 342 342 350 346 348 351 349 348 351 351 348 347 347 347 347 345 343 335 331 331 336 334 334 335 336 336 335 336 340 343 345 344 339 338 338 338 336 336 335 336 336 338 339 338 340 339 339
333 335 336 337 348 345 348 349 349 349 350 351 349 347 347 347 347 345 343 333 331 332 334 333 334 335 336 336 342 342 342 343 344 343 343 342 341 342 342 341 339 339 338 337 337 335 340 342 338
333 334 335 334 337 346 348 347 345 346 351 351 348 347 347 347 347 345 343 338 336 334 330 334 335 337 341 340 340 342 341 343 343 344 345 344 344 342 344 343 342 338 337 337 340 339 340 342 342
334 333 330 340 350 351 347 349 347 349 351 351 348 348 346 346 346 345 344 341 336 333 336 337 336 340 344 345 345 343 342 344 343 346 344 345 345 343 343 343 341 342 339 337 340 342 341 342 340
328 323 324 334 352 354 348 354 348 350 350 350 349 348 348 346 345 345 344 342 340 340 339 339 341 343 346 347 346 346 344 346 344 346 343 347 345 344 344 344 342 341 342 340 341 340 341 340 340
323 330 329 326 350 354 348 352 351 347 350 350 349 348 348 346 346 345 344 343 341 341 343 343 344 343 344 347 346 346 346 347 346 347 345 344 345 344 341 343 341 342 338 341 341 341 342 342 340
329 329 326 325 331 338 353 352 350 350 351 350 349 348 348 344 345 344 343 343 340 343 344 345 341 345 344 346 347 347 347 346 348 348 346 345 345 344 344 343 342 343 342 340 341 340 341 342 342
326 325 325 324 324 325 342 353 349 349 352 350 348 348 348 346 344 344 343 344 341 344 345 345 343 346 346 345 346 347 347 344 347 346 348 343 343 344 345 343 344 345 344 341 339 341 340 341 341
326 326 325 324 323 322 346 353 349 346 350 350 348 348 348 347 344 344 344 344 342 343 345 345 344 345 344 342 344 345 347 346 347 347 348 345 344 347 346 343 344 345 343 341 340 342 344 341 340
325 324 325 325 323 340 350 353 351 348 345 346 349 348 348 347 346 344 344 344 342 344 345 345 344 344 343 342 345 345 347 347 347 347 347 345 346 346 347 344 344 345 343 341 342 343 342 341 341
326 324 326 325 321 322 326 322 350 350 348 346 343 343 344 348 347 346 342 343 343 343 343 344 345 344 342 337 344 345 346 346 348 347 348 347 344 346 347 344 344 345 342 342 341 341 341 340 339
325 324 323 323 320 319 321 322 326 350 352 348 345 345 344 347 348 347 344 344 342 341 342 343 345 344 342 338 334 344 346 344 345 347 349 348 345 345 344 347 345 344 342 340 342 340 340 338 339
324 323 317 314 316 320 319 319 320 348 351 347 344 344 345 345 347 347 347 345 344 341 341 342 343 343 342 341 334 332 341 345 344 347 349 349 347 342 345 345 343 344 346 343 341 340 341 340 340
316 316 318 321 320 320 316 319 320 332 342 345 344 345 344 345 346 348 347 346 345 342 341 341 343 343 343 341 336 331 340 344 343 346 347 348 348 345 344 348 347 342 347 342 341 342 345 339 342
315 315 317 322 320 320 316 321 321 320 329 341 343 344 343 346 344 347 347 347 346 344 342 342 342 342 343 342 340 333 332 338 342 344 346 347 348 347 345 344 348 347 341 344 341 340 343 343 343
315 314 316 315 315 319 319 320 322 327 329 337 340 342 343 346 347 348 348 347 346 345 345 344 344 342 343 342 342 340 331 333 338 343 346 347 348 348 347 346 342 347 344 342 344 343 340 341 343
313 312 315 312 321 323 320 322 321 327 328 327 329 335 339 344 345 346 347 347 347 347 347 345 345 344 344 343 343 343 338 329 333 342 345 347 348 346 347 347 344 341 344 340 339 344 342 339 339
311 311 310 309 313 318 320 321 322 326 326 326 327 334 340 335 337 344 346 347 348 347 347 347 346 345 344 344 343 344 343 336 327 337 343 345 348 346 347 347 345 347 345 345 343 340 341 340 339
311 312 309 312 314 312 315 319 321 321 324 327 331 339 342 340 339 337 341 343 347 347 347 347 347 346 345 345 344 344 344 343 335 326 337 345 347 348 347 348 346 348 349 349 347 346 340 342 340

GFSSGP_850_thetae_084.txt.gz
Theta_e
341 334 334 344 353 356 356 353 351 353 349 346 343 341 342 342 346 347 341 333 332 336 338 337 336 335 334 335 338 338 335 336 332 340 334 334 329 329 328 328 329 333 336 336 335 336 338 337 335
341 335 339 349 358 355 355 352 355 352 348 345 347 346 349 349 348 342 337 334 336 337 337 336 335 335 335 335 336 338 337 334 336 336 335 337 337 332 340 336 329 332 332 335 335 337 338 341 340
342 344 349 351 352 357 357 354 354 349 345 348 351 350 350 347 345 337 336 335 336 334 335 335 335 335 335 336 337 336 335 332 339 334 337 335 339 337 327 340 336 338 336 333 335 335 338 344 344
349 350 344 351 355 353 352 352 352 351 351 350 350 351 346 347 339 337 335 335 334 335 335 337 337 338 337 336 338 336 335 341 336 334 339 335 339 340 337 335 336 336 336 336 333 334 343 343 343
351 349 350 353 354 352 350 350 348 350 351 350 350 349 345 343 339 334 332 333 334 335 337 339 339 338 338 343 340 333 339 340 334 339 337 332 338 338 337 337 338 335 332 333 335 341 342 342 343
351 348 355 356 354 352 348 347 347 350 351 350 348 348 348 345 338 333 333 335 336 337 338 339 338 338 334 332 337 340 341 339 333 338 338 340 339 339 336 333 335 338 338 333 336 341 343 343 341
352 348 356 353 355 354 349 346 349 352 351 350 348 349 348 347 336 333 336 336 337 338 338 338 337 333 339 341 341 341 340 335 336 337 338 336 338 340 340 338 337 337 336 335 340 342 341 341 340
350 349 354 354 356 352 349 347 352 352 351 349 348 348 348 346 334 335 337 338 338 339 339 336 335 342 341 339 340 340 338 339 339 337 336 335 338 340 340 339 339 339 330 336 341 342 342 340 340
350 353 356 354 353 353 353 353 353 349 350 350 349 347 347 341 335 336 338 340 340 339 334 335 339 339 338 342 339 341 341 336 337 338 337 336 337 338 338 337 338 335 330 332 339 341 340 340 340
347 353 353 349 350 350 351 351 350 348 349 348 348 348 345 339 337 338 340 340 340 336 332 337 338 337 341 341 340 338 336 338 338 337 335 334 335 337 337 338 338 335 335 329 334 339 341 340 340
346 352 348 349 349 348 350 351 347 347 347 350 348 348 345 346 344 341 340 338 335 330 333 334 338 338 338 340 339 336 336 340 340 338 334 334 334 334 336 336 336 334 333 332 332 340 341 342 341
337 340 345 348 350 348 350 347 347 347 351 350 347 348 347 346 343 340 338 334 328 332 334 334 332 336 337 337 337 335 341 344 343 339 337 335 333 333 335 336 336 334 335 336 339 340 340 340 340
334 336 336 338 350 347 349 349 349 348 349 349 346 346 346 343 340 337 333 330 329 331 334 331 334 335 336 336 333 335 339 345 343 342 338 339 341 340 337 336 337 338 338 338 338 338 339 340 339
332 333 333 333 341 347 349 348 347 348 350 349 346 345 344 344 343 341 339 334 330 330 333 331 332 335 336 335 339 340 343 344 344 343 343 343 342 342 342 341 340 338 336 338 337 335 340 341 340
333 333 327 346 343 346 346 348 347 347 351 351 347 346 345 345 346 344 342 331 332 331 331 333 333 335 335 338 339 340 342 343 343 344 344 344 344 342 341 342 342 340 336 338 339 339 339 340 342
325 322 325 345 351 348 346 352 348 350 352 350 347 346 346 346 346 345 343 335 335 333 330 334 334 338 342 342 342 340 342 344 343 345 344 344 344 342 343 343 340 342 338 337 340 341 340 340 338
322 329 328 327 349 350 347 349 347 350 352 349 348 347 346 346 347 347 345 341 335 332 332 335 336 342 343 344 345 344 344 344 344 345 343 346 344 342 342 342 340 341 341 340 340 341 340 339 338
329 327 325 328 349 351 351 350 347 349 351 350 348 347 346 346 346 346 346 343 337 334 334 337 337 340 342 345 346 345 344 346 347 346 347 345 343 343 344 342 343 339 340 340 340 341 341 342 342
326 325 325 324 324 324 327 344 347 349 350 350 349 347 347 347 346 345 345 343 339 339 339 340 341 341 342 344 346 345 345 345 347 347 347 346 346 342 342 344 343 343 340 340 341 340 341 341 341
325 326 325 325 323 322 330 339 347 348 349 349 349 348 347 347 347 346 345 344 342 341 342 343 343 342 343 341 341 345 344 343 345 347 347 343 343 344 345 342 344 343 343 340 340 340 340 340 340
325 324 325 326 323 341 345 336 350 346 346 349 349 348 347 348 346 346 345 344 343 341 343 343 344 342 343 342 342 343 344 346 346 345 348 345 345 346 345 343 343 345 343 340 339 342 342 340 340
327 323 325 325 321 321 324 320 338 347 346 345 346 348 348 347 345 344 344 344 343 342 341 342 344 344 343 344 344 342 342 343 344 345 347 346 344 346 346 346 342 345 343 340 341 341 341 340 341
325 323 323 323 319 319 320 318 320 345 348 346 346 345 348 348 347 343 344 344 343 343 341 342 343 344 343 344 344 343 344 343 343 347 347 348 345 345 345 346 343 343 342 342 342 341 342 340 339
323 318 314 313 314 319 319 318 319 347 348 347 345 346 346 348 348 347 343 344 344 344 343 342 343 344 344 344 342 342 341 343 343 344 346 347 347 345 345 346 345 343 343 339 341 340 341 339 338
316 315 317 319 319 320 314 318 319 320 324 342 344 345 346 347 347 346 347 343 343 344 343 342 342 344 343 344 341 337 337 340 340 341 344 347 348 345 341 346 344 343 344 347 340 340 339 340 339
315 315 316 322 319 319 315 320 327 325 328 333 340 344 344 346 345 343 347 346 345 344 344 343 342 342 344 344 342 340 337 335 332 339 340 344 346 345 344 342 346 347 343 346 342 339 339 343 340
314 313 313 314 313 317 317 320 319 325 327 327 330 339 342 343 344 343 344 347 347 345 346 344 343 342 343 342 343 342 339 334 332 337 339 343 344 346 346 346 345 346 347 344 343 343 340 340 341
311 311 315 313 320 322 318 319 322 324 324 325 328 332 340 337 343 343 345 346 347 347 347 347 346 344 341 342 343 343 341 335 332 333 336 340 344 345 346 348 348 347 344 347 342 345 344 344 342
311 311 309 309 312 318 319 324 316 316 319 323 326 333 336 342 341 341 346 345 345 347 347 347 347 347 343 342 343 343 342 340 335 331 332 337 343 343 345 345 347 348 345 343 344 341 340 341 343
309 310 308 311 315 310 314 321 313 312 315 321 323 327 340 345 341 338 339 346 347 347 346 347 347 347 346 344 343 344 344 342 340 332 329 334 340 342 347 345 346 347 347 347 347 346 346 343 340

GFSSGP_850_thetae_087.txt.gz
Theta_e
339 333 335 344 353 355 357 355 351 352 349 345 342 342 341 341 347 352 340 332 334 337 338 338 333 333 335 335 334 335 336 333 331 338 332 332 328 328 329 332 338 337 335 336 335 339 337 339 339
338 335 342 349 356 358 358 353 356 352 347 343 344 342 347 347 347 343 336 331 333 338 337 336 335 334 334 337 337 337 336 333 337 333 335 333 332 333 339 331 331 338 341 335 336 337 338 339 338
337 343 350 352 353 358 358 354 355 349 345 345 351 349 350 347 344 340 334 332 334 339 337 336 335 335 334 335 337 335 333 335 336 332 335 334 338 327 338 334 336 338 335 337 337 337 341 341 342
348 349 344 354 356 354 353 353 350 347 350 352 351 349 346 346 341 337 332 333 336 337 336 335 335 334 335 336 340 335 333 339 331 337 339 333 340 337 334 337 335 336 336 337 334 338 344 343 342
350 349 352 354 353 352 351 350 348 352 351 351 351 348 345 342 339 335 334 336 336 335 335 335 335 336 337 336 337 336 339 338 334 338 330 334 338 337 336 337 338 337 336 336 334 342 343 343 342
351 350 358 356 354 352 349 347 348 352 351 349 348 348 347 343 337 336 336 335 334 335 336 338 338 338 338 340 333 336 340 338 340 338 340 339 339 334 335 337 337 335 334 337 340 342 342 340 341
353 353 357 355 354 351 349 347 351 352 352 351 348 350 345 345 336 337 336 334 335 337 338 339 338 337 332 333 339 341 340 339 335 338 339 339 340 340 337 336 338 336 333 336 341 342 341 340 341
351 351 355 353 353 352 350 348 353 352 351 349 349 349 346 342 336 335 337 336 337 338 338 337 336 335 340 340 339 340 338 338 338 337 338 336 340 340 339 338 337 332 333 339 341 341 340 340 339
350 354 356 354 353 353 350 352 353 350 350 350 350 347 345 342 336 341 342 341 340 341 341 338 336 343 339 340 340 340 339 338 338 337 336 335 339 339 340 338 338 330 334 340 340 340 340 340 339
349 355 353 350 350 351 351 353 351 352 351 350 349 348 344 341 340 342 343 340 341 341 340 340 339 338 339 341 342 341 338 338 338 338 336 335 337 337 339 337 334 333 330 338 337 339 340 339 339
348 353 350 349 350 350 352 351 346 350 350 350 349 347 344 341 341 342 343 340 341 338 337 339 337 337 340 341 339 338 339 338 336 335 334 334 335 337 337 338 336 333 330 330 337 341 341 342 340
344 344 347 346 349 349 352 349 347 348 352 351 349 346 343 341 341 343 344 343 339 333 334 338 336 338 337 340 338 335 339 339 338 336 334 334 333 335 335 335 334 333 333 332 339 340 341 340 340
343 339 338 339 346 348 350 348 348 351 351 349 348 345 344 343 343 343 344 341 335 331 334 336 335 336 336 337 335 336 343 343 339 337 336 336 336 335 336 336 335 336 337 339 339 339 340 339 338
336 337 337 335 338 345 350 350 350 349 349 350 348 346 345 346 345 344 342 337 329 331 333 335 333 335 335 336 332 335 344 343 342 340 339 341 342 342 339 337 339 339 337 339 336 338 341 339 339
334 334 332 346 337 346 348 351 349 349 349 349 349 348 347 346 345 341 333 329 329 330 333 331 334 334 335 332 339 341 342 344 343 343 344 344 342 343 342 342 341 339 335 338 338 335 339 341 341
332 328 332 349 345 348 348 354 348 351 350 349 348 347 345 345 343 341 336 335 330 329 332 331 333 335 335 340 339 340 343 343 343 344 343 343 343 342 343 343 342 341 336 338 339 340 339 341 340
330 339 330 348 349 350 350 352 350 352 352 350 348 346 346 346 346 346 342 333 331 330 331 332 333 335 337 338 339 340 343 343 343 344 342 344 343 341 342 343 341 342 339 337 341 341 340 339 339
336 333 329 339 351 351 351 351 350 352 352 351 349 348 345 346 347 347 344 340 334 332 330 334 334 339 342 343 342 343 344 344 345 345 346 344 343 342 342 342 341 340 340 340 340 341 340 339 340
330 331 332 331 337 334 332 333 344 349 352 351 350 348 347 346 346 347 346 344 341 334 330 333 334 341 343 344 346 344 344 344 346 346 347 347 344 342 343 342 343 338 340 340 340 340 341 341 341
330 332 332 328 326 327 329 340 349 350 351 352 350 349 348 347 347 347 347 346 343 335 332 335 336 339 341 342 345 344 343 345 345 345 347 345 345 343 344 344 344 343 340 340 341 340 341 340 340
331 333 330 330 327 343 338 343 351 350 349 351 350 349 348 348 347 347 347 346 345 341 336 337 340 340 340 341 344 346 345 345 345 345 347 344 344 345 345 342 344 343 343 341 340 340 341 340 339
334 328 328 329 329 330 329 332 337 351 352 350 351 350 349 348 348 347 347 346 346 344 340 339 340 342 342 342 342 343 345 345 345 343 347 345 344 345 346 345 342 346 343 340 340 342 340 340 341
333 327 329 329 328 326 325 328 328 347 350 352 351 351 350 348 348 347 347 347 347 346 343 340 342 343 343 343 343 342 344 343 344 344 345 347 343 343 345 346 343 343 343 342 341 341 341 340 340
325 324 322 322 325 329 327 327 328 338 338 335 346 350 350 349 348 347 346 346 346 346 344 343 341 343 344 343 343 343 341 343 344 344 347 347 345 344 344 345 345 343 343 341 341 341 340 341 339
326 327 327 327 328 329 322 326 335 333 333 336 334 345 349 349 348 348 346 346 346 345 344 343 343 341 342 344 344 344 342 341 344 344 343 345 346 346 343 341 345 342 342 343 341 341 340 341 339
327 328 327 329 328 327 322 329 333 330 331 335 338 343 346 348 349 348 348 346 346 345 344 344 344 343 341 342 343 344 344 341 342 344 343 344 346 346 343 341 345 344 342 343 345 340 340 340 342
319 323 320 323 320 327 325 325 327 327 330 333 335 338 339 343 346 348 348 347 346 347 347 345 344 344 343 342 342 343 344 340 337 339 343 342 343 345 345 344 343 346 346 344 343 343 340 340 340
318 316 323 324 328 328 326 329 328 326 327 332 335 337 342 342 343 343 346 347 346 344 347 347 346 345 344 344 342 342 344 342 340 337 338 339 340 343 345 346 347 345 345 343 345 341 342 341 340
318 319 317 322 323 327 327 328 319 323 326 333 334 334 339 344 344 344 341 346 346 345 346 346 347 347 346 344 343 342 342 343 342 339 333 338 341 339 344 344 346 348 347 344 343 341 341 343 342
314 316 316 326 325 321 326 325 320 324 327 329 330 331 334 342 346 345 338 340 347 347 345 346 347 347 347 347 346 343 342 342 343 342 337 333 336 339 342 344 344 345 346 347 343 344 345 344 342

GFSSGP_850_thetae_093.txt.gz
Theta_e
341 340 346 345 357 362 363 361 354 354 351 347 343 342 346 352 354 353 344 343 346 345 342 341 330 329 329 335 336 333 331 335 334 332 331 330 330 330 334 337 342 337 338 338 339 339 341 340 340
348 343 347 354 363 366 364 358 357 352 349 346 344 343 348 352 348 344 343 344 346 345 343 344 332 332 335 335 335 335 338 337 333 336 333 333 337 333 329 336 339 339 339 337 337 339 339 339 340
349 344 353 359 359 363 365 356 354 349 347 346 346 348 353 349 343 344 343 344 345 344 344 337 336 337 337 337 336 333 337 335 339 339 339 330 339 336 331 336 338 338 339 338 340 343 338 334 331
344 352 354 359 360 359 358 354 353 349 351 348 350 353 350 347 343 344 344 344 345 345 347 333 334 335 337 335 334 334 340 332 338 338 340 338 338 338 336 335 337 338 335 338 343 343 339 339 334
351 354 359 359 354 354 354 353 348 350 352 350 349 353 349 343 343 343 344 345 345 346 347 337 334 335 340 338 337 339 332 338 336 334 338 338 338 337 336 335 335 336 333 342 343 343 342 338 335
354 356 361 359 356 353 353 352 354 350 353 351 352 351 350 346 342 343 345 345 345 346 345 343 335 335 338 339 335 339 334 338 340 339 338 337 337 337 339 337 336 337 336 342 342 340 341 340 336
356 359 358 355 356 354 352 352 354 354 352 350 352 354 348 344 342 343 345 345 345 345 348 348 347 341 343 334 339 339 336 338 340 338 339 339 337 334 336 340 333 337 341 341 341 340 341 337 336
355 357 356 354 356 354 350 353 352 354 354 353 353 352 346 342 342 343 343 344 344 347 347 347 347 349 347 345 340 339 337 336 338 337 340 339 337 336 339 334 332 339 340 340 340 340 338 336 333
353 359 360 354 356 353 351 353 349 353 354 353 353 349 343 342 343 343 343 343 345 345 348 348 347 348 348 348 341 337 338 338 336 338 342 345 346 344 346 336 335 340 340 339 339 337 339 334 332
352 359 355 351 351 354 352 352 351 354 353 353 351 346 343 343 343 343 342 343 344 346 347 345 349 347 350 349 345 346 348 344 346 345 345 348 347 346 343 333 336 339 339 339 341 344 345 345 343
350 356 350 349 351 352 351 353 350 353 356 353 348 345 343 343 343 343 343 343 344 345 346 349 349 349 350 347 347 347 345 348 347 346 344 345 344 344 344 341 341 337 344 344 345 347 346 346 342
351 352 348 347 346 351 354 353 353 353 354 353 349 345 343 343 343 343 343 343 345 346 347 350 348 346 349 346 349 347 347 346 345 346 346 345 346 345 345 346 343 343 347 343 347 347 346 344 343
348 349 346 345 346 350 353 351 352 353 354 353 350 344 343 342 342 343 343 344 345 346 346 348 349 349 345 348 348 348 347 347 345 346 346 346 344 344 344 344 344 344 345 346 346 346 347 346 343
337 348 345 344 343 349 350 351 352 353 354 353 348 344 343 342 341 342 343 345 345 345 346 347 349 350 346 350 349 349 349 347 347 346 346 346 345 346 344 344 345 344 346 345 347 349 347 346 343
339 349 346 342 341 347 351 353 355 353 354 351 347 344 342 341 340 342 343 345 345 345 346 347 348 348 349 350 349 350 349 346 348 349 343 349 348 346 346 347 346 345 344 341 343 348 347 343 343
340 346 348 345 342 345 352 356 354 353 353 350 347 344 343 341 341 342 343 344 345 344 346 347 345 348 348 348 349 347 349 349 349 350 348 346 345 348 348 347 348 346 346 346 346 346 345 345 344
339 348 346 347 344 347 354 358 353 353 353 350 347 344 344 343 342 342 343 343 343 344 347 346 346 347 348 349 349 347 348 349 349 351 351 346 349 344 350 348 350 344 345 346 346 346 344 343 342
340 347 345 348 347 347 356 359 355 353 353 352 348 346 346 345 344 342 341 341 341 344 347 347 346 349 348 349 349 348 347 350 348 349 351 344 349 348 348 350 349 348 345 345 347 347 346 345 344
336 344 346 344 346 347 351 354 358 354 353 354 352 349 348 348 345 341 340 339 340 342 346 347 347 350 349 348 346 347 349 351 350 350 350 347 351 350 346 350 344 349 346 348 344 344 346 345 344
335 340 344 343 345 344 349 352 352 354 354 352 353 352 350 348 343 342 341 341 340 342 345 347 348 351 350 348 347 347 349 349 351 351 351 351 350 350 352 350 348 347 348 350 349 349 345 344 345
337 339 342 344 339 339 339 345 348 348 350 354 353 352 349 346 343 345 344 343 342 343 344 347 349 351 351 349 351 350 351 352 351 352 352 352 352 351 353 351 350 347 350 348 349 344 349 346 344
335 336 339 338 339 343 339 345 348 348 349 352 353 353 350 347 345 346 347 346 345 344 343 345 349 350 352 352 350 347 347 349 350 351 352 351 352 352 350 352 352 341 350 350 348 346 349 347 345
332 332 337 336 336 339 339 340 344 348 350 352 350 352 351 349 348 347 348 348 347 345 341 344 349 349 351 350 352 351 350 349 350 350 352 353 349 351 352 352 352 342 350 344 349 348 344 342 347
334 333 336 336 336 337 337 338 344 345 347 346 348 350 351 350 350 348 348 349 348 346 345 343 349 348 347 351 344 349 352 350 351 349 353 352 352 352 352 353 352 350 353 348 351 346 341 350 345
335 335 335 334 336 336 334 334 345 343 342 341 340 348 349 351 350 349 348 349 348 346 346 348 349 350 348 350 354 343 348 350 352 354 352 351 351 352 351 348 351 351 351 351 350 351 351 347 346
334 335 334 334 333 333 333 339 343 341 341 343 344 346 348 349 351 351 350 349 349 348 348 347 350 352 354 352 351 353 349 353 349 350 349 350 350 351 352 351 351 353 352 351 350 350 349 349 347
334 335 332 332 332 331 337 341 339 341 343 344 346 349 350 347 350 352 351 351 350 350 350 350 351 351 356 355 350 353 351 346 350 348 345 352 351 350 356 352 352 352 353 353 351 352 346 350 347
329 332 334 332 335 333 336 340 341 343 344 344 347 350 349 351 351 350 351 352 351 351 352 353 353 354 356 357 357 355 353 350 346 353 349 347 348 351 352 354 351 353 353 353 352 349 351 351 350
329 331 333 332 332 334 336 340 339 342 341 344 345 344 345 347 347 349 350 349 352 352 351 352 354 356 357 358 357 356 356 357 356 355 354 347 346 351 352 353 350 353 352 354 350 349 353 350 350
326 329 332 333 333 331 333 335 337 339 338 343 341 339 339 340 342 343 345 349 352 353 353 353 352 353 354 357 357 357 357 356 357 357 355 351 344 343 350 353 354 356 354 352 351 352 350 353 353

GFSSGP_850_thetae_096.txt.gz
Theta_e
342 342 349 348 355 359 364 361 355 353 351 343 344 348 352 350 351 354 347 348 347 346 340 337 334 330 329 332 331 340 336 334 332 331 330 330 331 333 338 340 337 337 339 340 340 340 339 335 331
347 346 347 352 362 367 365 357 357 352 345 343 343 350 346 348 346 345 346 348 346 346 346 332 334 337 337 336 336 340 337 336 337 332 334 336 332 330 338 338 337 338 337 340 338 337 338 332 331
351 345 351 358 362 364 362 356 353 349 345 344 353 352 344 344 344 344 346 346 345 345 344 331 334 339 337 336 334 336 335 340 339 337 332 340 337 333 338 341 338 341 338 341 340 337 331 331 330
353 348 353 362 361 359 357 355 350 348 346 351 349 349 344 344 344 345 345 344 344 346 337 337 339 337 336 336 335 339 331 339 336 339 338 336 338 336 338 336 336 338 341 342 341 339 334 335 331
350 354 360 361 357 357 355 354 353 352 348 350 350 346 343 345 344 344 345 343 345 347 334 334 335 343 341 340 341 335 338 335 335 337 338 338 336 337 337 336 338 339 343 342 342 339 335 334 335
352 354 361 361 357 354 354 353 351 352 351 351 348 343 343 345 344 344 345 345 349 346 345 334 336 341 339 337 342 334 338 339 338 338 337 336 336 337 336 336 340 339 342 341 341 340 336 332 331
354 358 360 356 356 355 354 354 354 355 350 351 349 348 344 344 344 344 345 347 346 346 345 338 337 338 336 336 339 336 337 338 337 338 337 337 332 339 337 336 335 340 341 340 340 338 334 332 336
354 357 357 354 356 356 352 355 354 354 351 353 350 348 344 344 344 345 346 346 347 349 346 349 341 339 337 340 338 336 333 337 336 339 337 336 336 339 333 333 339 340 340 340 339 335 332 332 340
354 358 360 354 353 353 353 353 350 352 354 353 354 345 342 343 344 345 345 347 348 345 348 347 349 348 347 339 336 336 337 336 336 341 345 347 345 343 341 334 338 339 339 338 337 337 330 334 340
354 358 357 352 352 352 352 348 350 352 355 353 346 343 342 342 343 343 345 346 348 348 346 349 349 347 350 346 343 346 341 342 345 344 346 345 346 343 329 336 337 339 340 344 345 344 347 345 344
353 359 351 352 352 352 352 349 346 353 356 352 345 343 342 342 343 342 344 345 346 345 348 350 344 350 349 347 346 345 347 342 343 344 345 346 345 341 332 334 339 340 343 346 345 345 346 346 343
354 345 347 352 352 352 353 351 352 353 353 351 345 342 343 342 342 342 343 346 344 348 350 347 351 349 349 348 347 346 348 347 346 344 344 344 344 346 342 345 340 347 343 345 337 346 340 344 343
348 344 349 347 351 352 353 351 354 346 347 351 345 344 343 342 342 342 342 345 345 347 350 350 347 346 351 347 349 347 346 347 343 344 346 344 344 345 345 342 344 341 343 346 347 347 345 344 342
344 350 350 345 349 353 353 352 354 351 354 349 346 344 343 342 342 342 343 344 346 348 349 349 343 344 351 348 347 350 347 348 345 346 347 345 345 343 342 345 343 346 347 345 348 344 344 344 342
338 344 349 345 347 352 351 354 355 354 353 350 346 344 342 341 342 343 344 345 346 346 348 349 345 344 349 348 346 347 349 347 347 347 345 346 346 345 344 345 345 344 344 341 341 346 346 345 341
337 344 353 346 344 350 351 359 354 353 352 349 345 344 342 341 342 343 344 346 345 347 348 347 347 349 351 343 350 349 349 348 338 350 344 344 345 350 343 346 347 344 341 344 347 345 344 345 344
336 346 348 347 343 352 353 358 354 353 351 348 345 344 342 341 342 343 344 345 345 347 348 346 347 348 349 341 349 351 349 348 342 346 349 347 343 344 344 347 347 343 346 346 346 343 344 345 342
338 341 347 349 345 350 353 357 354 353 351 348 346 344 343 342 342 343 343 344 344 347 347 347 347 348 349 346 349 351 346 351 351 350 348 347 346 345 348 347 345 346 344 347 345 344 342 345 342
338 341 348 346 346 352 346 343 353 353 351 349 347 345 344 344 343 343 343 343 343 348 347 347 347 348 349 343 345 349 345 347 351 350 351 347 348 342 347 347 344 344 347 343 346 344 345 348 343
335 337 347 346 344 351 347 350 352 353 352 350 348 346 347 345 345 343 342 341 342 347 347 348 349 349 350 347 346 347 349 348 349 347 352 351 349 344 348 343 348 347 346 346 343 348 344 346 342
331 334 347 347 345 349 353 354 340 354 351 352 351 350 348 347 348 342 341 340 341 344 347 347 348 347 349 348 348 350 348 346 351 349 348 353 350 346 352 350 349 347 349 342 344 346 345 347 344
331 334 338 347 346 343 344 355 359 357 352 346 353 353 351 350 348 343 342 342 341 343 345 348 348 347 346 350 347 349 348 346 352 349 352 347 351 351 351 347 348 347 347 348 340 346 347 344 348
332 335 341 342 343 338 339 349 349 350 355 341 345 353 351 348 344 345 344 343 342 344 345 347 348 348 348 350 352 345 345 351 350 353 349 349 347 351 351 349 346 342 347 348 346 347 345 345 345
333 333 334 339 340 339 340 340 350 353 349 347 343 353 350 350 345 346 346 346 345 345 343 345 346 343 345 347 350 350 350 347 350 349 345 348 346 346 350 350 347 344 344 346 347 348 340 345 345
332 335 334 341 338 337 338 341 351 348 344 348 350 352 347 341 349 347 348 347 348 345 342 343 345 341 343 339 344 341 346 350 351 348 352 352 353 350 348 345 344 344 349 348 348 341 342 344 344
332 335 334 339 336 335 335 346 346 344 342 340 346 348 350 342 349 349 349 350 348 346 342 342 342 336 339 340 341 341 340 339 347 349 350 346 350 350 353 348 341 347 345 349 342 343 343 338 341
333 335 334 332 332 333 342 345 342 343 344 345 353 353 352 353 352 349 348 351 348 348 346 346 345 344 342 340 341 342 342 343 347 347 346 349 351 351 351 350 345 345 351 349 348 345 343 350 341
334 333 334 336 337 336 344 346 347 344 352 353 352 351 352 351 352 344 346 351 351 351 346 351 349 349 348 346 343 343 343 343 350 347 348 344 350 352 347 351 350 348 350 349 348 347 350 345 349
331 332 333 334 334 336 346 344 343 346 351 351 346 345 346 347 348 349 350 340 342 351 353 351 351 351 350 351 353 353 350 347 344 349 347 342 346 349 349 340 351 350 347 347 345 348 352 348 343
327 332 332 335 337 336 344 345 340 345 347 344 343 342 341 341 344 344 344 346 349 345 349 352 353 359 354 356 358 358 355 354 355 347 349 347 343 341 348 349 349 351 350 348 349 341 351 352 348

GFSSGP_850_thetae_102.txt.gz
Theta_e
339 339 343 346 352 354 358 358 355 350 349 346 344 345 348 347 348 345 341 342 340 340 341 338 338 338 336 331 327 327 328 328 329 331 333 339 336 338 337 339 340 339 337 331 332 337 340 340 340
339 345 346 349 356 360 359 357 352 347 345 345 346 346 347 347 346 347 345 342 339 338 338 337 337 330 333 336 333 338 330 329 328 327 329 337 339 340 341 339 341 340 335 330 336 341 342 342 343
342 350 349 351 357 360 359 356 350 346 345 344 344 345 347 348 347 346 342 340 340 337 334 331 331 333 338 335 334 335 333 333 339 335 334 335 336 336 342 340 340 337 330 330 340 340 342 343 344
348 347 347 357 361 356 356 356 346 343 343 343 345 347 348 347 347 344 341 340 339 331 327 334 334 334 338 334 341 334 333 333 336 341 332 337 340 339 339 339 341 337 330 329 337 339 340 343 343
350 350 356 358 358 355 353 354 345 346 345 345 345 347 347 347 345 342 340 338 331 329 335 335 333 332 336 332 336 339 336 338 340 339 337 339 338 336 339 338 341 338 333 331 336 337 339 341 344
351 349 359 360 357 354 354 353 346 344 345 345 346 346 346 346 343 340 335 330 329 333 336 339 339 335 340 333 335 335 338 339 340 340 339 338 336 338 336 340 340 339 333 332 337 338 340 342 342
352 354 358 357 356 356 356 351 350 345 345 345 345 346 345 344 340 337 336 333 335 333 336 337 338 338 337 336 337 337 337 336 334 335 337 336 335 339 336 340 338 339 334 331 334 341 342 342 342
352 349 355 353 356 357 354 352 348 350 346 344 345 345 344 344 343 342 343 335 333 333 334 338 336 339 337 336 335 336 338 336 333 332 336 336 336 335 337 339 339 337 332 331 331 337 340 341 342
350 354 357 354 354 356 352 352 348 349 345 344 344 345 344 344 344 345 343 335 334 334 335 335 334 338 336 333 336 336 338 335 337 336 331 328 332 336 338 338 333 332 331 334 338 339 341 341 343
349 349 352 350 350 354 352 351 350 347 349 349 343 343 344 345 345 347 343 342 340 340 338 340 339 335 335 336 335 336 338 343 343 337 335 332 335 338 337 334 333 330 332 339 341 341 341 342 344
346 351 345 349 351 352 350 349 349 346 348 347 343 343 347 347 347 345 346 343 344 342 345 341 339 342 343 340 335 339 341 344 344 342 338 330 336 337 337 339 342 341 341 344 344 345 345 345 342
347 346 346 349 351 350 349 348 344 344 345 346 343 343 347 347 346 346 346 345 346 346 346 341 343 344 344 341 341 340 343 345 343 343 335 333 335 338 339 341 342 341 342 343 343 342 341 340 341
350 350 345 350 349 347 347 349 353 347 347 346 343 344 346 347 346 346 346 346 347 347 347 344 344 345 344 344 342 342 342 342 344 344 342 339 338 341 342 341 337 339 340 343 341 342 340 341 340
344 347 348 349 351 348 351 350 348 348 348 343 342 343 345 347 347 347 346 347 347 347 345 346 346 345 344 345 346 344 342 344 344 344 344 341 340 340 342 342 342 342 343 343 343 342 340 340 339
332 343 347 349 352 351 348 348 350 347 350 344 342 342 342 346 347 346 344 347 347 347 346 346 346 346 346 347 346 346 343 344 344 345 344 342 340 344 343 341 341 343 339 343 344 344 341 336 336
331 346 346 351 352 352 351 352 345 346 348 347 342 342 342 346 346 344 344 346 347 346 347 343 343 347 346 348 346 346 345 345 344 345 345 345 342 343 342 341 342 342 341 344 345 343 343 342 340
324 329 348 355 352 352 351 347 347 346 348 349 345 342 342 345 346 344 345 347 348 347 344 345 345 343 346 348 347 347 346 345 346 342 343 344 344 343 345 343 342 343 344 345 344 344 345 343 342
325 332 338 351 354 350 350 350 348 347 349 351 346 342 342 345 346 345 347 348 348 347 344 346 345 339 345 349 347 345 343 340 343 343 345 344 342 342 344 345 340 344 344 344 344 344 344 343 342
323 326 351 354 351 351 349 347 348 347 349 351 344 342 342 345 345 347 346 347 348 345 347 343 341 341 345 348 347 347 347 345 344 344 343 342 342 342 344 344 342 343 342 344 344 345 346 342 342
323 328 352 350 349 350 351 353 352 349 350 349 343 342 342 344 344 344 345 346 347 345 346 347 346 343 342 347 347 344 346 346 346 345 345 342 344 343 344 344 341 343 344 344 344 345 343 342 343
321 323 348 350 348 347 349 350 351 348 348 345 344 342 342 344 345 345 344 344 345 345 345 346 346 345 344 347 349 348 349 347 345 348 345 345 344 344 346 342 344 344 344 343 344 345 344 343 344
319 321 341 349 350 355 347 348 347 345 349 347 344 342 341 342 345 345 345 344 344 345 345 346 346 346 344 347 347 348 348 344 345 346 345 345 345 345 343 343 344 343 344 343 343 345 345 344 345
322 323 336 346 344 349 351 350 345 346 352 351 348 344 342 341 343 345 345 345 344 344 345 343 344 345 342 345 346 349 349 347 346 348 346 348 348 347 346 345 345 347 345 342 342 344 345 344 342
324 336 338 338 340 345 344 349 351 351 353 351 348 345 345 344 343 344 345 344 343 344 344 343 342 340 342 343 345 347 347 343 343 350 349 347 349 349 348 347 344 345 346 342 342 342 344 345 344
324 323 327 341 347 343 343 347 343 348 350 350 351 349 346 346 346 342 343 343 343 344 343 343 343 340 339 346 346 346 346 343 347 348 349 347 348 347 348 347 346 340 344 345 341 342 343 343 343
325 324 326 336 337 337 341 349 348 343 343 347 347 349 349 349 348 346 341 343 341 341 341 341 342 342 338 345 347 345 345 345 346 349 346 345 344 342 350 348 346 341 345 345 343 344 343 340 342
324 325 323 327 327 336 344 345 341 345 344 343 342 345 345 350 348 346 343 342 345 346 345 342 343 341 336 340 347 349 347 344 347 348 348 347 348 349 347 346 343 341 343 346 342 340 337 334 337
323 325 330 324 332 339 345 346 346 346 354 351 345 346 347 346 346 347 347 345 345 345 347 346 346 343 340 335 339 345 340 341 346 344 347 346 347 351 351 348 347 341 344 344 343 343 340 339 335
326 327 325 324 324 334 346 346 349 351 350 350 349 347 347 345 345 346 347 347 346 345 346 347 348 346 344 340 339 338 338 338 338 342 348 349 346 348 350 349 348 344 343 347 343 344 339 339 337
326 327 324 327 329 338 338 350 345 343 343 344 345 345 344 344 344 340 337 344 347 342 337 345 346 346 344 344 342 341 339 340 340 340 345 347 349 346 349 350 346 345 344 344 344 343 342 346 340

GFSSGP_850_thetae_105.txt.gz
Theta_e
334 333 342 346 351 352 355 355 353 349 345 346 342 342 343 345 347 342 339 338 340 340 339 339 339 337 335 333 330 328 334 341 334 338 336 336 336 337 338 339 338 342 331 329 338 328 323 325 324
342 345 347 348 352 356 358 355 355 347 345 344 345 347 346 347 346 343 340 339 340 340 339 338 338 336 333 328 327 328 328 329 330 335 339 337 338 339 339 340 338 335 332 340 339 339 339 341 340
339 348 348 351 355 357 358 354 347 345 344 344 345 347 348 348 345 342 340 339 340 340 338 338 333 338 337 335 342 330 333 331 327 331 337 338 341 338 340 341 339 336 335 341 342 342 341 342 343
348 348 348 355 360 353 355 352 345 343 344 345 346 347 347 345 345 343 339 338 337 337 337 332 331 339 334 334 340 337 338 339 334 338 336 335 340 339 340 339 337 330 338 339 342 341 343 341 341
348 350 354 356 356 353 350 353 344 346 345 345 346 346 346 346 344 340 339 339 336 331 331 333 335 340 334 342 336 333 333 338 341 334 337 339 339 337 340 337 332 329 334 338 339 341 342 341 341
350 349 356 360 357 354 353 352 345 345 345 345 345 346 346 346 340 340 339 336 328 329 334 333 333 336 332 338 338 338 339 339 339 338 338 338 336 338 339 338 333 331 330 336 338 337 342 340 340
351 353 358 357 356 356 353 348 346 345 345 345 345 345 346 342 340 339 337 330 329 334 334 333 334 341 334 335 338 339 339 340 340 339 338 335 335 337 340 339 333 332 332 336 337 341 341 340 341
350 348 353 354 357 358 349 350 350 347 345 344 342 345 346 342 339 335 330 329 334 335 336 336 337 336 336 341 339 337 336 335 337 336 338 336 335 339 339 339 337 332 334 339 338 342 342 342 341
348 351 354 354 356 355 348 348 348 345 344 343 344 343 343 341 336 333 331 334 335 337 337 336 337 337 336 335 337 337 334 337 337 336 336 337 335 338 338 338 334 333 330 334 339 340 341 342 340
347 349 350 348 348 354 349 348 347 346 345 344 344 344 343 341 340 339 335 334 335 335 336 334 337 336 333 337 337 337 335 338 335 329 333 333 337 338 338 333 332 332 333 336 339 341 341 343 343
346 350 346 347 349 350 349 348 346 347 350 344 344 343 344 343 344 341 334 334 335 336 336 338 335 336 335 335 337 338 342 339 337 332 333 337 338 337 332 330 332 337 339 340 340 341 342 345 344
345 345 347 348 351 351 349 348 346 346 346 344 344 344 344 344 345 340 339 340 339 342 343 338 339 341 339 334 339 342 343 342 339 331 334 336 336 336 338 338 337 339 342 343 344 343 340 340 341
346 348 346 351 349 349 348 348 346 347 344 343 344 344 344 344 346 343 343 343 342 343 340 344 343 342 340 337 342 344 342 341 337 334 335 336 338 340 342 342 342 343 342 343 342 341 340 339 340
345 347 348 350 349 348 350 348 349 346 349 344 346 346 345 345 346 346 344 345 344 345 341 343 344 344 342 341 341 341 342 343 342 341 338 339 341 341 340 337 338 340 342 341 342 341 340 340 338
333 348 348 350 350 349 347 349 350 347 348 344 345 346 346 346 345 346 344 345 345 345 343 344 345 343 344 343 342 342 343 342 342 342 341 337 340 341 341 338 340 342 341 341 342 343 340 340 338
330 342 354 350 352 348 348 351 348 346 348 346 343 345 346 347 346 346 345 344 346 345 344 344 345 345 346 345 345 342 342 344 343 345 343 342 342 342 339 341 343 342 343 342 343 343 340 338 339
320 332 348 353 352 351 348 349 346 346 347 347 342 341 344 346 346 346 345 345 347 346 346 344 344 346 346 346 346 345 344 343 342 345 344 345 342 340 342 342 342 341 341 343 343 344 343 342 341
325 327 344 355 353 352 350 348 347 346 348 349 345 340 343 346 346 346 344 346 347 345 345 342 344 345 345 346 345 346 345 345 345 343 342 344 344 343 344 343 341 343 343 344 343 344 344 342 342
322 324 355 353 348 346 347 349 348 347 348 349 349 340 343 345 346 346 344 346 347 347 343 343 343 343 345 345 345 344 345 342 341 343 342 342 342 342 342 343 340 342 343 344 343 344 345 342 342
322 339 352 350 349 349 346 350 348 347 348 349 349 341 343 345 347 345 345 347 348 346 344 342 344 341 342 345 344 345 345 345 343 343 343 343 342 340 344 343 340 342 344 344 344 344 343 342 343
320 325 348 351 348 349 350 351 350 347 346 348 349 341 343 345 346 345 346 348 347 345 345 344 342 345 340 346 347 344 345 345 345 345 343 342 342 343 341 343 343 340 343 343 342 344 343 343 343
321 320 343 348 347 348 347 351 348 350 350 348 347 340 344 344 345 345 347 348 346 345 345 344 345 346 341 345 347 346 346 345 344 346 345 343 343 343 343 341 340 343 343 343 342 343 344 343 344
321 321 337 346 347 348 352 346 344 350 352 350 347 340 342 344 345 346 346 345 344 344 343 344 345 346 344 344 347 346 348 346 345 346 345 345 345 343 343 341 342 343 344 342 342 344 344 344 344
323 336 338 336 338 344 348 347 348 349 350 349 347 343 340 344 344 344 345 344 344 344 344 344 345 345 345 343 344 346 348 348 347 346 345 344 345 346 344 345 344 342 344 344 342 344 343 343 344
322 330 336 344 344 345 339 346 340 345 346 347 347 345 341 341 344 344 345 344 344 344 343 344 343 343 343 339 342 345 346 346 344 343 348 344 347 345 344 344 343 342 343 344 340 341 342 343 344
319 324 326 340 342 339 340 343 343 343 344 346 348 346 345 342 343 344 342 345 344 344 343 342 343 342 342 340 337 344 345 346 344 347 348 348 346 347 347 346 344 343 340 341 342 341 342 343 343
322 323 321 324 324 339 342 342 341 344 342 346 347 347 347 344 342 344 343 345 345 345 345 345 344 343 343 340 338 340 343 345 345 346 348 346 345 345 343 347 345 344 342 344 344 340 341 343 342
320 321 326 322 328 340 344 347 346 350 347 341 346 346 347 347 345 343 343 343 345 346 346 345 346 345 344 342 339 342 345 346 343 347 348 348 346 347 347 347 346 345 341 341 342 341 340 337 337
326 327 322 320 323 338 344 345 347 348 350 348 346 344 347 347 346 346 345 342 343 346 346 346 345 345 344 345 341 344 346 347 343 346 346 347 348 347 347 349 350 348 346 342 343 341 341 339 337
323 325 323 325 331 332 338 347 344 346 345 345 344 343 345 346 347 346 346 345 346 346 345 339 342 345 344 347 346 343 341 343 344 341 340 345 346 347 345 347 348 349 348 343 345 344 344 343 338

GFSSGP_850_thetae_108.txt.gz
Theta_e
333 336 345 346 348 351 354 353 352 343 339 341 339 339 342 345 346 341 338 337 335 337 338 339 340 337 332 331 337 338 332 332 333 334 335 338 338 340 340 340 339 335 337 339 322 334 339 335 326
337 342 347 348 350 356 356 352 353 346 342 340 345 345 346 347 345 342 340 339 338 337 338 340 339 335 333 329 328 333 340 334 340 336 338 338 340 341 339 340 340 338 339 339 331 331 330 337 335
345 347 348 351 352 355 357 352 347 344 342 342 347 347 347 346 345 340 340 340 339 338 338 339 337 338 330 330 328 328 329 330 336 339 336 338 339 341 339 338 340 338 340 340 340 341 342 341 338
345 347 347 352 354 352 352 349 344 343 344 346 346 347 345 344 341 340 340 340 340 338 338 337 336 340 336 343 331 333 339 329 330 337 338 340 340 340 340 340 338 338 341 341 341 341 341 340 336
348 349 351 355 355 352 350 351 347 345 346 346 345 345 344 344 343 339 339 340 340 338 337 330 340 338 333 337 341 333 342 335 336 337 334 338 340 339 340 339 333 340 340 340 342 340 339 339 339
349 348 354 357 355 352 350 348 345 346 346 345 344 343 345 345 340 338 338 337 336 335 331 334 342 334 340 340 334 335 336 340 333 337 338 337 337 340 339 341 330 335 337 338 340 341 339 339 336
350 352 355 355 356 354 351 349 345 345 345 345 344 344 345 344 339 339 337 332 329 332 333 332 335 335 335 337 337 339 340 338 339 338 337 335 338 341 340 340 338 333 335 337 341 341 340 341 340
350 349 353 354 356 357 349 351 348 345 345 343 342 344 342 342 339 339 334 328 332 333 332 333 339 335 334 337 338 337 339 338 337 337 336 335 337 340 341 338 340 332 336 340 341 341 341 339 340
347 350 353 355 356 352 348 348 347 344 342 344 344 343 341 340 339 337 330 333 335 336 336 336 337 334 337 338 338 339 338 337 336 336 336 336 339 339 340 339 339 333 338 339 341 341 342 340 339
346 348 350 346 349 349 347 347 347 345 344 344 343 342 340 339 338 331 330 334 335 336 337 336 338 334 334 340 339 336 338 337 336 333 336 335 338 339 339 336 332 331 335 338 340 341 342 343 341
345 349 347 348 349 346 348 348 346 346 345 342 344 343 340 336 333 330 332 333 334 336 336 336 337 333 334 336 336 337 335 334 329 334 333 337 338 338 334 331 332 332 336 339 341 342 343 341 341
346 345 346 347 351 350 349 347 346 347 345 341 336 336 336 334 333 333 333 333 334 335 335 336 336 336 335 336 337 341 338 334 331 333 337 337 336 333 332 335 338 338 340 341 343 340 340 340 341
343 346 348 350 351 350 348 347 346 347 344 342 338 337 337 339 340 337 334 335 336 339 337 337 340 340 334 338 340 343 342 337 330 335 336 336 336 339 340 338 339 341 342 343 341 340 339 339 340
341 346 350 350 349 349 348 346 345 345 345 343 343 341 341 343 344 337 338 339 341 338 342 341 340 339 335 341 343 341 341 336 333 334 335 337 340 341 341 343 341 341 342 342 340 340 340 339 338
337 347 348 349 348 349 347 348 350 347 345 344 344 343 343 344 345 341 341 340 343 339 342 343 343 340 340 341 341 342 341 342 339 337 339 339 340 339 337 339 340 342 341 342 342 342 338 337 336
335 345 353 351 349 348 346 353 349 347 346 346 345 345 344 344 345 344 343 343 344 342 342 343 342 343 342 341 341 342 341 341 341 338 337 339 340 338 338 341 342 340 340 341 344 341 339 339 340
319 342 350 354 349 348 348 349 345 347 348 345 346 345 345 345 345 345 344 344 345 344 343 343 344 344 345 344 343 342 342 343 342 344 341 339 341 340 340 341 342 342 341 342 342 343 344 343 341
324 325 347 354 351 351 350 349 347 346 347 345 345 346 346 346 345 345 345 343 346 345 345 343 344 345 345 345 344 344 342 343 342 343 343 344 341 340 341 342 340 341 341 342 343 344 343 341 341
322 348 353 352 346 348 347 346 347 347 347 347 342 343 345 346 346 345 345 343 346 346 346 343 344 345 345 345 345 345 345 344 344 343 342 343 343 342 340 343 342 343 343 342 343 343 343 341 342
330 349 352 350 349 344 346 348 348 347 347 347 347 339 343 345 346 346 346 343 346 346 346 342 342 340 343 343 342 343 345 343 341 343 341 341 341 340 341 343 340 340 343 343 343 344 342 342 342
320 342 349 349 349 346 347 350 350 348 346 347 347 342 341 344 345 346 346 344 346 346 345 342 341 340 340 344 343 344 345 344 344 344 343 343 341 340 343 344 342 340 343 343 342 344 343 342 342
321 321 347 349 344 349 344 350 351 349 348 347 347 346 343 343 343 344 346 344 346 346 344 343 342 343 339 343 346 343 344 344 345 345 343 342 341 341 342 341 343 340 342 343 342 343 344 342 343
321 321 345 344 344 345 351 344 341 349 350 348 346 345 342 343 342 344 345 344 346 347 344 344 342 344 343 340 345 344 345 345 344 346 344 342 343 343 343 343 341 341 342 342 340 342 344 343 344
328 338 337 336 339 345 345 345 347 351 349 347 344 345 342 343 343 342 344 344 346 347 344 345 344 345 344 341 342 346 344 345 346 345 345 345 344 343 342 341 341 342 343 343 341 340 344 344 344
323 332 340 343 344 343 336 346 340 342 346 346 345 344 343 343 343 344 345 345 346 346 345 345 345 345 345 344 343 342 345 345 345 346 347 345 343 343 341 344 345 344 343 344 341 341 343 343 344
321 327 335 343 343 341 340 346 339 342 342 345 344 345 344 342 343 344 345 346 347 346 345 344 344 345 345 345 344 340 345 345 345 344 344 347 345 346 345 344 345 343 342 344 344 340 339 342 343
320 326 323 327 322 339 340 341 339 343 345 345 345 346 342 341 343 344 345 346 345 345 345 344 344 345 345 345 344 341 343 344 343 344 346 346 346 345 347 345 346 345 341 342 343 343 340 341 341
320 318 324 320 328 336 343 345 344 348 346 347 347 348 345 342 343 344 344 343 343 345 344 345 345 344 344 345 344 343 342 342 344 343 346 346 346 346 343 342 345 344 342 341 343 344 343 343 342
325 324 319 320 323 339 343 343 346 346 343 347 346 347 345 343 343 344 344 343 343 342 344 345 345 345 345 345 345 344 342 342 344 345 346 345 345 346 347 348 349 348 346 345 342 341 343 341 340
322 324 321 324 333 332 335 342 346 346 347 343 344 345 346 344 342 343 343 342 343 342 344 346 345 344 343 342 344 344 340 343 344 343 342 342 344 345 344 344 346 346 347 348 345 343 343 341 342

GFSSGP_850_thetae_111.txt.gz
Theta_e
333 336 345 347 352 353 356 355 352 340 340 338 337 339 342 346 347 344 337 330 333 338 341 339 341 339 334 333 332 333 337 336 335 336 338 338 340 339 340 336 339 340 332 331 341 340 338 333 339
335 343 346 347 353 358 356 353 349 339 339 339 342 343 347 349 345 340 339 333 336 338 340 339 338 332 332 332 339 338 331 338 338 336 336 339 341 340 341 338 335 337 322 324 326 333 339 338 338
344 348 349 354 351 356 357 352 349 343 340 343 348 347 347 346 343 342 338 335 337 338 339 339 335 332 328 327 327 330 332 335 338 337 338 340 342 340 339 337 338 338 335 337 340 341 338 337 339
347 346 346 355 353 352 351 347 345 341 341 347 347 347 344 344 342 340 337 337 337 338 339 337 338 331 340 335 329 329 328 328 333 335 338 341 341 340 338 337 338 340 340 340 340 340 337 335 334
347 348 353 355 353 351 349 348 343 344 344 347 347 345 343 344 341 342 340 338 338 338 338 337 339 334 340 339 332 340 334 330 332 336 336 339 340 339 341 335 338 340 340 340 338 338 338 334 332
349 348 354 355 354 352 351 349 347 345 347 345 344 343 345 345 340 342 342 340 338 337 334 342 338 333 338 337 332 336 340 336 339 335 334 340 340 339 339 332 335 337 338 341 339 339 339 335 330
351 351 353 353 355 353 352 349 346 347 346 345 342 344 345 345 343 340 342 341 338 335 332 342 341 339 340 337 339 338 338 335 335 337 338 341 341 340 340 331 333 335 338 341 339 340 340 339 334
349 350 353 354 356 357 349 350 348 346 346 344 342 345 346 345 341 339 341 341 337 332 333 335 343 333 338 336 337 340 339 339 339 336 339 341 342 340 339 339 332 336 340 340 340 340 339 339 336
347 351 353 354 354 354 347 349 347 344 343 344 344 343 343 342 341 341 336 339 339 340 337 341 338 335 338 339 339 340 336 337 337 338 337 340 341 340 341 341 333 336 340 340 342 342 341 340 339
348 352 351 347 349 350 346 347 344 344 346 345 344 344 342 342 343 340 337 342 342 343 337 339 334 336 337 337 339 339 338 336 336 335 336 339 339 340 339 340 332 336 339 340 342 342 343 342 341
346 350 348 350 347 347 346 346 347 345 347 344 344 344 344 343 342 337 340 340 342 340 338 338 335 334 336 338 335 338 333 333 333 335 335 338 339 339 334 331 330 335 339 341 342 341 340 341 340
349 346 347 350 348 345 348 345 347 347 346 343 343 342 343 342 339 337 340 338 336 338 336 337 335 333 336 336 337 335 331 329 333 333 336 338 336 334 332 333 336 339 341 342 340 339 339 341 339
346 346 348 350 347 349 347 346 346 345 344 343 343 343 342 340 339 336 338 339 336 336 336 334 337 335 335 336 341 337 334 330 333 337 337 335 333 333 336 338 339 341 343 340 340 339 338 340 339
339 347 350 349 347 348 346 346 346 346 343 343 342 341 341 340 340 334 334 335 335 337 335 338 339 334 336 339 343 340 336 331 335 336 335 337 340 341 340 341 342 342 342 340 340 339 338 338 336
342 350 349 350 349 349 346 349 348 346 343 343 341 341 342 342 342 338 335 336 339 338 340 339 337 334 340 343 341 339 337 335 334 335 337 341 341 341 340 339 341 342 342 341 341 337 335 335 334
343 347 353 351 350 347 347 354 348 346 344 343 342 343 344 345 344 341 338 340 338 341 342 342 339 338 340 341 341 342 341 340 337 337 338 340 340 337 339 339 341 341 341 343 342 340 341 341 342
333 343 350 354 349 349 348 352 348 347 344 345 345 345 345 345 346 344 341 342 341 340 343 343 343 341 341 341 341 342 341 341 340 337 337 338 340 339 340 342 340 341 340 342 343 342 342 342 342
330 334 350 355 352 350 350 349 345 347 344 345 346 345 345 345 346 346 345 342 344 343 343 344 343 344 343 343 342 341 342 342 342 342 340 338 340 339 341 342 341 341 341 342 343 342 341 341 342
328 340 353 352 349 351 349 346 347 347 346 346 346 346 346 346 346 346 346 343 344 345 344 343 344 345 345 344 343 343 342 342 342 342 343 343 340 341 341 342 341 341 341 342 343 343 341 341 340
350 351 354 351 346 347 347 350 348 347 347 346 346 346 346 347 347 346 346 345 344 345 345 343 343 345 345 344 344 344 344 344 344 343 342 342 343 342 340 341 342 341 343 342 343 342 342 342 341
333 342 352 351 348 346 350 352 352 348 347 347 345 344 345 346 347 347 347 346 344 346 345 343 343 342 344 345 345 343 345 343 342 342 343 341 341 341 340 342 340 340 343 342 342 343 342 342 342
328 330 348 348 346 352 345 352 348 350 349 347 346 345 342 345 347 347 347 346 343 345 345 343 342 340 342 345 343 343 343 343 344 344 343 343 342 341 341 344 343 340 340 343 342 343 343 342 343
327 327 347 345 348 347 347 349 346 349 352 349 347 346 343 343 346 346 347 346 344 345 345 343 343 342 342 341 344 344 343 343 345 345 344 341 341 341 343 342 342 343 341 342 341 341 344 343 343
331 344 345 345 348 340 343 348 350 352 350 349 346 346 345 343 344 346 343 348 345 344 346 344 343 343 343 340 343 345 343 344 345 345 344 342 343 342 343 343 342 341 343 342 340 341 343 343 343
332 336 343 346 348 338 342 350 343 348 347 347 347 346 345 345 344 346 347 348 345 344 346 345 344 343 344 343 341 344 344 344 344 344 346 345 343 343 341 341 341 342 344 343 344 341 342 343 343
338 333 334 337 339 340 346 350 347 346 344 346 346 345 345 345 344 346 346 348 346 344 346 345 344 344 344 345 343 344 344 345 345 344 344 346 345 342 342 342 343 344 343 343 344 340 342 342 342
324 327 331 337 335 342 348 346 344 347 345 346 346 345 344 344 345 345 347 347 345 344 346 346 345 345 344 345 343 344 341 344 344 345 344 346 346 345 345 344 343 343 343 342 341 343 341 341 342
325 326 327 329 343 341 348 349 350 351 350 346 347 345 345 344 345 345 347 345 345 346 345 344 345 345 346 346 344 343 342 342 342 344 345 346 344 345 346 345 344 343 342 341 342 342 344 341 342
325 326 327 329 332 338 346 349 346 349 349 349 347 347 346 344 345 344 344 345 345 344 343 344 345 345 345 346 346 345 344 343 341 344 344 344 345 345 346 343 344 346 344 343 342 341 342 342 342
326 327 330 329 338 342 346 349 346 348 347 348 347 348 346 345 345 344 344 345 343 343 342 342 343 344 343 344 346 345 343 343 341 342 343 344 345 344 345 344 345 346 347 348 346 343 342 342 341

GFSSGP_850_thetae_114.txt.gz
Theta_e
334 341 347 350 357 356 355 354 345 343 341 339 339 340 348 348 348 350 338 340 345 347 344 336 334 332 331 333 336 338 336 335 336 339 340 340 339 337 336 339 337 329 339 339 339 332 337 338 337
342 345 348 353 360 360 357 350 344 342 341 339 342 344 347 350 344 341 340 342 346 346 347 347 336 332 336 335 331 330 334 335 335 337 341 342 340 339 335 338 324 326 332 327 337 337 336 332 338
345 348 353 355 354 358 357 351 343 342 340 344 348 348 349 346 340 340 340 343 346 347 349 338 333 332 330 331 335 334 335 337 336 339 341 342 339 339 336 338 334 331 335 340 338 336 337 336 336
348 350 350 357 355 354 353 352 344 342 343 349 348 350 346 344 341 342 342 344 346 347 348 335 331 329 328 327 328 329 330 336 335 336 342 341 339 340 337 339 340 340 340 340 338 336 333 336 332
351 350 354 357 356 353 351 348 344 344 345 349 349 349 345 344 343 342 344 344 346 347 347 345 335 342 339 330 336 334 328 331 337 338 340 341 340 340 334 339 340 340 339 338 337 335 332 330 329
348 350 356 355 354 353 352 350 346 346 347 348 346 345 347 345 343 343 344 345 346 346 349 346 335 337 339 335 336 338 332 336 336 335 340 340 339 336 337 338 339 340 339 338 338 338 333 331 328
352 353 355 353 354 354 353 351 347 348 348 348 344 345 346 346 345 344 344 345 345 345 347 347 345 341 340 334 334 337 338 335 336 337 340 341 340 335 332 335 336 340 339 340 340 338 336 332 331
352 352 356 353 354 356 351 350 348 348 349 345 344 346 348 347 346 346 346 346 344 344 347 348 347 348 346 346 339 337 339 336 337 339 341 341 339 338 331 333 337 339 340 339 339 340 338 336 331
350 356 356 355 355 354 349 349 348 348 347 345 345 343 345 346 345 345 345 344 343 343 344 348 345 345 348 349 341 339 338 338 337 339 340 342 342 345 347 339 339 340 341 342 342 342 341 336 331
351 354 353 350 350 351 348 347 346 347 348 346 344 345 345 344 343 342 341 342 343 344 345 346 344 345 347 348 343 345 346 346 343 346 343 347 346 346 347 335 338 339 341 342 341 342 344 344 342
348 353 350 351 350 348 347 348 346 347 349 346 346 345 344 343 341 338 340 343 344 346 345 345 345 346 347 343 346 346 345 344 344 342 347 347 348 346 345 343 344 342 344 345 346 347 345 344 343
350 349 348 349 349 345 347 346 348 347 346 345 344 344 343 342 339 338 342 344 345 345 345 345 345 347 349 345 345 342 341 342 343 345 346 347 347 345 344 343 344 345 345 342 346 345 340 344 346
349 348 349 348 346 346 346 348 347 347 345 344 343 342 341 340 338 339 341 343 345 345 345 346 346 347 346 347 344 342 342 341 343 345 346 346 344 345 346 347 346 346 347 345 346 345 344 344 345
341 346 349 347 346 347 347 346 347 346 344 343 342 340 340 339 338 339 342 343 344 345 345 347 346 346 345 345 345 344 343 343 343 344 342 345 345 347 347 346 346 347 347 347 346 345 344 343 344
342 347 350 348 348 347 345 346 349 344 343 341 340 341 341 341 340 340 341 342 344 345 346 347 346 345 346 345 344 343 343 343 344 344 342 342 346 343 347 348 348 346 347 348 346 344 342 340 341
343 345 352 351 347 347 345 353 348 343 340 340 341 341 343 342 341 341 341 342 344 346 347 346 343 346 347 348 346 343 344 344 344 344 345 341 340 340 345 348 347 347 347 345 344 344 343 343 343
343 346 351 355 348 347 348 352 347 345 340 340 341 342 344 345 344 342 342 343 345 348 349 348 347 347 347 344 345 346 341 345 345 345 346 341 339 339 347 347 346 344 347 345 345 347 347 345 345
340 340 352 356 351 349 353 351 347 346 345 342 342 343 345 346 346 344 344 345 345 348 350 349 349 348 347 347 344 347 348 347 345 345 345 339 345 339 346 347 346 346 347 345 347 348 347 347 347
335 337 352 352 351 352 351 349 350 347 346 344 343 344 345 345 347 346 346 346 347 348 349 350 350 342 348 348 347 347 347 348 348 347 347 337 342 340 342 348 344 347 348 347 350 348 347 345 345
338 338 352 352 352 351 352 352 350 348 345 345 345 344 345 345 345 348 347 347 348 350 349 350 350 345 345 347 349 349 348 348 348 349 346 349 345 340 344 348 348 347 348 350 350 346 345 345 346
345 344 349 351 351 349 350 355 354 348 346 345 344 345 345 345 346 348 348 348 348 350 351 350 350 347 344 349 348 346 348 348 348 348 348 347 348 348 344 342 348 342 348 348 350 348 346 345 348
336 336 346 352 351 354 351 353 355 352 351 347 345 345 345 344 344 346 348 348 348 349 351 351 350 349 344 345 350 345 347 347 348 348 349 349 349 349 347 347 342 342 348 349 346 348 348 348 346
333 335 343 346 346 349 350 346 351 353 354 349 347 344 343 343 342 345 346 348 348 349 350 350 350 349 350 346 344 345 348 348 349 349 348 349 345 348 348 348 341 341 347 346 347 344 345 348 348
329 336 340 341 344 343 345 348 355 356 354 352 347 346 343 342 341 344 344 347 350 349 349 350 349 342 347 343 344 343 349 347 345 349 344 349 347 348 346 349 345 341 349 345 345 342 343 349 347
333 339 341 341 342 343 341 342 346 347 347 349 348 346 346 342 341 342 345 348 350 349 349 349 351 346 343 346 349 349 347 348 346 346 349 347 349 349 348 346 343 347 341 344 347 341 349 346 351
332 337 338 342 343 342 344 344 346 344 344 345 347 347 347 345 342 342 345 348 350 350 351 350 352 349 348 346 346 342 342 345 346 348 350 350 348 347 341 345 345 348 343 343 342 349 348 349 348
331 335 335 337 338 341 344 345 346 347 347 346 347 348 347 347 344 344 345 348 350 350 351 351 352 351 350 350 345 343 342 342 344 347 343 350 352 350 349 349 349 348 344 344 345 348 343 351 345
327 333 336 336 340 342 344 343 350 352 350 348 348 348 347 346 346 345 346 348 350 349 352 347 352 346 350 350 345 349 346 341 342 343 344 345 349 349 350 349 349 349 346 345 342 350 346 345 350
326 328 330 332 334 339 341 343 350 353 351 350 348 346 346 346 345 347 348 350 351 351 350 350 352 352 346 349 346 349 350 348 340 345 343 345 345 343 344 345 350 349 347 345 345 346 350 346 350
326 326 328 332 335 335 340 354 349 350 350 348 349 348 346 346 346 348 350 351 351 348 346 345 345 351 351 351 351 348 347 350 349 349 349 344 344 344 345 345 344 346 346 347 345 349 349 350 350

GFSSGP_850_thetae_117.txt.gz
Theta_e
334 344 349 352 357 359 353 349 344 343 342 339 340 344 349 349 348 348 341 345 347 347 346 344 339 337 339 340 342 337 338 339 340 341 339 337 339 340 338 335 337 339 339 332 336 339 339 338 338
346 346 350 354 361 362 353 345 344 343 341 342 343 346 347 347 341 340 343 346 346 345 346 346 332 333 331 333 334 338 338 337 340 342 339 339 338 338 326 327 337 328 338 338 337 331 335 337 337
346 350 355 357 355 360 353 345 345 342 341 345 347 349 347 341 340 341 343 345 346 348 350 332 332 334 339 341 334 337 339 340 339 342 340 339 339 338 333 328 328 339 338 336 335 338 337 337 336
349 352 352 358 357 355 349 344 344 342 348 349 349 350 343 342 341 341 343 346 345 349 345 333 332 328 327 328 330 332 337 338 339 342 340 339 338 339 339 340 340 340 339 336 334 334 334 332 330
352 352 356 359 356 354 349 343 343 347 349 349 350 347 342 343 341 342 343 346 348 347 346 335 334 337 330 330 332 328 331 337 339 341 340 340 340 338 340 340 340 337 336 334 331 330 328 326 326
348 353 357 359 358 355 352 345 344 347 350 350 348 345 345 342 341 342 343 345 347 347 348 344 340 340 335 336 337 331 330 338 338 340 341 339 337 339 339 342 339 338 338 338 334 330 328 325 327
354 355 357 355 358 356 354 350 346 348 348 348 345 348 344 342 342 343 345 346 345 348 347 345 346 340 333 333 339 337 340 335 335 340 340 338 332 342 337 338 340 340 339 338 334 331 329 327 325
353 354 355 353 355 359 352 351 350 348 349 346 345 347 345 343 343 345 344 346 346 346 344 347 347 348 346 346 342 338 337 337 338 339 340 339 332 332 334 338 339 339 340 340 338 334 329 327 326
351 358 358 356 355 355 351 350 351 351 347 347 347 345 344 344 344 345 345 345 343 345 347 346 345 349 344 346 341 339 339 337 339 341 343 346 348 346 348 341 339 342 342 342 341 337 344 338 334
352 358 356 352 353 353 351 349 349 350 349 348 346 346 344 344 344 344 345 342 341 343 346 346 345 343 346 347 347 346 348 346 347 345 345 347 346 346 344 339 340 342 341 343 344 344 344 346 345
349 354 350 352 351 349 348 347 349 350 351 348 348 345 344 343 343 342 341 341 343 343 345 346 345 347 346 344 347 345 345 345 346 347 348 348 347 346 343 341 344 344 346 348 347 348 344 344 341
351 349 353 352 350 349 348 348 349 348 349 347 347 344 343 342 340 340 341 343 343 345 345 344 345 347 347 347 344 344 342 343 345 347 347 345 347 345 345 346 345 345 347 348 346 343 346 343 345
349 349 352 351 345 346 346 349 348 350 346 346 345 343 341 340 339 340 342 343 344 344 345 344 345 345 347 344 343 342 341 343 344 346 347 346 345 345 345 346 345 345 347 346 346 344 344 344 346
348 349 349 348 348 348 348 349 348 345 344 345 344 341 340 339 339 341 342 343 343 345 345 345 346 347 348 348 344 344 344 342 345 345 346 346 345 346 347 347 345 345 348 348 346 348 343 344 345
344 351 350 348 347 347 345 345 348 345 344 344 342 339 339 339 339 342 343 343 344 345 346 345 345 348 346 344 345 344 342 343 344 346 348 349 347 350 348 346 346 346 344 349 346 344 342 342 341
347 349 356 349 346 346 345 348 347 344 343 341 339 339 339 339 340 341 342 343 344 346 346 345 344 347 347 347 344 343 343 343 343 345 346 349 348 349 348 346 346 343 347 343 344 344 342 343 343
346 348 358 353 347 346 348 349 347 343 341 339 339 340 341 341 340 341 342 343 345 346 346 346 345 347 348 347 348 345 345 343 344 344 346 349 348 345 348 346 344 348 346 344 345 343 346 346 344
345 347 354 355 350 348 349 351 347 346 340 340 340 341 342 342 342 341 342 343 345 348 346 348 346 348 348 348 348 346 344 345 343 345 347 348 348 347 348 347 345 349 345 348 347 349 346 345 347
340 342 354 354 352 349 350 351 347 345 343 342 340 341 342 343 343 342 344 344 344 346 349 352 349 350 349 346 347 348 346 345 344 345 347 349 348 349 343 348 343 346 350 348 349 350 346 344 346
338 340 357 353 350 347 351 353 348 340 340 346 341 341 343 343 345 344 346 345 344 345 348 350 351 350 348 350 348 347 347 346 346 348 345 347 347 349 349 349 347 348 347 347 351 351 348 345 348
338 344 354 356 352 348 350 356 353 343 338 341 345 343 343 345 345 344 346 346 347 346 347 348 350 350 349 351 351 351 350 349 348 349 349 349 347 347 352 347 351 345 350 347 353 344 351 344 346
339 345 349 352 357 359 351 361 357 353 344 343 345 344 344 345 342 347 347 346 347 346 348 348 350 349 349 348 348 347 349 349 348 348 348 348 348 348 348 347 348 343 348 351 344 348 345 353 345
337 336 346 349 351 353 353 353 358 353 346 344 343 345 344 344 345 345 346 347 346 347 348 349 349 351 350 350 349 348 351 349 347 348 350 348 349 349 349 350 350 345 349 347 354 347 351 348 350
334 334 342 345 346 354 350 349 362 353 348 344 346 345 344 345 342 345 344 346 348 345 347 348 349 351 353 350 350 350 353 351 351 350 350 348 350 349 350 350 350 350 351 351 350 353 342 354 350
334 336 345 347 346 346 349 345 353 353 349 349 347 345 343 341 343 343 343 346 348 346 346 348 350 352 350 351 352 352 353 352 348 352 351 348 346 348 348 350 350 350 345 355 354 344 355 348 354
335 338 345 348 344 345 343 343 352 349 348 348 346 347 344 344 342 341 344 347 344 347 345 347 352 353 352 350 350 352 352 352 351 351 350 348 348 348 349 351 351 352 351 351 352 352 349 350 349
334 339 341 342 342 343 348 352 349 346 348 348 349 347 345 345 341 341 343 346 344 347 348 347 352 354 351 351 350 350 350 351 351 351 354 351 351 348 347 351 350 352 351 353 354 350 349 356 349
329 334 339 341 344 342 348 349 352 350 349 348 348 349 348 347 346 340 343 344 348 350 350 350 352 353 351 350 352 352 351 350 348 351 347 351 353 353 349 351 351 351 351 351 351 350 350 350 351
327 329 334 337 337 339 341 348 352 351 350 349 348 348 349 349 345 346 343 349 346 350 353 352 353 353 351 349 350 350 349 349 350 351 348 352 351 349 355 353 352 352 352 351 350 349 353 353 351
328 327 332 337 341 337 336 347 351 350 349 348 348 350 349 348 346 347 346 347 351 353 353 351 353 353 352 351 353 352 350 349 349 349 352 352 347 348 352 352 352 352 352 353 352 350 349 351 350

GFSSGP_850_thetae_123.txt.gz
Theta_e
340 346 346 349 357 355 356 341 338 348 347 344 343 345 345 345 344 349 348 346 339 340 340 340 338 337 338 337 338 339 337 336 333 337 337 333 336 337 338 334 335 339 340 334 334 335 339 342 344
345 345 347 351 358 358 352 342 343 350 347 342 342 342 344 346 346 347 347 342 340 341 342 341 340 339 336 338 337 340 339 336 338 337 335 336 338 332 331 335 334 331 330 334 334 330 339 340 342
346 347 349 351 354 357 350 343 343 349 344 342 342 343 346 346 347 346 346 343 342 335 333 333 333 336 335 336 337 340 339 338 338 335 323 328 327 335 334 333 336 338 337 334 332 332 327 340 341
346 352 350 353 356 355 351 342 347 343 341 341 342 344 346 346 347 347 345 345 344 334 336 339 340 335 334 336 335 339 340 338 336 337 333 333 332 336 338 336 332 334 331 328 328 328 331 340 340
348 352 354 356 352 350 352 345 348 348 343 342 342 344 348 346 346 346 346 346 345 333 333 330 329 328 329 332 333 338 341 338 338 337 338 339 338 338 334 332 330 329 325 324 325 326 337 341 341
350 351 356 357 351 348 348 350 349 348 343 343 343 345 348 346 346 346 346 345 342 334 331 332 332 335 329 327 333 336 339 339 338 336 338 338 336 336 334 332 329 328 325 324 326 326 338 340 340
351 352 355 354 350 350 354 349 349 344 342 343 342 342 346 347 346 347 346 345 345 341 336 334 334 338 331 328 334 334 339 338 336 333 337 338 338 336 336 331 328 326 325 324 324 330 343 342 342
352 351 355 353 351 354 353 350 347 343 344 342 341 342 347 348 347 346 345 346 343 342 337 336 331 334 335 336 334 333 338 338 332 333 334 335 338 338 338 336 328 328 328 328 331 334 339 341 341
352 352 357 355 354 352 351 352 348 346 343 342 342 342 348 348 346 346 345 344 345 346 345 345 340 342 338 335 334 333 338 337 330 330 334 337 338 339 340 335 340 341 343 343 343 339 337 336 337
350 352 356 351 352 354 352 352 350 347 347 342 342 345 347 346 344 344 346 344 342 347 346 344 344 343 338 336 335 336 339 343 342 348 345 343 338 340 341 342 343 345 347 347 346 346 346 343 338
351 354 352 353 351 350 351 351 352 349 348 343 342 344 346 345 346 347 346 345 344 345 346 345 345 343 342 341 341 343 339 341 343 343 343 346 338 340 341 344 346 340 343 342 345 345 341 343 340
352 351 353 352 350 349 351 349 351 349 347 343 341 342 346 345 341 343 347 346 347 346 345 346 342 343 345 343 341 339 342 345 343 342 342 341 339 342 346 341 343 343 345 341 345 344 340 346 343
352 353 352 349 348 348 348 350 350 350 345 343 342 343 345 345 343 345 346 345 342 342 345 342 341 346 346 346 345 344 341 345 343 344 344 344 347 344 343 344 341 336 346 343 345 344 345 344 345
349 350 349 349 347 348 350 350 348 350 346 344 343 342 342 344 343 344 345 345 344 344 344 343 344 344 345 344 346 346 344 346 343 345 344 343 346 340 343 341 340 344 345 342 344 345 343 342 345
349 351 348 348 348 349 347 350 349 348 345 344 342 342 340 339 343 346 346 345 345 344 342 342 342 345 342 342 342 342 345 342 339 343 347 345 345 346 343 341 343 343 341 340 341 343 345 342 345
351 351 353 348 348 346 347 352 346 346 345 343 341 341 340 340 343 343 345 345 345 344 342 343 342 344 342 342 342 343 344 341 342 344 348 346 344 345 343 343 346 347 348 345 344 343 343 343 345
351 353 354 350 347 347 349 349 347 346 344 342 340 340 339 342 343 344 345 345 344 344 345 345 342 339 343 341 343 343 346 345 342 341 345 347 344 342 341 345 345 348 346 346 346 345 345 343 345
352 352 353 354 348 347 348 348 346 346 344 341 340 340 340 342 342 344 345 345 344 344 347 347 343 341 340 345 345 346 345 343 343 343 340 342 339 346 340 342 346 345 342 346 345 347 347 346 345
343 350 354 352 348 348 348 347 345 344 346 341 340 340 340 341 342 344 344 345 345 343 346 345 345 343 342 346 345 344 345 346 346 345 342 340 341 343 342 342 344 347 346 343 342 346 347 343 349
347 351 353 351 348 347 348 348 347 345 344 345 340 339 340 341 341 344 346 346 344 344 344 347 345 344 341 346 343 345 345 346 346 346 344 343 341 342 345 340 331 345 341 344 345 350 350 346 345
347 352 350 352 348 345 346 348 347 344 343 344 343 342 341 341 341 344 347 345 346 344 344 343 344 344 342 341 340 343 344 346 346 347 345 345 339 346 348 347 347 345 343 342 348 348 350 346 350
347 349 348 350 347 351 346 354 349 346 344 342 341 344 343 341 341 344 345 347 346 344 344 343 347 342 343 339 343 343 342 343 345 347 344 344 342 347 347 345 347 344 345 345 344 348 349 350 350
349 340 350 349 348 348 348 352 350 346 347 345 340 344 344 342 343 343 346 348 347 345 346 342 344 343 344 345 343 344 345 345 343 347 346 345 344 343 345 344 345 346 337 341 347 348 344 350 350
344 347 347 347 346 350 348 350 353 347 347 345 340 342 345 343 344 344 343 347 346 345 346 346 343 344 343 348 347 346 347 348 347 346 349 347 345 344 346 347 342 339 344 340 347 348 342 347 347
345 343 347 349 351 348 344 346 347 346 344 344 339 340 345 344 344 344 344 344 346 349 347 347 344 341 343 344 346 343 348 349 349 346 348 347 345 345 344 348 347 340 344 348 343 342 339 342 343
331 339 343 352 353 354 346 352 348 346 348 345 339 340 343 345 344 345 346 345 347 347 347 346 346 339 342 345 346 346 346 347 342 345 348 348 349 345 346 343 345 340 339 344 343 342 340 341 339
327 336 335 341 348 348 352 350 351 350 349 346 343 341 345 346 344 344 344 343 348 347 348 348 347 338 339 344 344 346 348 345 345 346 349 349 349 348 347 348 347 345 342 340 348 343 343 344 343
328 330 332 329 348 354 351 352 353 353 347 344 342 342 344 344 344 344 345 342 347 349 349 348 347 340 333 341 347 346 347 350 350 348 349 348 349 349 348 348 347 342 347 349 346 347 347 350 347
326 327 328 326 332 340 347 349 350 348 347 344 343 343 342 344 345 344 344 346 347 349 350 349 348 345 339 334 344 346 344 346 349 349 347 350 348 348 352 351 348 344 349 350 349 344 348 350 349
325 325 326 327 329 332 340 345 348 346 337 337 340 343 344 345 345 345 346 346 345 347 351 349 348 347 342 342 346 344 341 343 343 345 348 344 349 349 350 350 350 346 348 346 347 344 345 350 349

GFSSGP_850_thetae_129.txt.gz
Theta_e
341 343 348 348 349 347 350 349 344 343 344 343 342 343 344 345 341 340 337 338 337 336 339 339 339 339 338 338 334 337 335 337 339 339 338 334 334 336 338 337 339 339 338 337 341 342 341 340 342
342 346 346 343 350 351 355 345 345 342 343 341 344 344 346 346 344 340 339 338 336 337 338 337 338 339 338 338 337 337 335 333 336 335 336 338 336 337 338 336 338 339 339 342 343 342 343 344 343
345 348 346 348 351 352 353 345 343 343 343 344 345 346 347 346 343 340 338 339 336 336 336 338 338 341 340 337 334 338 338 336 338 338 336 336 337 336 331 337 337 341 340 342 341 340 341 343 340
348 348 347 350 354 350 351 343 341 344 343 344 344 346 346 344 344 339 339 339 337 337 336 335 337 342 341 340 339 339 335 338 338 332 337 337 337 339 338 337 333 332 331 338 339 342 343 342 340
345 349 350 352 351 350 347 342 343 345 345 345 344 346 346 346 342 339 339 339 337 337 336 335 337 342 340 342 340 338 325 329 335 339 339 341 334 330 336 331 329 330 328 333 340 341 340 339 341
349 349 351 353 350 349 349 342 345 347 346 346 346 347 346 343 338 340 339 334 331 332 341 340 341 343 337 339 340 340 339 339 338 337 338 332 335 332 328 324 324 325 329 333 340 340 339 341 342
348 351 352 350 352 352 350 346 345 346 346 346 346 347 347 343 337 334 331 332 334 336 331 329 330 333 334 340 341 339 337 337 336 333 332 331 329 328 325 324 325 326 331 339 340 340 341 341 341
350 350 350 349 352 352 349 346 346 346 346 346 345 347 347 344 341 342 335 333 331 329 328 327 327 328 332 339 340 339 336 337 336 333 334 329 327 326 325 324 324 328 336 340 340 341 342 341 341
345 352 351 349 350 349 347 345 344 343 346 345 345 346 344 345 344 342 334 332 333 332 334 333 329 328 332 336 340 339 335 336 336 336 337 332 328 329 329 330 332 338 341 341 340 340 341 341 342
344 349 350 346 346 347 349 348 343 346 345 346 346 346 345 346 344 341 341 337 336 333 330 334 332 331 333 334 338 336 333 333 334 337 338 333 338 343 344 341 338 337 337 338 338 338 338 338 339
348 353 347 346 344 347 348 345 342 344 348 346 346 346 347 345 344 343 340 340 340 334 338 337 335 335 331 335 337 331 331 332 337 338 338 340 341 342 343 343 342 345 345 344 343 343 339 337 338
352 352 347 350 343 346 350 347 342 342 346 345 346 346 346 345 344 342 341 343 342 341 341 338 335 334 333 336 336 329 339 339 338 339 340 342 342 341 339 343 342 342 341 341 343 345 343 341 339
351 350 348 350 347 347 349 348 346 345 344 346 346 346 346 345 344 342 343 343 343 340 341 339 338 335 335 337 341 342 344 343 341 338 339 339 341 337 339 340 341 343 344 344 344 345 344 342 341
351 349 347 348 349 349 350 348 348 343 344 347 347 347 346 346 343 342 343 343 343 341 341 340 342 341 340 340 339 341 341 342 339 338 340 339 342 340 340 341 341 341 343 344 344 343 344 344 342
347 349 348 346 347 349 348 351 349 346 344 346 346 347 346 345 344 343 342 342 343 343 341 341 343 344 341 339 340 343 341 341 343 343 344 343 340 340 339 341 339 341 342 343 344 343 343 345 344
349 348 350 346 347 346 345 348 347 347 346 346 345 346 345 345 345 344 343 341 343 343 341 343 343 344 343 344 340 341 343 344 344 343 342 343 342 341 339 342 342 342 341 342 342 342 343 344 344
342 351 351 350 347 347 348 347 346 345 344 345 345 344 344 343 345 345 343 341 343 342 342 344 344 341 341 343 341 342 342 340 342 342 343 340 343 342 343 343 344 344 345 345 344 343 342 343 345
342 348 350 351 347 346 346 348 346 346 346 341 343 344 344 344 343 344 343 342 342 341 341 344 344 341 340 341 341 343 340 341 339 342 343 342 344 341 342 343 345 344 346 346 346 346 344 344 344
336 345 349 350 347 346 347 347 345 346 345 341 339 343 345 344 343 344 344 343 342 341 342 342 344 341 343 340 342 344 343 341 341 341 344 344 343 339 341 344 344 344 345 344 346 343 344 345 347
324 337 349 347 345 346 346 348 347 345 344 342 338 343 344 344 344 344 344 344 342 342 340 340 341 341 343 342 342 342 343 342 342 340 341 341 341 341 341 344 342 345 344 343 347 344 344 345 346
331 346 348 348 341 344 347 346 348 345 343 343 341 342 344 344 345 345 344 344 343 343 344 339 338 341 341 341 343 342 343 344 345 343 343 339 340 341 341 343 343 344 341 346 348 348 347 346 346
330 345 341 341 344 351 345 347 345 346 344 341 342 341 343 345 345 345 344 344 343 343 344 342 340 340 341 344 344 342 342 343 344 344 343 343 340 343 340 341 338 342 339 346 346 348 349 347 345
342 343 342 344 348 348 349 348 344 345 346 342 341 342 340 344 344 344 344 343 343 343 343 343 342 342 340 340 344 344 342 342 341 345 345 342 342 343 341 340 343 344 344 346 344 345 349 348 347
342 341 345 344 345 349 345 349 349 347 344 342 339 341 341 341 344 344 344 344 344 343 344 344 344 343 344 342 343 344 343 343 339 343 344 341 342 343 345 343 343 344 344 343 344 345 344 347 347
332 332 343 343 348 349 345 349 346 343 340 341 339 340 341 340 343 345 345 344 344 344 343 343 343 343 343 339 340 340 342 343 342 342 344 343 344 343 342 342 343 342 343 339 344 343 344 343 345
334 333 340 346 347 349 345 350 344 339 340 340 342 339 340 341 342 343 344 343 344 345 343 342 343 344 342 340 340 341 341 343 342 343 342 345 342 345 344 344 344 344 341 340 346 342 343 341 341
337 337 334 343 343 347 347 344 342 341 342 342 340 340 340 341 341 343 343 342 344 344 344 343 342 342 342 342 344 342 343 344 345 344 345 345 346 346 345 344 345 344 344 339 338 343 342 342 341
330 329 336 334 346 346 348 342 341 346 350 344 342 339 340 342 341 341 342 342 344 344 344 344 342 341 339 341 344 344 343 344 344 345 344 345 344 346 346 344 344 344 345 345 341 340 342 341 342
321 323 322 327 334 343 349 345 338 340 347 345 341 340 340 342 342 341 341 342 343 344 345 344 344 344 341 341 341 343 342 342 344 345 343 344 345 345 348 345 346 346 347 344 342 339 341 342 346
321 322 320 323 326 333 339 333 343 343 343 342 340 339 340 343 343 343 342 343 344 344 345 344 345 345 345 338 341 343 343 344 346 344 345 344 347 346 348 347 348 348 347 342 346 345 346 345 344

GFSSGP_850_thetae_132.txt.gz
Theta_e
342 343 345 348 348 344 348 348 342 342 342 342 341 342 344 345 341 336 337 338 338 337 337 339 339 339 339 337 335 334 336 331 332 337 335 335 335 337 338 339 340 339 338 339 340 339 339 341 341
344 348 345 344 349 350 351 344 343 341 341 341 344 344 345 346 342 338 338 338 337 338 338 338 339 339 337 337 337 334 338 337 336 335 337 335 337 336 337 338 339 340 342 343 342 343 343 342 341
342 348 346 347 350 351 349 344 344 341 341 345 346 346 347 345 339 337 335 335 337 336 337 338 340 338 335 335 336 334 337 337 336 336 336 337 336 336 338 338 338 341 342 341 340 342 342 340 341
348 348 346 351 353 350 350 343 343 343 344 344 344 346 345 342 338 337 336 334 335 335 336 338 340 339 335 334 337 337 335 338 337 335 336 335 339 339 336 337 339 340 338 339 341 341 339 335 334
347 348 347 350 351 349 348 342 343 345 345 344 345 346 345 344 339 337 336 335 334 335 339 339 341 340 338 337 337 334 337 334 332 336 337 333 331 334 337 337 332 330 337 339 340 339 339 339 331
349 349 350 353 351 349 348 344 346 346 346 345 345 345 346 345 337 337 338 337 338 335 340 339 342 343 339 339 337 324 332 337 337 339 337 340 336 339 331 327 328 331 339 338 338 341 340 339 338
349 349 351 351 352 350 350 346 346 345 345 345 344 344 346 342 338 338 338 337 335 338 338 341 341 340 342 339 338 337 338 337 338 336 334 336 333 326 325 325 326 331 339 339 340 340 340 340 339
350 347 349 349 352 351 345 345 346 345 346 344 341 343 345 340 339 339 336 332 335 339 334 331 336 339 343 339 336 336 337 338 334 332 334 328 327 326 324 326 327 337 340 340 341 341 341 341 341
340 351 351 349 350 350 347 346 344 345 345 345 346 342 339 338 335 333 334 335 336 331 328 328 329 331 338 339 337 333 336 335 335 335 329 327 327 328 330 333 337 340 340 341 341 341 341 339 338
344 350 350 346 346 348 346 348 346 345 346 346 344 343 339 337 340 336 335 332 330 331 335 332 328 332 335 342 338 334 335 337 337 336 330 336 337 337 335 337 339 340 339 339 338 338 338 337 337
342 350 347 346 346 344 346 347 344 346 347 345 344 344 343 343 343 337 333 333 332 332 333 332 329 333 333 338 336 332 334 336 337 334 337 343 344 344 341 342 342 341 341 341 342 339 337 337 337
349 349 345 347 346 347 348 347 344 344 346 342 343 343 344 344 340 339 338 336 333 332 336 335 335 334 333 337 333 332 332 336 338 338 341 341 341 339 341 342 342 342 342 342 344 343 341 339 337
347 349 347 349 345 346 347 347 346 344 344 344 344 345 345 343 342 342 339 339 336 339 337 335 334 331 333 337 329 332 339 337 338 338 341 340 338 340 340 341 342 341 343 343 344 343 342 341 340
350 347 347 347 346 346 346 347 344 343 345 346 345 346 345 343 343 341 342 341 340 340 337 335 334 334 335 336 337 344 341 338 339 339 339 341 338 340 339 341 341 342 343 343 342 343 343 342 341
347 349 347 345 346 348 348 351 348 345 345 346 346 346 345 344 343 341 342 342 340 340 340 338 339 339 338 338 339 341 341 340 336 339 340 340 339 341 342 340 340 342 342 343 343 343 343 341 340
348 346 349 346 347 346 346 354 347 347 346 346 346 346 345 345 344 341 343 342 342 341 341 341 343 341 339 338 340 341 340 340 340 342 343 342 340 341 341 340 340 341 341 341 342 342 343 342 341
339 349 350 349 346 346 346 347 346 346 346 346 346 345 345 345 344 342 342 342 342 342 341 342 343 343 343 344 341 342 342 342 341 341 342 342 340 340 342 343 343 345 344 343 344 342 343 344 345
340 346 349 350 348 346 347 345 346 345 346 346 345 346 345 345 343 343 343 341 342 342 342 343 342 342 341 342 340 342 342 340 341 342 343 342 343 342 342 343 344 345 346 345 346 343 343 343 345
337 344 349 349 345 347 347 348 347 345 346 345 345 344 344 344 343 344 344 342 342 343 342 344 343 341 340 340 341 342 341 340 339 341 343 341 340 341 342 343 342 345 345 345 344 344 344 344 346
324 341 348 345 343 344 347 348 346 345 345 343 344 344 344 344 343 343 344 343 342 342 343 344 343 341 340 340 341 340 341 340 340 340 341 341 342 340 338 344 343 343 344 346 345 343 344 346 346
331 340 347 345 343 340 345 344 348 346 344 343 338 344 344 344 344 343 344 343 342 341 342 342 344 343 341 341 340 341 343 341 342 341 341 339 341 342 340 344 342 343 342 346 347 345 345 345 345
335 341 341 343 341 343 344 349 344 347 345 342 341 342 343 344 344 343 343 343 342 341 341 342 343 343 341 342 340 339 342 342 343 342 344 341 340 341 340 341 342 343 340 345 347 347 347 345 345
330 340 340 342 346 346 346 348 342 346 348 345 341 340 342 343 343 343 343 343 343 342 341 340 340 343 342 340 340 342 341 338 342 343 343 343 341 339 339 340 341 342 341 345 344 346 348 348 347
341 342 340 339 344 347 344 345 343 347 347 345 341 341 341 343 344 343 344 344 343 342 343 344 339 340 341 341 343 343 341 340 341 342 343 343 341 340 342 342 341 342 342 344 344 344 344 346 346
332 331 337 338 344 348 342 348 346 340 342 344 342 341 341 342 344 344 344 344 344 343 343 344 342 341 341 339 340 342 344 343 341 340 341 343 342 340 345 343 342 342 342 342 342 343 344 341 345
332 326 332 341 345 344 345 347 342 338 339 341 342 342 341 340 341 343 344 343 343 343 343 343 343 343 343 343 343 341 342 343 342 342 341 343 343 343 343 342 342 343 344 341 339 342 340 341 340
335 336 332 341 342 345 345 342 339 337 337 339 340 340 340 341 341 342 343 343 343 343 343 343 342 343 343 343 340 340 340 340 340 341 342 342 343 343 344 345 344 345 345 344 340 342 342 339 340
331 329 337 335 347 347 345 343 344 341 342 339 339 339 340 341 341 341 342 342 342 342 343 343 342 342 342 344 341 341 340 341 341 343 343 342 343 345 346 344 343 344 344 344 343 338 339 340 340
320 324 323 330 334 342 346 343 339 337 344 345 344 342 339 340 341 341 341 341 342 341 343 343 343 342 340 343 342 342 344 342 344 345 345 344 344 343 344 343 344 344 344 345 345 345 342 341 342
320 322 318 324 325 334 339 330 339 341 342 344 341 340 341 340 340 342 341 341 342 341 343 344 343 343 342 340 339 341 345 344 344 343 345 344 344 344 345 345 344 345 346 345 344 342 342 344 345

GFSSGP_850_thetae_138.txt.gz
Theta_e
347 350 346 349 358 350 348 347 344 345 345 342 342 342 345 345 345 350 343 343 344 345 345 342 338 335 337 339 338 336 335 335 336 336 337 338 339 338 337 335 337 338 338 339 341 342 343 341 336
348 347 349 343 356 351 351 346 346 344 343 343 344 344 344 347 344 344 345 344 344 346 346 347 337 334 333 336 331 331 335 334 335 336 336 337 337 339 340 342 342 341 341 342 342 341 342 342 342
345 346 347 354 352 352 351 346 344 343 343 347 348 347 347 344 344 346 344 344 346 347 347 339 334 335 334 332 335 335 335 336 336 338 339 338 338 338 341 340 339 340 342 340 340 341 340 340 342
348 352 349 354 353 352 349 346 343 344 346 347 346 347 344 344 345 345 344 345 346 347 348 339 334 335 333 333 334 335 335 335 338 337 338 337 338 339 341 338 339 340 339 338 334 337 340 342 339
351 351 352 354 353 349 346 344 343 346 346 347 346 345 344 346 345 344 345 345 346 348 347 346 339 336 335 333 335 336 336 337 336 337 338 337 338 336 336 336 339 340 337 336 335 329 327 331 334
353 350 351 354 354 350 347 345 345 346 348 346 344 343 347 345 345 344 344 344 344 348 348 345 337 337 338 335 336 332 336 339 336 334 339 339 337 329 328 337 338 339 338 338 337 337 334 328 326
352 353 354 351 353 353 351 347 347 348 347 346 343 345 346 344 344 344 344 344 346 346 349 349 346 340 329 328 333 336 338 336 338 339 338 336 325 326 329 337 338 339 339 341 340 339 337 332 326
353 350 352 351 353 352 349 347 346 347 348 344 343 345 345 344 344 344 344 344 345 346 347 350 351 346 347 344 339 339 337 335 336 336 332 326 326 326 331 338 340 340 341 341 340 338 338 337 331
347 354 354 349 350 350 348 348 348 347 346 344 345 343 343 345 345 344 345 345 346 345 345 345 348 349 345 348 340 337 333 336 336 332 331 343 343 345 346 342 340 341 339 339 338 339 340 334 328
349 355 352 347 346 348 348 348 347 346 346 347 343 343 345 345 345 344 345 346 346 344 343 344 343 347 346 347 347 340 343 345 343 343 346 345 345 345 345 340 339 337 337 339 340 340 344 345 344
344 352 349 347 343 344 348 347 346 345 346 345 345 345 344 344 344 344 343 344 345 343 340 342 344 348 349 347 339 343 344 342 342 344 345 346 346 346 345 345 346 349 348 347 348 348 345 345 342
345 348 347 346 344 345 347 347 347 343 344 344 344 344 343 343 343 342 341 344 344 342 342 342 344 348 347 346 345 345 344 342 345 348 345 347 346 348 347 347 348 349 349 349 348 346 348 347 344
342 348 348 348 346 346 345 348 348 345 344 341 341 341 342 343 342 342 342 342 342 343 344 343 345 346 346 346 345 345 344 342 346 348 347 347 347 347 347 345 349 350 348 347 347 345 343 343 342
347 348 349 347 347 345 346 347 346 346 342 341 341 343 345 345 344 343 341 341 342 343 343 343 345 346 347 346 345 345 345 345 346 347 344 340 347 347 347 348 349 349 348 347 347 345 345 345 345
348 350 350 348 349 348 343 345 346 346 344 344 343 344 345 346 344 344 343 343 342 343 344 345 345 345 347 344 343 347 346 345 346 345 339 339 344 341 346 349 349 349 349 345 345 346 346 345 344
347 348 352 349 348 347 345 349 345 347 346 345 344 344 345 346 345 346 345 344 343 344 345 345 342 344 345 345 347 346 345 346 346 346 347 342 340 341 345 349 349 344 350 349 346 344 345 346 346
347 348 350 352 348 347 345 348 344 346 346 344 345 345 345 346 346 346 345 346 346 345 346 345 344 344 345 346 348 348 346 346 346 348 347 339 340 340 347 348 347 350 352 350 347 346 345 347 347
345 347 349 355 348 347 345 348 344 344 344 344 345 345 345 345 346 346 345 345 346 346 347 347 346 345 346 346 347 347 346 345 346 348 347 340 344 341 348 347 348 352 352 351 349 347 348 348 350
342 342 346 349 347 345 345 346 346 344 345 344 344 345 345 345 345 346 346 346 346 347 347 347 347 345 344 346 347 346 345 346 347 348 341 341 342 342 343 348 349 351 353 348 346 347 348 349 346
340 341 346 343 341 343 346 347 347 345 344 343 345 346 346 345 345 347 346 346 346 347 347 347 346 343 343 347 348 347 348 345 346 348 343 346 341 342 344 344 349 348 352 346 345 351 351 349 345
334 336 342 342 344 341 341 349 348 345 344 344 344 344 345 345 345 346 347 347 347 347 348 347 347 346 342 348 348 348 348 347 345 348 347 345 340 344 340 343 346 345 351 353 353 353 348 349 346
334 332 338 340 343 340 341 348 343 348 346 346 345 346 345 345 344 345 346 347 347 347 348 347 349 344 341 341 347 348 345 345 345 347 347 348 341 345 348 342 343 342 350 348 352 352 350 350 352
333 335 339 339 342 341 344 345 348 348 351 348 346 347 345 345 344 345 346 346 346 348 348 347 349 342 346 340 347 343 345 346 346 347 349 348 343 340 347 348 345 342 349 345 345 349 348 352 352
335 338 340 342 342 342 342 344 344 351 348 348 346 345 346 344 342 343 344 346 347 347 347 347 349 346 344 341 343 343 345 347 345 346 347 347 346 347 343 348 343 341 345 345 347 345 347 349 350
335 339 342 342 342 341 341 346 341 341 345 346 345 345 345 345 342 342 345 346 347 347 347 347 349 349 347 344 346 343 345 346 345 346 347 347 346 346 348 344 342 346 340 338 342 344 347 350 350
332 334 334 336 337 340 341 345 342 340 340 343 343 345 345 345 342 342 344 346 347 347 348 347 349 349 349 347 346 340 344 344 344 344 345 346 346 346 346 349 350 349 346 345 342 347 347 351 349
333 336 332 335 337 338 338 339 339 338 341 342 342 345 344 344 343 343 344 346 347 348 348 348 349 349 347 347 342 344 342 342 348 348 348 347 348 347 348 349 349 349 349 348 349 347 351 349 347
337 335 335 333 343 339 341 341 339 339 343 341 342 342 345 345 343 342 345 346 346 347 348 349 349 350 350 348 345 345 347 342 344 342 343 348 348 349 350 350 350 350 350 349 346 349 349 348 349
334 337 336 338 342 341 339 338 343 343 347 344 340 342 345 345 344 343 344 345 347 347 348 349 350 351 351 350 349 348 348 348 343 347 347 348 345 342 343 345 345 350 350 350 347 344 350 352 351
331 333 335 335 336 335 335 335 345 347 345 344 339 339 342 343 345 344 343 345 346 348 349 349 350 350 350 350 350 349 349 348 346 342 347 347 348 343 345 342 343 347 345 350 349 350 349 351 352

GFSSGP_850_thetae_141.txt.gz
Theta_e
350 353 350 352 360 359 346 346 345 345 345 343 344 343 346 346 347 351 344 343 345 345 343 339 337 339 338 337 334 335 336 336 337 338 338 338 337 336 335 337 338 339 340 342 343 342 339 331 335
350 349 350 348 362 352 349 344 345 345 344 344 343 345 345 347 344 344 344 344 346 347 346 345 336 337 339 334 337 337 336 337 337 337 337 339 339 340 341 340 340 341 341 341 342 343 342 342 342
347 345 351 355 355 358 349 345 345 344 346 346 347 346 345 345 345 345 344 346 347 347 347 339 335 337 336 334 337 337 336 338 338 337 338 338 341 342 341 341 342 340 340 341 340 339 340 341 341
349 352 348 355 356 351 347 345 345 346 348 347 347 346 345 345 345 344 345 347 346 346 345 337 337 338 338 337 336 337 338 337 337 337 339 339 341 338 339 340 339 338 335 335 339 339 340 342 341
351 351 352 354 353 348 346 345 345 347 347 347 346 346 346 345 344 344 345 347 348 345 344 344 337 336 338 337 337 336 336 336 338 338 338 339 340 338 339 340 339 335 334 330 328 330 337 335 336
352 352 354 357 355 349 347 345 346 348 348 347 345 345 346 345 345 344 345 347 347 347 345 345 336 339 338 338 335 336 338 332 334 338 338 333 331 336 338 339 334 337 336 336 332 328 327 327 329
353 355 355 353 355 354 350 347 348 347 345 345 345 347 345 344 344 343 343 346 348 348 346 346 346 335 335 331 334 338 336 338 337 337 328 325 328 334 337 339 337 339 338 337 337 334 328 325 325
354 353 353 352 355 356 349 348 348 346 347 343 345 347 345 344 343 343 342 345 346 347 347 347 350 344 344 345 338 335 333 335 336 327 330 325 330 335 338 337 339 340 339 338 338 336 328 324 324
350 357 357 351 352 354 350 350 348 347 346 344 345 344 343 343 343 343 343 344 344 346 349 346 347 349 346 341 339 335 337 335 329 342 344 345 346 347 346 341 340 339 338 339 338 332 328 325 325
351 357 353 347 347 350 349 348 346 346 344 345 345 343 344 344 343 343 344 343 343 342 345 347 347 345 347 345 347 346 349 345 344 345 346 345 347 346 344 338 338 339 343 341 337 343 345 349 345
349 353 350 348 345 347 348 347 346 345 346 344 343 345 345 344 343 343 344 343 344 343 341 341 348 344 348 346 347 346 342 343 346 350 347 347 346 347 343 344 345 341 349 349 348 349 348 345 343
350 349 349 347 345 343 348 347 344 343 345 343 344 345 344 343 343 342 343 344 344 341 341 342 345 348 348 338 347 345 341 342 347 348 347 347 344 346 348 344 340 345 345 348 346 347 348 345 342
349 349 348 346 344 346 346 349 346 345 342 344 344 344 343 342 342 341 342 344 343 342 342 343 345 344 348 348 345 346 341 345 342 345 347 342 345 347 344 348 344 347 346 346 346 346 345 342 342
347 349 348 348 348 345 347 347 348 344 341 343 343 342 342 342 342 341 342 343 344 342 342 344 344 349 347 348 347 344 343 344 346 343 344 344 345 349 347 346 348 348 346 347 346 346 346 344 344
347 348 349 349 348 346 343 345 347 345 341 341 341 342 344 344 343 343 342 342 343 342 343 344 345 345 347 346 345 346 342 345 345 344 348 349 349 346 348 349 348 347 344 346 347 346 346 345 345
345 347 354 352 349 347 344 347 344 346 343 341 342 343 345 346 344 344 342 343 343 343 343 344 344 344 346 344 346 346 345 345 346 345 345 349 341 348 350 348 349 347 349 346 346 345 345 345 345
342 351 354 355 349 346 345 348 343 346 347 343 343 344 343 344 345 345 345 344 343 345 345 344 344 344 345 346 348 347 346 346 345 346 347 349 347 345 348 349 347 354 349 346 345 344 346 347 345
346 347 350 356 350 346 346 345 344 343 346 346 343 342 343 344 346 344 345 346 344 345 346 345 344 346 346 347 347 348 344 346 346 347 347 349 349 349 349 348 351 354 347 347 346 348 349 348 348
342 345 349 350 348 348 345 346 345 344 344 344 345 345 343 344 345 344 344 347 345 346 346 346 345 347 347 347 348 346 344 346 346 348 349 348 350 349 348 349 349 351 354 351 348 347 349 348 349
336 342 345 344 347 347 349 349 345 342 343 344 345 345 344 344 345 345 345 345 346 345 347 346 348 348 348 347 346 345 345 345 347 349 349 350 349 349 346 349 349 343 346 354 354 355 351 347 347
333 337 342 344 343 343 345 351 348 344 342 339 342 344 345 345 345 345 345 345 345 346 346 347 350 349 348 346 347 347 347 347 347 349 349 349 349 348 352 346 350 346 352 353 357 355 352 351 348
333 333 334 338 342 350 342 349 351 349 347 344 342 343 346 348 345 346 345 345 346 346 346 349 350 350 346 347 346 348 348 347 345 347 347 350 349 350 350 352 351 348 354 349 352 350 354 351 352
334 336 336 339 339 343 344 342 348 350 350 347 344 343 345 344 344 344 344 346 345 347 347 347 349 350 349 348 348 348 346 346 346 347 349 350 349 351 350 351 352 345 353 349 353 356 352 353 354
330 334 337 338 340 343 341 340 351 355 351 347 345 345 344 344 343 344 343 346 345 346 347 347 350 350 350 349 348 350 346 347 345 348 350 348 350 349 350 351 352 351 351 350 354 355 352 353 352
328 334 339 341 341 341 342 338 343 344 345 347 346 346 345 346 344 345 344 347 346 347 348 347 350 349 351 349 348 349 350 351 348 349 347 346 347 346 348 349 352 350 343 353 353 351 355 353 355
330 333 337 345 342 344 341 342 343 339 342 344 343 344 345 343 344 344 343 345 346 347 347 347 351 351 349 350 349 349 349 347 348 349 347 346 346 346 348 352 350 350 351 351 351 350 350 352 351
333 332 332 334 338 343 342 340 340 339 343 345 344 344 344 344 344 342 342 340 345 346 348 348 351 352 352 350 350 349 349 348 348 346 343 348 348 348 348 348 349 350 351 352 353 350 350 350 353
332 336 334 333 342 344 343 340 344 341 344 343 340 341 345 346 345 341 343 344 346 347 347 348 350 352 352 351 350 350 350 348 347 351 351 348 348 346 350 351 348 349 351 352 352 349 349 349 349
332 331 336 336 341 348 349 345 340 341 344 343 340 340 341 347 344 343 342 344 346 347 348 348 350 352 352 351 351 351 351 350 349 349 348 347 350 353 350 351 352 352 352 352 349 349 348 355 352
333 334 336 335 343 338 343 344 345 345 345 343 340 341 345 347 344 342 343 344 344 347 348 349 350 351 352 351 351 351 351 351 350 350 351 351 350 352 351 350 351 351 352 353 354 352 351 352 351

GFSSGP_850_thetae_144.txt.gz
Theta_e
351 353 353 352 359 361 350 348 343 344 343 343 344 344 347 346 346 351 343 346 345 343 336 336 334 333 332 333 333 334 337 338 338 337 336 336 337 336 336 335 336 338 340 340 341 330 326 334 340
349 350 349 353 358 357 350 347 347 344 342 347 345 344 345 346 344 345 346 346 346 346 342 337 337 335 336 336 337 337 337 337 338 339 338 337 338 339 339 339 341 342 343 343 339 336 336 338 339
349 344 352 355 351 356 350 346 344 347 345 345 344 344 343 344 344 346 346 343 341 346 337 335 337 333 335 336 336 337 337 337 338 339 342 342 342 342 343 341 341 340 340 341 341 341 341 338 339
349 350 348 348 349 349 345 345 345 345 346 346 343 345 346 345 344 347 347 346 346 346 334 334 334 334 336 336 336 337 336 337 338 339 340 338 340 341 339 337 336 338 339 338 340 340 341 341 338
351 351 351 347 346 348 345 345 347 348 347 345 344 345 345 344 344 347 347 346 345 346 340 334 335 334 336 337 336 335 336 337 336 338 340 338 340 340 339 334 332 328 327 335 336 337 337 338 338
348 351 354 354 354 348 347 346 348 349 346 345 345 345 344 344 346 346 347 344 345 346 344 334 333 336 336 335 335 335 331 332 335 336 332 335 338 339 337 334 332 332 330 326 326 329 331 334 335
354 354 355 355 357 354 349 348 348 347 345 346 345 345 344 344 346 347 347 347 344 346 346 341 340 336 333 334 337 333 332 334 333 326 327 329 336 338 335 338 338 337 333 329 326 325 325 326 327
350 348 354 353 356 357 349 349 348 347 345 346 345 344 345 343 344 346 347 344 336 347 347 348 334 333 337 337 332 333 334 326 326 325 327 330 335 337 336 338 337 336 334 328 325 324 324 324 327
343 353 354 353 354 354 348 348 349 340 344 345 345 344 343 342 343 346 346 345 349 347 349 347 347 348 340 335 334 332 327 342 344 342 343 343 338 338 341 339 337 337 332 327 326 325 324 331 337
351 354 354 348 349 353 350 348 344 344 342 345 344 344 342 343 342 345 342 343 345 348 348 350 347 348 345 344 345 344 337 345 346 346 345 347 346 339 338 337 340 337 333 342 344 345 343 345 344
348 356 350 347 347 348 349 349 346 343 343 343 344 344 343 343 342 344 343 342 343 346 348 336 347 341 344 344 347 343 343 341 343 345 342 341 344 338 340 342 345 348 345 348 348 348 348 345 349
349 349 350 348 346 344 349 349 346 346 344 344 344 343 344 343 342 344 345 343 340 342 346 345 347 335 339 346 348 343 344 343 347 345 345 345 347 345 346 336 336 347 348 350 352 350 347 343 340
349 349 348 348 344 345 346 348 349 345 342 344 345 344 343 343 342 343 345 344 341 340 344 346 345 336 342 348 345 343 342 339 342 339 334 340 347 338 340 342 344 346 347 345 345 346 343 342 342
344 348 347 346 345 347 347 347 347 343 343 344 343 343 343 342 342 342 345 344 341 341 342 344 344 346 349 348 344 341 345 341 348 341 342 346 347 345 344 339 334 345 347 343 344 344 344 344 343
346 351 349 350 348 347 342 346 348 347 347 342 343 343 342 342 342 342 344 344 342 343 342 344 347 342 348 345 343 347 343 344 342 342 344 350 345 337 333 345 347 344 348 348 347 346 345 345 345
346 350 356 351 350 345 345 349 345 344 346 343 342 342 343 343 343 344 343 343 343 344 343 343 345 348 346 339 344 346 345 344 347 346 344 344 349 339 345 346 347 349 348 344 346 346 344 345 345
344 349 353 345 349 347 345 347 340 341 344 346 343 344 346 341 345 343 342 343 343 344 345 344 345 346 344 347 348 349 343 345 346 346 347 340 340 349 345 349 349 346 349 344 345 345 346 346 345
346 351 351 351 351 348 347 346 342 338 343 345 344 343 344 345 346 344 344 344 344 346 344 345 344 346 343 342 346 346 347 343 348 342 343 347 345 350 338 346 347 347 348 346 346 347 346 348 347
344 346 348 347 348 345 343 345 342 339 341 344 345 347 345 344 343 345 346 345 345 345 345 344 345 345 344 341 347 344 345 348 347 347 349 349 345 347 351 348 334 345 349 348 345 346 347 348 349
344 348 349 348 347 349 348 349 344 343 342 343 343 345 347 345 345 344 347 346 347 344 344 344 345 346 345 347 346 347 343 346 348 348 348 351 347 342 350 346 332 337 349 353 350 354 352 347 347
336 343 346 345 344 344 350 352 349 344 343 343 342 343 345 344 346 345 347 347 348 346 344 345 346 346 346 347 347 347 345 348 344 349 345 350 349 349 353 347 336 337 347 346 355 355 355 349 346
332 338 338 340 339 350 343 353 351 346 345 343 340 340 343 344 344 343 345 344 348 348 346 344 345 344 343 346 347 345 345 346 348 346 347 347 349 351 350 352 347 331 340 346 351 355 354 353 354
332 336 336 336 338 338 342 345 354 346 346 346 341 338 342 342 344 345 345 346 348 347 346 347 346 345 342 347 344 346 346 347 346 347 347 351 348 350 351 351 351 347 350 352 337 341 351 352 354
331 332 334 337 337 338 339 344 359 351 350 347 343 341 342 341 343 347 344 345 347 347 348 349 348 345 346 342 347 347 343 348 347 347 346 349 349 342 345 351 351 354 338 346 354 344 347 347 345
328 329 332 338 343 346 342 341 351 350 350 347 346 345 342 342 344 346 346 346 347 348 347 348 349 346 344 346 346 345 346 347 349 348 346 346 347 348 349 346 348 350 347 350 349 352 348 345 343
330 328 331 347 347 346 339 345 345 340 346 345 345 343 341 343 343 345 345 346 348 349 347 349 349 346 343 346 344 344 348 345 349 349 347 348 349 348 349 348 347 345 354 351 351 346 351 351 354
333 332 333 334 340 339 343 343 342 342 347 345 343 344 344 345 345 346 344 345 340 348 348 347 347 347 343 347 348 343 343 348 347 348 343 346 348 347 348 348 347 351 352 352 351 351 348 350 351
330 334 336 336 345 346 348 345 346 349 349 347 345 344 345 345 345 344 344 345 346 349 350 349 349 350 347 348 347 345 346 339 345 349 344 344 347 350 345 350 350 347 345 347 347 348 350 350 349
331 332 332 335 337 343 347 350 342 344 344 348 342 341 341 345 345 345 343 345 343 341 349 349 350 351 349 350 351 348 347 343 344 345 345 344 344 348 348 351 351 350 351 353 350 346 347 348 350
331 331 330 334 347 342 342 342 337 338 340 342 342 342 343 347 345 345 345 344 343 349 348 348 350 352 349 350 352 349 349 349 346 344 348 345 343 345 346 345 342 344 345 347 350 348 345 351 348

GFSSGP_850_thetae_147.txt.gz
Theta_e
351 351 353 350 353 355 351 348 343 347 345 345 346 346 345 340 345 348 346 342 336 334 330 332 333 334 334 335 336 337 336 336 337 341 342 341 337 334 333 334 335 335 337 337 325 327 332 338 338
347 350 351 342 352 354 348 346 350 346 342 344 344 345 344 346 343 345 345 345 335 335 334 334 332 332 333 333 336 338 338 338 336 334 337 335 334 338 337 340 340 340 340 335 327 333 338 339 342
349 347 348 346 350 354 351 347 346 345 344 344 343 344 345 345 345 346 346 345 343 336 337 335 335 335 334 334 335 336 337 338 338 338 338 339 338 339 341 341 342 343 340 334 336 338 339 338 344
350 344 342 345 349 347 347 348 341 344 344 344 345 345 347 345 343 344 343 345 344 336 336 334 333 333 333 335 336 336 337 337 342 342 341 342 342 340 340 339 340 341 340 341 341 339 339 339 344
348 348 347 347 346 346 348 348 348 347 344 345 345 346 348 346 345 343 338 342 340 331 334 333 335 335 334 336 334 334 336 337 340 338 339 340 339 337 337 335 338 337 339 339 340 341 338 339 343
348 345 350 348 346 344 346 343 347 346 345 345 344 345 348 347 346 345 345 343 330 332 338 338 335 336 336 337 334 335 335 335 336 337 337 339 338 335 335 331 327 330 334 334 333 334 334 340 344
343 346 352 352 349 352 350 345 344 346 345 344 343 345 348 346 343 342 345 345 343 330 335 339 338 336 341 336 330 331 333 334 330 332 335 338 338 336 333 333 331 328 326 325 325 329 331 336 345
344 345 354 352 352 347 349 344 346 348 345 343 342 344 346 346 344 341 343 346 344 336 331 336 335 334 337 336 333 333 328 325 325 328 335 337 335 337 337 336 336 333 327 324 324 324 325 330 338
346 350 352 352 350 347 349 346 346 346 346 343 343 343 347 347 344 341 344 345 346 342 333 332 333 334 333 331 333 332 330 326 329 331 335 336 335 339 339 337 336 333 326 324 324 325 335 341 342
349 352 353 349 349 347 348 349 349 346 346 345 344 344 348 347 344 338 342 345 345 345 343 346 346 342 331 331 332 342 344 345 346 345 342 340 338 338 338 338 338 334 340 341 333 341 340 339 340
351 347 346 348 342 336 350 350 348 345 347 344 343 342 345 346 343 344 345 345 345 338 343 342 343 341 344 345 340 339 344 345 343 345 342 340 339 338 338 340 337 344 345 346 348 347 345 348 342
353 347 348 349 348 349 348 348 347 345 345 344 343 341 343 344 344 344 345 345 344 342 339 334 335 341 343 343 342 341 341 342 334 341 343 342 341 340 337 343 345 346 348 350 348 346 344 341 340
349 341 346 347 345 347 345 348 347 345 343 344 342 342 343 343 344 343 342 344 346 342 343 343 334 338 343 342 343 343 343 341 339 340 341 340 341 340 335 337 345 346 344 346 344 344 344 342 341
342 343 346 344 346 346 347 345 348 346 345 345 343 342 344 342 345 344 342 342 342 344 346 344 338 343 343 337 344 343 339 335 336 338 340 340 335 334 334 334 343 345 346 346 344 342 342 342 341
345 350 347 347 348 346 342 345 348 345 346 343 343 342 343 343 342 344 342 341 339 344 345 343 341 346 347 345 344 343 342 342 341 338 337 343 338 340 334 341 344 347 344 346 345 344 344 342 341
351 350 353 349 348 346 345 347 343 342 344 345 344 343 342 342 343 345 343 341 342 341 345 343 343 341 345 343 346 343 342 344 343 343 341 335 337 339 342 343 345 344 345 345 346 346 346 343 345
345 354 348 346 349 345 344 346 341 341 341 343 345 344 342 342 344 343 343 342 342 343 341 344 347 343 339 342 346 345 345 344 345 345 345 338 335 337 344 346 346 344 345 345 346 347 346 345 345
345 350 343 349 351 347 346 344 340 338 338 341 343 345 340 342 344 344 343 343 342 343 341 343 346 344 341 344 344 344 345 344 342 344 344 342 340 340 344 345 346 347 348 347 347 344 347 349 347
343 345 344 343 349 348 347 344 338 336 340 339 340 345 345 344 342 344 344 343 343 344 342 345 344 345 340 342 344 346 343 346 344 341 346 346 345 343 343 341 342 347 347 346 347 348 348 351 347
344 348 350 340 344 345 344 345 341 338 339 340 341 345 345 346 345 345 344 344 346 345 343 344 345 344 342 341 345 345 347 346 346 346 346 345 344 345 343 340 336 344 347 343 345 347 349 349 346
345 340 340 340 338 347 346 350 347 344 340 338 342 343 345 346 344 345 346 346 345 344 343 341 344 344 342 345 345 346 345 345 345 347 349 340 345 349 346 336 333 341 339 345 349 350 351 349 349
335 342 341 340 350 350 348 352 350 346 345 342 343 343 343 344 345 344 346 346 346 345 343 342 343 342 343 348 347 346 346 346 343 344 346 342 347 348 344 340 338 338 343 346 347 349 348 348 351
329 337 337 339 338 341 351 344 352 345 345 344 342 342 343 343 343 341 344 347 347 346 343 343 343 343 343 348 348 346 344 347 347 348 349 346 345 348 348 342 339 338 336 341 346 344 348 346 344
328 329 333 332 333 335 339 341 353 348 345 342 342 341 343 343 343 343 342 345 348 348 345 345 344 345 340 346 345 344 344 346 347 346 348 346 346 345 349 347 341 344 341 333 333 341 347 346 346
326 323 325 330 342 343 337 341 340 346 343 340 342 341 340 341 342 343 342 344 345 349 346 346 345 345 341 343 344 342 344 347 347 347 347 345 346 347 344 344 339 335 339 341 347 351 344 346 343
326 322 322 338 343 343 339 344 347 345 345 345 343 340 340 340 342 343 340 343 345 349 347 347 346 346 343 336 342 346 345 345 346 347 344 347 349 348 349 347 346 344 346 348 344 339 345 351 350
324 331 331 335 339 341 340 343 341 343 341 345 345 344 341 342 343 343 344 344 345 348 349 348 346 348 345 341 337 344 342 344 348 348 349 349 349 348 350 348 348 346 348 350 350 350 346 350 350
327 330 328 332 342 346 344 347 347 344 340 338 340 343 342 341 342 343 344 346 346 347 345 349 347 347 346 343 340 340 341 343 342 345 344 344 347 348 349 348 349 348 351 351 347 344 346 348 347
327 329 329 333 335 343 347 348 340 338 337 338 340 342 342 342 343 344 346 345 345 347 342 349 348 347 347 345 342 341 340 340 345 344 343 344 344 345 347 350 350 348 347 348 349 349 346 348 348
329 332 328 327 340 341 339 338 338 336 337 339 340 342 343 344 341 345 346 345 344 343 344 347 349 348 349 347 343 344 343 341 339 340 343 345 344 347 347 347 346 346 347 350 352 349 348 346 349

GFSSGP_850_thetae_150.txt.gz
Theta_e
351 349 349 346 352 352 353 350 346 346 345 344 343 344 343 343 343 340 339 341 329 332 334 334 336 336 334 334 334 333 338 341 339 340 337 336 334 334 338 335 334 336 333 334 335 335 338 335 334
346 350 350 343 349 351 353 347 346 342 344 344 344 343 344 344 344 344 343 336 329 332 334 335 335 335 335 337 335 335 333 337 341 342 340 333 332 334 334 336 338 339 336 326 331 338 338 339 344
349 346 346 342 346 353 352 348 345 344 343 342 343 342 344 345 345 342 336 337 331 332 331 332 333 334 335 336 337 338 338 337 334 336 338 338 341 339 341 341 340 340 329 328 338 339 340 344 344
349 344 341 344 349 347 349 346 345 345 344 344 344 346 344 343 344 344 342 336 334 335 335 334 333 334 334 333 336 336 339 338 337 338 340 341 341 341 340 342 340 335 333 335 339 337 341 342 343
347 342 346 348 347 348 347 348 346 345 346 346 345 347 346 345 344 344 345 337 335 336 332 334 334 335 336 335 336 336 341 341 341 342 342 341 340 340 339 340 339 340 340 339 338 337 340 342 343
341 342 351 350 349 347 344 347 346 345 346 347 347 347 346 343 342 345 344 341 331 332 330 334 335 334 335 334 337 337 339 339 339 341 340 338 337 333 335 337 338 339 339 340 340 337 343 342 345
342 346 351 350 349 350 349 347 346 344 346 346 346 346 344 340 340 343 341 332 330 330 332 334 334 335 338 337 336 336 335 338 339 340 339 337 334 333 328 327 327 330 332 332 335 336 342 344 346
340 346 352 350 351 349 347 347 348 345 344 346 346 346 345 342 344 343 336 333 328 332 332 333 334 337 335 331 333 336 334 329 335 336 337 337 332 332 332 330 329 326 325 325 328 332 338 343 341
343 349 352 351 349 343 345 347 347 346 343 344 344 345 344 345 344 344 344 340 334 334 334 333 333 336 333 334 331 325 324 326 330 335 335 335 337 336 335 335 332 329 325 324 324 327 337 340 341
345 349 350 347 343 341 339 347 346 344 344 345 346 344 344 343 346 345 345 344 339 336 333 330 336 330 331 330 332 332 337 336 334 335 336 338 339 339 338 338 334 332 325 325 335 340 341 341 342
348 351 348 347 344 343 348 347 348 347 347 347 347 345 342 343 344 343 344 342 341 337 339 341 333 332 329 340 343 344 346 345 343 343 342 340 338 337 338 338 340 344 341 339 341 344 342 341 342
348 343 348 341 341 347 347 343 347 346 344 345 346 346 342 340 344 343 342 339 337 341 337 340 337 343 334 339 344 343 342 343 344 339 338 339 337 339 339 339 343 346 348 347 346 345 344 344 342
343 341 348 347 348 345 347 348 347 346 344 344 347 346 344 342 342 344 343 342 341 337 337 339 340 340 340 340 338 340 341 336 340 339 338 338 339 338 337 341 344 344 347 343 343 342 342 342 341
343 345 345 345 347 346 346 346 347 345 345 342 345 345 345 344 345 344 344 344 340 340 337 335 340 340 342 343 340 338 337 339 338 339 339 338 336 338 336 340 344 345 344 343 341 341 342 343 342
347 347 345 347 347 346 344 346 347 346 344 345 343 343 343 343 344 343 344 343 343 343 339 335 337 339 336 342 342 339 337 336 339 338 339 335 337 336 335 343 344 345 344 342 342 342 341 342 340
348 342 346 345 348 345 341 344 345 345 344 345 344 343 343 343 342 342 342 342 343 343 342 339 341 344 342 343 341 340 340 340 337 333 336 335 335 337 341 343 346 344 346 346 345 344 344 342 340
347 345 347 344 345 345 341 342 343 342 344 345 344 342 342 343 343 341 341 340 343 343 343 341 341 345 344 345 340 341 343 342 340 337 334 336 337 340 342 343 345 344 345 346 346 346 346 345 342
345 349 348 350 350 345 344 343 339 340 342 343 345 343 342 343 344 342 341 341 342 342 342 344 342 343 344 345 343 343 343 343 343 338 335 334 337 339 343 343 341 344 347 347 348 348 347 348 345
344 342 343 349 350 348 346 344 341 338 339 341 342 345 341 341 343 343 342 342 342 342 343 344 344 340 340 345 344 343 341 342 344 340 341 339 340 340 341 344 344 347 345 347 344 346 347 346 342
343 346 349 342 346 344 343 345 342 338 338 340 341 344 344 344 343 343 343 342 343 341 342 345 344 342 339 344 344 343 344 343 340 341 342 341 344 342 342 341 342 347 347 345 346 347 349 345 343
345 345 347 340 346 344 346 346 344 340 338 338 338 342 345 345 341 344 343 343 343 343 342 344 344 343 340 339 344 345 345 346 345 345 345 346 343 345 343 334 338 346 346 343 347 345 350 347 346
343 339 342 340 345 349 346 349 347 343 343 341 341 340 345 345 344 345 344 344 344 345 343 343 343 343 341 344 343 344 344 343 342 345 343 342 342 347 344 336 343 339 342 346 344 347 344 344 346
326 339 339 346 345 345 350 349 342 344 345 343 342 341 343 344 344 344 346 346 345 345 343 342 342 343 341 342 344 345 346 346 343 344 345 341 341 344 345 341 340 339 339 344 344 334 343 344 347
326 332 334 337 334 332 338 348 339 346 341 339 340 340 342 342 344 345 345 345 345 345 343 343 342 343 342 341 345 344 345 344 344 346 347 345 343 344 347 345 337 337 340 339 344 339 343 346 347
320 318 321 325 335 337 334 338 336 343 342 340 338 340 341 341 342 343 344 345 346 346 345 344 343 343 343 342 343 343 344 345 343 345 345 346 346 341 346 341 338 338 338 336 338 345 342 347 344
323 318 319 330 337 335 335 338 341 342 339 341 340 341 341 340 340 343 342 345 346 346 346 346 344 344 344 342 345 344 344 344 344 344 345 346 346 345 343 343 344 339 337 336 339 340 343 345 347
323 324 320 331 334 336 339 339 339 341 341 338 339 340 340 341 341 342 343 342 344 347 347 346 346 345 344 339 340 344 342 343 346 345 344 345 349 347 348 346 346 343 346 351 347 341 339 348 349
324 323 325 327 336 342 339 343 343 343 344 341 335 337 342 342 341 340 342 341 343 343 345 347 347 346 346 342 337 340 344 341 345 346 348 347 348 348 348 348 347 346 346 348 346 344 343 345 348
323 326 328 328 330 336 339 342 337 339 339 337 336 340 340 342 342 340 342 341 342 344 345 347 346 346 347 346 341 338 341 342 345 347 349 346 345 346 349 348 348 348 348 347 345 344 344 345 345
327 326 325 329 334 334 336 336 336 338 338 337 340 340 342 344 342 341 340 341 341 344 345 346 347 346 347 347 345 341 337 339 342 343 346 348 344 344 347 346 347 349 347 347 348 346 347 346 344

GFSSGP_850_thetae_156.txt.gz
Theta_e
347 349 348 344 346 347 350 350 342 341 340 342 344 342 341 343 341 334 335 333 334 338 338 337 342 341 341 339 339 340 340 338 342 341 339 336 335 337 336 338 337 339 340 339 337 336 336 338 339
348 348 348 343 346 351 353 345 345 343 341 343 342 343 343 344 340 336 334 332 335 339 337 338 339 339 338 339 341 341 340 341 341 339 336 338 340 339 338 336 333 340 338 342 334 336 339 342 341
348 347 342 343 345 350 353 346 345 343 343 342 343 343 343 343 338 335 331 333 336 336 336 336 337 337 336 337 342 341 341 340 338 336 334 335 335 334 336 337 331 334 338 341 338 342 343 342 342
348 342 340 345 352 349 349 348 346 343 342 341 340 345 343 343 338 334 331 333 335 334 336 335 336 338 338 338 336 340 342 342 337 336 337 338 338 341 336 339 328 334 341 338 339 342 343 343 343
344 342 346 347 351 347 346 345 344 345 344 343 341 345 344 342 338 331 330 331 332 332 335 337 337 337 338 338 339 338 338 338 338 339 342 342 344 344 342 334 328 336 339 338 343 342 342 342 342
340 344 349 351 350 346 345 345 344 346 344 343 343 344 343 344 334 333 330 332 332 332 333 333 336 337 337 339 342 342 341 340 342 340 339 340 340 340 337 337 337 338 338 337 340 340 342 342 343
345 347 348 348 348 347 345 341 344 346 344 344 343 343 344 343 337 334 333 333 333 333 333 333 335 336 336 338 341 339 341 341 339 338 339 339 340 337 338 339 339 339 339 337 339 340 342 343 343
343 345 347 346 347 347 344 341 342 344 346 344 342 343 342 343 341 335 335 335 334 332 333 332 334 334 335 335 338 338 339 339 338 336 333 343 341 327 328 331 334 334 337 337 338 343 344 343 342
344 345 348 347 345 348 345 346 342 346 345 344 345 341 340 341 343 341 335 333 331 333 334 332 334 332 332 336 334 333 335 337 338 335 333 334 332 330 326 324 325 328 332 336 341 343 341 341 342
346 346 348 346 343 345 344 345 346 344 345 345 342 341 342 342 342 341 330 329 331 332 333 336 334 329 332 335 331 327 331 335 335 333 335 334 331 329 328 326 324 324 325 331 338 341 341 341 342
346 348 348 343 342 344 345 346 344 343 346 345 342 341 342 341 336 334 329 328 331 333 333 336 333 332 329 325 324 326 330 333 333 334 334 333 333 332 331 327 328 331 331 333 339 340 341 341 340
348 344 345 343 343 346 346 345 346 343 344 344 342 340 341 340 334 334 330 329 331 334 330 332 330 329 326 331 340 337 332 333 333 334 334 334 336 339 338 336 336 336 339 340 341 342 342 341 341
344 344 344 343 345 343 341 346 347 346 345 344 342 340 341 341 341 339 334 330 331 331 332 330 330 332 338 341 340 342 340 336 336 335 335 335 338 342 343 344 344 344 344 342 342 342 340 341 340
340 347 344 346 343 342 342 344 346 345 347 343 343 341 342 341 341 341 340 336 333 333 338 331 329 333 338 337 338 339 336 342 336 335 336 338 338 341 342 343 343 341 342 341 343 342 341 342 341
344 344 345 346 345 345 345 347 347 346 346 344 344 343 342 342 341 342 341 340 338 337 339 338 332 333 337 337 337 337 338 339 338 338 338 338 337 337 341 342 343 342 341 340 340 341 341 340 341
339 340 342 342 346 344 341 346 344 344 346 345 343 342 342 342 340 341 341 340 339 340 337 339 340 340 340 340 340 338 337 337 336 338 339 335 337 337 336 342 344 343 342 341 341 341 339 340 339
340 339 343 345 342 343 340 341 343 344 345 346 344 342 341 341 341 341 342 341 338 338 340 336 338 339 340 341 340 339 336 338 337 336 339 335 337 336 342 343 344 344 343 343 343 343 343 341 340
341 343 345 346 347 344 342 340 341 344 345 345 345 343 342 341 341 341 342 342 341 340 339 335 337 338 338 341 341 338 339 341 337 335 337 338 336 341 342 343 344 345 345 345 345 345 344 345 342
339 343 345 346 347 345 344 341 340 341 344 343 343 342 343 343 343 342 343 342 342 341 339 335 341 341 341 340 340 339 341 342 341 337 338 338 338 341 342 343 343 344 346 347 347 345 346 345 344
325 341 342 342 347 343 344 344 340 339 341 343 343 341 342 343 342 341 343 343 341 341 341 338 341 342 341 342 339 340 339 341 340 337 335 339 341 341 342 342 342 344 345 347 347 344 344 334 339
338 338 342 341 346 344 343 341 341 339 339 342 343 342 342 342 342 342 342 343 342 341 341 340 339 341 340 341 343 342 340 341 341 338 337 340 340 341 341 342 341 344 344 345 346 346 344 341 341
338 338 341 347 340 338 342 342 341 340 339 342 343 342 342 342 343 342 341 342 342 341 342 341 342 342 340 341 343 342 341 341 340 338 338 344 343 342 341 337 341 343 345 345 345 345 344 342 345
334 340 339 341 337 340 345 342 338 340 341 339 340 342 342 343 342 342 341 341 340 340 341 341 343 343 340 340 343 344 342 342 343 343 344 341 341 342 342 340 335 341 344 345 345 345 344 343 343
331 332 331 328 334 338 336 344 339 341 341 339 338 338 341 342 343 342 342 342 342 341 341 341 343 344 342 342 343 341 343 341 341 342 343 341 340 343 343 341 335 339 343 345 344 342 342 343 342
325 322 328 335 339 339 330 343 337 335 340 339 339 338 337 339 344 343 342 342 342 342 341 341 342 344 343 341 341 340 341 342 342 343 341 341 341 341 345 344 338 340 341 342 343 341 341 344 344
327 318 320 325 330 330 332 338 333 337 339 339 339 340 339 337 339 344 343 342 343 342 342 342 342 343 343 343 341 342 341 342 343 344 342 341 343 343 342 344 342 340 340 339 338 342 342 341 343
318 320 317 325 328 331 331 333 332 340 340 338 340 338 340 340 339 341 344 343 343 342 342 343 343 343 342 342 342 341 341 342 342 343 343 343 342 344 345 343 342 344 340 339 340 340 343 342 343
321 320 326 323 334 336 332 335 335 338 338 340 336 340 339 340 340 339 343 344 344 343 343 343 344 344 343 342 342 342 342 341 342 342 343 342 343 344 343 345 343 345 345 344 344 347 344 343 344
322 326 324 323 324 329 331 329 328 334 335 335 337 339 339 339 340 341 341 343 344 344 344 344 344 344 343 343 343 343 343 342 341 342 343 343 344 345 343 346 346 344 345 345 346 346 346 346 345
320 325 323 324 330 326 325 327 327 335 334 337 339 341 342 341 340 341 341 341 343 344 345 345 344 344 344 344 344 343 344 343 340 342 342 343 344 344 342 344 345 346 347 345 346 346 345 345 346